<?xml version='1.0' encoding='UTF-8'?><gpx version="1.1" creator="JPX - https://github.com/jenetics/jpx" xmlns="http://www.topografix.com/GPX/1/1"><trk><trkseg><trkpt lat="44.7637561" lon="7.2456047"><ele>1249.0</ele><time>2026-04-18T12:01:27.009Z</time></trkpt><trkpt lat="44.7636938" lon="7.2455299"><ele>1249.0</ele><time>2026-04-18T12:01:29.008Z</time></trkpt><trkpt lat="44.7636584" lon="7.2454469"><ele>1249.0</ele><time>2026-04-18T12:01:30.008Z</time></trkpt><trkpt lat="44.7636107" lon="7.2453661"><ele>1249.0</ele><time>2026-04-18T12:01:31.009Z</time></trkpt><trkpt lat="44.7635583" lon="7.2452891"><ele>1249.0</ele><time>2026-04-18T12:01:32.009Z</time></trkpt><trkpt lat="44.7635048" lon="7.2452126"><ele>1249.0</ele><time>2026-04-18T12:01:33.009Z</time></trkpt><trkpt lat="44.763452" lon="7.2451355"><ele>1249.0</ele><time>2026-04-18T12:01:34.009Z</time></trkpt><trkpt lat="44.7634019" lon="7.2450612"><ele>1249.0</ele><time>2026-04-18T12:01:35.009Z</time></trkpt><trkpt lat="44.7633512" lon="7.2449885"><ele>1249.0</ele><time>2026-04-18T12:01:36.008Z</time></trkpt><trkpt lat="44.7633036" lon="7.2449175"><ele>1249.0</ele><time>2026-04-18T12:01:37.009Z</time></trkpt><trkpt lat="44.7632542" lon="7.2448415"><ele>1249.0</ele><time>2026-04-18T12:01:38.007Z</time></trkpt><trkpt lat="44.7631996" lon="7.244763"><ele>1249.0</ele><time>2026-04-18T12:01:39.008Z</time></trkpt><trkpt lat="44.7631382" lon="7.2446813"><ele>1249.0</ele><time>2026-04-18T12:01:40.008Z</time></trkpt><trkpt lat="44.7630697" lon="7.2446038"><ele>1249.0</ele><time>2026-04-18T12:01:41.008Z</time></trkpt><trkpt lat="44.7629978" lon="7.2445227"><ele>1249.0</ele><time>2026-04-18T12:01:42.008Z</time></trkpt><trkpt lat="44.7629297" lon="7.2444435"><ele>1249.0</ele><time>2026-04-18T12:01:43.009Z</time></trkpt><trkpt lat="44.7628589" lon="7.2443663"><ele>1249.0</ele><time>2026-04-18T12:01:44.009Z</time></trkpt><trkpt lat="44.7627831" lon="7.2442868"><ele>1249.75</ele><time>2026-04-18T12:01:45.009Z</time></trkpt><trkpt lat="44.7626974" lon="7.2442058"><ele>1250.5</ele><time>2026-04-18T12:01:46.009Z</time></trkpt><trkpt lat="44.7626046" lon="7.2441209"><ele>1251.25</ele><time>2026-04-18T12:01:47.009Z</time></trkpt><trkpt lat="44.7625058" lon="7.2440383"><ele>1252.0</ele><time>2026-04-18T12:01:48.009Z</time></trkpt><trkpt lat="44.7623986" lon="7.2439516"><ele>1252.0</ele><time>2026-04-18T12:01:49.008Z</time></trkpt><trkpt lat="44.7622874" lon="7.2438574"><ele>1252.0</ele><time>2026-04-18T12:01:50.008Z</time></trkpt><trkpt lat="44.7621756" lon="7.2437503"><ele>1252.0</ele><time>2026-04-18T12:01:51.008Z</time></trkpt><trkpt lat="44.7620633" lon="7.2436269"><ele>1252.0</ele><time>2026-04-18T12:01:52.009Z</time></trkpt><trkpt lat="44.7619554" lon="7.243492"><ele>1254.3333333333333</ele><time>2026-04-18T12:01:53.008Z</time></trkpt><trkpt lat="44.7618489" lon="7.2433486"><ele>1256.6666666666667</ele><time>2026-04-18T12:01:54.008Z</time></trkpt><trkpt lat="44.7617433" lon="7.243196"><ele>1259.0</ele><time>2026-04-18T12:01:55.007Z</time></trkpt><trkpt lat="44.7616371" lon="7.2430391"><ele>1259.0</ele><time>2026-04-18T12:01:56.007Z</time></trkpt><trkpt lat="44.7615342" lon="7.2428734"><ele>1259.0</ele><time>2026-04-18T12:01:57.008Z</time></trkpt><trkpt lat="44.7614347" lon="7.2427079"><ele>1259.0</ele><time>2026-04-18T12:01:58.008Z</time></trkpt><trkpt lat="44.7613333" lon="7.2425347"><ele>1259.0</ele><time>2026-04-18T12:01:59.008Z</time></trkpt><trkpt lat="44.7612175" lon="7.2423419"><ele>1259.0</ele><time>2026-04-18T12:02:00.008Z</time></trkpt><trkpt lat="44.7610867" lon="7.2421344"><ele>1259.0</ele><time>2026-04-18T12:02:01.008Z</time></trkpt><trkpt lat="44.7609593" lon="7.2419459"><ele>1257.3333333333335</ele><time>2026-04-18T12:02:02.007Z</time></trkpt><trkpt lat="44.7608212" lon="7.2417707"><ele>1255.6666666666667</ele><time>2026-04-18T12:02:03.008Z</time></trkpt><trkpt lat="44.7606737" lon="7.2416065"><ele>1254.0</ele><time>2026-04-18T12:02:04.008Z</time></trkpt><trkpt lat="44.7605187" lon="7.2414627"><ele>1254.0</ele><time>2026-04-18T12:02:05.007Z</time></trkpt><trkpt lat="44.7603567" lon="7.2413399"><ele>1254.0</ele><time>2026-04-18T12:02:06.008Z</time></trkpt><trkpt lat="44.7601948" lon="7.2412385"><ele>1254.0</ele><time>2026-04-18T12:02:07.008Z</time></trkpt><trkpt lat="44.7600444" lon="7.2411552"><ele>1258.0</ele><time>2026-04-18T12:02:08.007Z</time></trkpt><trkpt lat="44.7599035" lon="7.2410915"><ele>1262.0</ele><time>2026-04-18T12:02:09.007Z</time></trkpt><trkpt lat="44.7597692" lon="7.2410522"><ele>1266.0</ele><time>2026-04-18T12:02:10.007Z</time></trkpt><trkpt lat="44.7596428" lon="7.2410414"><ele>1270.0</ele><time>2026-04-18T12:02:11.008Z</time></trkpt><trkpt lat="44.7595256" lon="7.241072"><ele>1270.0</ele><time>2026-04-18T12:02:12.008Z</time></trkpt><trkpt lat="44.7594099" lon="7.2411384"><ele>1270.0</ele><time>2026-04-18T12:02:13.007Z</time></trkpt><trkpt lat="44.7592916" lon="7.2412557"><ele>1270.0</ele><time>2026-04-18T12:02:14.008Z</time></trkpt><trkpt lat="44.7591649" lon="7.2413992"><ele>1270.0</ele><time>2026-04-18T12:02:15.008Z</time></trkpt><trkpt lat="44.7590248" lon="7.2415597"><ele>1275.0</ele><time>2026-04-18T12:02:16.007Z</time></trkpt><trkpt lat="44.7588892" lon="7.2416827"><ele>1280.0</ele><time>2026-04-18T12:02:17.008Z</time></trkpt><trkpt lat="44.7587401" lon="7.2417853"><ele>1285.0</ele><time>2026-04-18T12:02:18.008Z</time></trkpt><trkpt lat="44.7585616" lon="7.2418183"><ele>1283.3333333333333</ele><time>2026-04-18T12:02:19.008Z</time></trkpt><trkpt lat="44.7583935" lon="7.2418261"><ele>1281.6666666666667</ele><time>2026-04-18T12:02:20.007Z</time></trkpt><trkpt lat="44.7582101" lon="7.2417924"><ele>1280.0</ele><time>2026-04-18T12:02:21.007Z</time></trkpt><trkpt lat="44.7580028" lon="7.2417348"><ele>1280.0</ele><time>2026-04-18T12:02:22.008Z</time></trkpt><trkpt lat="44.7577735" lon="7.2416639"><ele>1280.0</ele><time>2026-04-18T12:02:23.008Z</time></trkpt><trkpt lat="44.7575261" lon="7.2415917"><ele>1280.5</ele><time>2026-04-18T12:02:24.007Z</time></trkpt><trkpt lat="44.7572852" lon="7.2415261"><ele>1281.0</ele><time>2026-04-18T12:02:25.008Z</time></trkpt><trkpt lat="44.7570526" lon="7.2414728"><ele>1286.5</ele><time>2026-04-18T12:02:26.007Z</time></trkpt><trkpt lat="44.7568114" lon="7.2414351"><ele>1292.0</ele><time>2026-04-18T12:02:27.007Z</time></trkpt><trkpt lat="44.7565897" lon="7.2414159"><ele>1292.0</ele><time>2026-04-18T12:02:28.008Z</time></trkpt><trkpt lat="44.7563756" lon="7.2413837"><ele>1292.0</ele><time>2026-04-18T12:02:29.007Z</time></trkpt><trkpt lat="44.7561639" lon="7.2413238"><ele>1292.0</ele><time>2026-04-18T12:02:30.007Z</time></trkpt><trkpt lat="44.7559621" lon="7.241235"><ele>1293.3333333333335</ele><time>2026-04-18T12:02:31.008Z</time></trkpt><trkpt lat="44.7557942" lon="7.2411369"><ele>1294.6666666666667</ele><time>2026-04-18T12:02:32.008Z</time></trkpt><trkpt lat="44.7556543" lon="7.2410259"><ele>1296.0</ele><time>2026-04-18T12:02:33.008Z</time></trkpt><trkpt lat="44.7555337" lon="7.2408763"><ele>1296.0</ele><time>2026-04-18T12:02:34.007Z</time></trkpt><trkpt lat="44.7554365" lon="7.2406867"><ele>1296.0</ele><time>2026-04-18T12:02:35.008Z</time></trkpt><trkpt lat="44.7553595" lon="7.2404659"><ele>1296.0</ele><time>2026-04-18T12:02:36.008Z</time></trkpt><trkpt lat="44.7552802" lon="7.2402309"><ele>1298.6666666666667</ele><time>2026-04-18T12:02:37.008Z</time></trkpt><trkpt lat="44.7551766" lon="7.240034"><ele>1301.3333333333335</ele><time>2026-04-18T12:02:38.008Z</time></trkpt><trkpt lat="44.7550539" lon="7.2398568"><ele>1304.0</ele><time>2026-04-18T12:02:39.008Z</time></trkpt><trkpt lat="44.7549456" lon="7.2396985"><ele>1306.25</ele><time>2026-04-18T12:02:40.008Z</time></trkpt><trkpt lat="44.7548641" lon="7.2395413"><ele>1308.5</ele><time>2026-04-18T12:02:41.007Z</time></trkpt><trkpt lat="44.7548161" lon="7.2393522"><ele>1310.75</ele><time>2026-04-18T12:02:42.007Z</time></trkpt><trkpt lat="44.7547946" lon="7.2391376"><ele>1313.0</ele><time>2026-04-18T12:02:43.007Z</time></trkpt><trkpt lat="44.7547865" lon="7.2389003"><ele>1314.0</ele><time>2026-04-18T12:02:44.008Z</time></trkpt><trkpt lat="44.7547636" lon="7.2386584"><ele>1315.0</ele><time>2026-04-18T12:02:45.008Z</time></trkpt><trkpt lat="44.7547184" lon="7.2384437"><ele>1316.0</ele><time>2026-04-18T12:02:46.008Z</time></trkpt><trkpt lat="44.7546539" lon="7.2382534"><ele>1318.6666666666667</ele><time>2026-04-18T12:02:47.008Z</time></trkpt><trkpt lat="44.7545662" lon="7.2381002"><ele>1321.3333333333333</ele><time>2026-04-18T12:02:48.008Z</time></trkpt><trkpt lat="44.7544507" lon="7.2379736"><ele>1324.0</ele><time>2026-04-18T12:02:49.008Z</time></trkpt><trkpt lat="44.7543033" lon="7.23787"><ele>1324.0</ele><time>2026-04-18T12:02:50.007Z</time></trkpt><trkpt lat="44.7541555" lon="7.2377765"><ele>1324.0</ele><time>2026-04-18T12:02:51.008Z</time></trkpt><trkpt lat="44.7540373" lon="7.2376644"><ele>1324.0</ele><time>2026-04-18T12:02:52.008Z</time></trkpt><trkpt lat="44.7539473" lon="7.2375252"><ele>1324.0</ele><time>2026-04-18T12:02:53.007Z</time></trkpt><trkpt lat="44.7538815" lon="7.2373692"><ele>1326.0</ele><time>2026-04-18T12:02:54.007Z</time></trkpt><trkpt lat="44.7538073" lon="7.2372222"><ele>1328.0</ele><time>2026-04-18T12:02:55.007Z</time></trkpt><trkpt lat="44.7537019" lon="7.2370875"><ele>1330.0</ele><time>2026-04-18T12:02:56.007Z</time></trkpt><trkpt lat="44.753566" lon="7.2369577"><ele>1332.0</ele><time>2026-04-18T12:02:57.007Z</time></trkpt><trkpt lat="44.7534155" lon="7.2368249"><ele>1332.0</ele><time>2026-04-18T12:02:58.008Z</time></trkpt><trkpt lat="44.7532548" lon="7.2367042"><ele>1332.0</ele><time>2026-04-18T12:02:59.007Z</time></trkpt><trkpt lat="44.753088" lon="7.2366151"><ele>1332.0</ele><time>2026-04-18T12:03:00.008Z</time></trkpt><trkpt lat="44.7529256" lon="7.2365472"><ele>1332.0</ele><time>2026-04-18T12:03:01.006Z</time></trkpt><trkpt lat="44.752763" lon="7.236481"><ele>1332.0</ele><time>2026-04-18T12:03:02.008Z</time></trkpt><trkpt lat="44.7526065" lon="7.2364025"><ele>1332.0</ele><time>2026-04-18T12:03:03.008Z</time></trkpt><trkpt lat="44.7524629" lon="7.2363035"><ele>1333.6666666666667</ele><time>2026-04-18T12:03:04.007Z</time></trkpt><trkpt lat="44.7523348" lon="7.2361808"><ele>1335.3333333333335</ele><time>2026-04-18T12:03:05.007Z</time></trkpt><trkpt lat="44.7522172" lon="7.2360337"><ele>1337.0</ele><time>2026-04-18T12:03:06.007Z</time></trkpt><trkpt lat="44.7521082" lon="7.2358612"><ele>1337.0</ele><time>2026-04-18T12:03:07.008Z</time></trkpt><trkpt lat="44.752" lon="7.2356873"><ele>1337.0</ele><time>2026-04-18T12:03:08.007Z</time></trkpt><trkpt lat="44.751896" lon="7.2355456"><ele>1337.0</ele><time>2026-04-18T12:03:09.006Z</time></trkpt><trkpt lat="44.7517798" lon="7.2354425"><ele>1337.0</ele><time>2026-04-18T12:03:10.008Z</time></trkpt><trkpt lat="44.7516448" lon="7.2353753"><ele>1345.0</ele><time>2026-04-18T12:03:11.008Z</time></trkpt><trkpt lat="44.7514918" lon="7.2353321"><ele>1353.0</ele><time>2026-04-18T12:03:12.007Z</time></trkpt><trkpt lat="44.7513257" lon="7.2352986"><ele>1361.0</ele><time>2026-04-18T12:03:13.008Z</time></trkpt><trkpt lat="44.7511691" lon="7.2352533"><ele>1362.75</ele><time>2026-04-18T12:03:14.007Z</time></trkpt><trkpt lat="44.7510303" lon="7.2352047"><ele>1364.5</ele><time>2026-04-18T12:03:15.007Z</time></trkpt><trkpt lat="44.7508935" lon="7.235148"><ele>1366.25</ele><time>2026-04-18T12:03:16.007Z</time></trkpt><trkpt lat="44.7507558" lon="7.2350868"><ele>1368.0</ele><time>2026-04-18T12:03:17.008Z</time></trkpt><trkpt lat="44.7506146" lon="7.2350175"><ele>1368.0</ele><time>2026-04-18T12:03:18.007Z</time></trkpt><trkpt lat="44.7504792" lon="7.2349509"><ele>1368.0</ele><time>2026-04-18T12:03:19.008Z</time></trkpt><trkpt lat="44.7503484" lon="7.2348855"><ele>1368.0</ele><time>2026-04-18T12:03:20.008Z</time></trkpt><trkpt lat="44.7502176" lon="7.234813"><ele>1368.0</ele><time>2026-04-18T12:03:21.007Z</time></trkpt><trkpt lat="44.7500837" lon="7.2347387"><ele>1374.0</ele><time>2026-04-18T12:03:22.008Z</time></trkpt><trkpt lat="44.7499304" lon="7.2346603"><ele>1380.0</ele><time>2026-04-18T12:03:23.007Z</time></trkpt><trkpt lat="44.7497599" lon="7.2345827"><ele>1386.0</ele><time>2026-04-18T12:03:24.008Z</time></trkpt><trkpt lat="44.7495722" lon="7.2345073"><ele>1386.0</ele><time>2026-04-18T12:03:25.008Z</time></trkpt><trkpt lat="44.7493797" lon="7.2344392"><ele>1386.0</ele><time>2026-04-18T12:03:26.007Z</time></trkpt><trkpt lat="44.7492" lon="7.2343852"><ele>1386.0</ele><time>2026-04-18T12:03:27.007Z</time></trkpt><trkpt lat="44.7490229" lon="7.2343441"><ele>1384.0</ele><time>2026-04-18T12:03:28.008Z</time></trkpt><trkpt lat="44.7488573" lon="7.2343198"><ele>1382.0</ele><time>2026-04-18T12:03:29.008Z</time></trkpt><trkpt lat="44.748703" lon="7.2343066"><ele>1380.0</ele><time>2026-04-18T12:03:30.007Z</time></trkpt><trkpt lat="44.7485514" lon="7.2343001"><ele>1380.25</ele><time>2026-04-18T12:03:31.008Z</time></trkpt><trkpt lat="44.7484111" lon="7.234297"><ele>1380.5</ele><time>2026-04-18T12:03:32.007Z</time></trkpt><trkpt lat="44.7482834" lon="7.2342969"><ele>1380.75</ele><time>2026-04-18T12:03:33.008Z</time></trkpt><trkpt lat="44.7481703" lon="7.2342995"><ele>1381.0</ele><time>2026-04-18T12:03:34.007Z</time></trkpt><trkpt lat="44.7480779" lon="7.2343082"><ele>1381.0</ele><time>2026-04-18T12:03:35.007Z</time></trkpt><trkpt lat="44.7480033" lon="7.2343217"><ele>1381.0</ele><time>2026-04-18T12:03:36.008Z</time></trkpt><trkpt lat="44.7478984" lon="7.2343575"><ele>1381.0</ele><time>2026-04-18T12:03:38.008Z</time></trkpt><trkpt lat="44.7478386" lon="7.234389"><ele>1381.0</ele><time>2026-04-18T12:03:41.008Z</time></trkpt><trkpt lat="44.7477801" lon="7.2344322"><ele>1381.0</ele><time>2026-04-18T12:03:46.007Z</time></trkpt><trkpt lat="44.7476796" lon="7.2345094"><ele>1381.0</ele><time>2026-04-18T12:03:48.007Z</time></trkpt><trkpt lat="44.7476032" lon="7.2345414"><ele>1381.8</ele><time>2026-04-18T12:03:49.009Z</time></trkpt><trkpt lat="44.7475204" lon="7.234575"><ele>1382.6</ele><time>2026-04-18T12:03:50.007Z</time></trkpt><trkpt lat="44.7474255" lon="7.2346046"><ele>1383.4</ele><time>2026-04-18T12:03:51.008Z</time></trkpt><trkpt lat="44.7473306" lon="7.2346264"><ele>1384.2</ele><time>2026-04-18T12:03:52.008Z</time></trkpt><trkpt lat="44.747231" lon="7.2346591"><ele>1385.0</ele><time>2026-04-18T12:03:53.008Z</time></trkpt><trkpt lat="44.7471244" lon="7.2347001"><ele>1385.0</ele><time>2026-04-18T12:03:54.008Z</time></trkpt><trkpt lat="44.7470278" lon="7.2347542"><ele>1385.0</ele><time>2026-04-18T12:03:55.007Z</time></trkpt><trkpt lat="44.7469391" lon="7.2348137"><ele>1385.0</ele><time>2026-04-18T12:03:56.006Z</time></trkpt><trkpt lat="44.7468428" lon="7.2348749"><ele>1385.0</ele><time>2026-04-18T12:03:57.007Z</time></trkpt><trkpt lat="44.7467414" lon="7.2349347"><ele>1385.0</ele><time>2026-04-18T12:03:58.008Z</time></trkpt><trkpt lat="44.7466565" lon="7.2350008"><ele>1381.4</ele><time>2026-04-18T12:03:59.008Z</time></trkpt><trkpt lat="44.746572" lon="7.2350849"><ele>1377.8</ele><time>2026-04-18T12:04:00.008Z</time></trkpt><trkpt lat="44.746486" lon="7.2351921"><ele>1374.1999999999998</ele><time>2026-04-18T12:04:01.008Z</time></trkpt><trkpt lat="44.7464111" lon="7.2353086"><ele>1370.6</ele><time>2026-04-18T12:04:02.007Z</time></trkpt><trkpt lat="44.7463357" lon="7.2354231"><ele>1367.0</ele><time>2026-04-18T12:04:03.008Z</time></trkpt><trkpt lat="44.7462604" lon="7.235522"><ele>1367.0</ele><time>2026-04-18T12:04:04.008Z</time></trkpt><trkpt lat="44.7461768" lon="7.2356127"><ele>1367.0</ele><time>2026-04-18T12:04:05.008Z</time></trkpt><trkpt lat="44.7460869" lon="7.2356888"><ele>1367.0</ele><time>2026-04-18T12:04:06.008Z</time></trkpt><trkpt lat="44.7459968" lon="7.2357603"><ele>1367.0</ele><time>2026-04-18T12:04:07.007Z</time></trkpt><trkpt lat="44.7459174" lon="7.2358292"><ele>1367.0</ele><time>2026-04-18T12:04:08.008Z</time></trkpt><trkpt lat="44.7458347" lon="7.2358998"><ele>1365.0</ele><time>2026-04-18T12:04:09.007Z</time></trkpt><trkpt lat="44.7457537" lon="7.2359644"><ele>1363.0</ele><time>2026-04-18T12:04:10.008Z</time></trkpt><trkpt lat="44.7456711" lon="7.2360122"><ele>1361.0</ele><time>2026-04-18T12:04:11.008Z</time></trkpt><trkpt lat="44.7455866" lon="7.2360446"><ele>1359.0</ele><time>2026-04-18T12:04:12.007Z</time></trkpt><trkpt lat="44.7454932" lon="7.236061"><ele>1357.0</ele><time>2026-04-18T12:04:13.008Z</time></trkpt><trkpt lat="44.7453971" lon="7.2360645"><ele>1357.0</ele><time>2026-04-18T12:04:14.008Z</time></trkpt><trkpt lat="44.7453006" lon="7.2360885"><ele>1357.0</ele><time>2026-04-18T12:04:15.007Z</time></trkpt><trkpt lat="44.745203" lon="7.2361298"><ele>1357.0</ele><time>2026-04-18T12:04:16.007Z</time></trkpt><trkpt lat="44.7451111" lon="7.2361942"><ele>1357.0</ele><time>2026-04-18T12:04:17.007Z</time></trkpt><trkpt lat="44.7450292" lon="7.2362718"><ele>1357.0</ele><time>2026-04-18T12:04:18.008Z</time></trkpt><trkpt lat="44.7449541" lon="7.2363641"><ele>1355.3999999999999</ele><time>2026-04-18T12:04:19.008Z</time></trkpt><trkpt lat="44.744886" lon="7.2364721"><ele>1353.8</ele><time>2026-04-18T12:04:20.007Z</time></trkpt><trkpt lat="44.7448253" lon="7.2365967"><ele>1352.2</ele><time>2026-04-18T12:04:21.008Z</time></trkpt><trkpt lat="44.7447663" lon="7.2367222"><ele>1350.6</ele><time>2026-04-18T12:04:22.008Z</time></trkpt><trkpt lat="44.7447115" lon="7.2368254"><ele>1349.0</ele><time>2026-04-18T12:04:23.008Z</time></trkpt><trkpt lat="44.7446541" lon="7.2369318"><ele>1349.0</ele><time>2026-04-18T12:04:24.008Z</time></trkpt><trkpt lat="44.7446075" lon="7.2370293"><ele>1349.0</ele><time>2026-04-18T12:04:25.006Z</time></trkpt><trkpt lat="44.7445768" lon="7.2371382"><ele>1349.0</ele><time>2026-04-18T12:04:26.006Z</time></trkpt><trkpt lat="44.7445515" lon="7.2372637"><ele>1349.0</ele><time>2026-04-18T12:04:27.007Z</time></trkpt><trkpt lat="44.7445294" lon="7.2374062"><ele>1349.0</ele><time>2026-04-18T12:04:28.008Z</time></trkpt><trkpt lat="44.7445088" lon="7.2375529"><ele>1345.25</ele><time>2026-04-18T12:04:29.007Z</time></trkpt><trkpt lat="44.744469" lon="7.2376937"><ele>1341.5</ele><time>2026-04-18T12:04:30.008Z</time></trkpt><trkpt lat="44.744416" lon="7.2378501"><ele>1337.75</ele><time>2026-04-18T12:04:31.007Z</time></trkpt><trkpt lat="44.7443596" lon="7.2379943"><ele>1334.0</ele><time>2026-04-18T12:04:32.008Z</time></trkpt><trkpt lat="44.7443017" lon="7.2381139"><ele>1337.6</ele><time>2026-04-18T12:04:33.007Z</time></trkpt><trkpt lat="44.7442415" lon="7.2382249"><ele>1341.2</ele><time>2026-04-18T12:04:34.007Z</time></trkpt><trkpt lat="44.7441825" lon="7.238331"><ele>1344.8</ele><time>2026-04-18T12:04:35.008Z</time></trkpt><trkpt lat="44.7441189" lon="7.2384606"><ele>1348.3999999999999</ele><time>2026-04-18T12:04:36.008Z</time></trkpt><trkpt lat="44.7440556" lon="7.2385957"><ele>1352.0</ele><time>2026-04-18T12:04:37.008Z</time></trkpt><trkpt lat="44.7439889" lon="7.2387256"><ele>1352.0</ele><time>2026-04-18T12:04:38.008Z</time></trkpt><trkpt lat="44.7439228" lon="7.238845"><ele>1352.0</ele><time>2026-04-18T12:04:39.008Z</time></trkpt><trkpt lat="44.7438568" lon="7.2389502"><ele>1352.0</ele><time>2026-04-18T12:04:40.008Z</time></trkpt><trkpt lat="44.7437875" lon="7.2390559"><ele>1352.0</ele><time>2026-04-18T12:04:41.008Z</time></trkpt><trkpt lat="44.7437178" lon="7.2391673"><ele>1352.0</ele><time>2026-04-18T12:04:42.008Z</time></trkpt><trkpt lat="44.7436484" lon="7.2392848"><ele>1350.0</ele><time>2026-04-18T12:04:43.007Z</time></trkpt><trkpt lat="44.7435845" lon="7.2394116"><ele>1348.0</ele><time>2026-04-18T12:04:44.008Z</time></trkpt><trkpt lat="44.743529" lon="7.239529"><ele>1346.0</ele><time>2026-04-18T12:04:45.008Z</time></trkpt><trkpt lat="44.7434654" lon="7.2396512"><ele>1344.0</ele><time>2026-04-18T12:04:46.008Z</time></trkpt><trkpt lat="44.7433963" lon="7.2397759"><ele>1342.0</ele><time>2026-04-18T12:04:47.007Z</time></trkpt><trkpt lat="44.7433224" lon="7.2398941"><ele>1342.0</ele><time>2026-04-18T12:04:48.008Z</time></trkpt><trkpt lat="44.7432582" lon="7.239995"><ele>1342.0</ele><time>2026-04-18T12:04:49.008Z</time></trkpt><trkpt lat="44.7431956" lon="7.2400937"><ele>1342.0</ele><time>2026-04-18T12:04:50.008Z</time></trkpt><trkpt lat="44.7431321" lon="7.240202"><ele>1342.0</ele><time>2026-04-18T12:04:51.008Z</time></trkpt><trkpt lat="44.7430785" lon="7.2403037"><ele>1342.0</ele><time>2026-04-18T12:04:52.007Z</time></trkpt><trkpt lat="44.7430323" lon="7.2403907"><ele>1342.0</ele><time>2026-04-18T12:04:53.009Z</time></trkpt><trkpt lat="44.7429809" lon="7.2404766"><ele>1342.0</ele><time>2026-04-18T12:04:54.007Z</time></trkpt><trkpt lat="44.7429264" lon="7.2405533"><ele>1342.0</ele><time>2026-04-18T12:04:55.008Z</time></trkpt><trkpt lat="44.7428629" lon="7.2406059"><ele>1342.0</ele><time>2026-04-18T12:04:56.007Z</time></trkpt><trkpt lat="44.7427974" lon="7.2406345"><ele>1342.0</ele><time>2026-04-18T12:04:57.008Z</time></trkpt><trkpt lat="44.7427305" lon="7.2406518"><ele>1342.0</ele><time>2026-04-18T12:04:58.008Z</time></trkpt><trkpt lat="44.7426596" lon="7.240675"><ele>1342.0</ele><time>2026-04-18T12:04:59.008Z</time></trkpt><trkpt lat="44.7425958" lon="7.2407053"><ele>1342.2857142857142</ele><time>2026-04-18T12:05:00.007Z</time></trkpt><trkpt lat="44.7425292" lon="7.2407334"><ele>1342.5714285714287</ele><time>2026-04-18T12:05:01.006Z</time></trkpt><trkpt lat="44.7424655" lon="7.240769"><ele>1342.857142857143</ele><time>2026-04-18T12:05:02.007Z</time></trkpt><trkpt lat="44.7423989" lon="7.2408025"><ele>1343.142857142857</ele><time>2026-04-18T12:05:03.008Z</time></trkpt><trkpt lat="44.7423303" lon="7.2408398"><ele>1343.4285714285716</ele><time>2026-04-18T12:05:04.007Z</time></trkpt><trkpt lat="44.742265" lon="7.2408739"><ele>1343.7142857142858</ele><time>2026-04-18T12:05:05.008Z</time></trkpt><trkpt lat="44.7422027" lon="7.2409124"><ele>1344.0</ele><time>2026-04-18T12:05:06.008Z</time></trkpt><trkpt lat="44.7421439" lon="7.2409514"><ele>1344.0</ele><time>2026-04-18T12:05:07.008Z</time></trkpt><trkpt lat="44.7420469" lon="7.2410253"><ele>1344.0</ele><time>2026-04-18T12:05:09.007Z</time></trkpt><trkpt lat="44.741966" lon="7.2410425"><ele>1344.0</ele><time>2026-04-18T12:05:11.007Z</time></trkpt><trkpt lat="44.7419129" lon="7.2409751"><ele>1344.0</ele><time>2026-04-18T12:05:13.007Z</time></trkpt><trkpt lat="44.7419359" lon="7.2408687"><ele>1344.0</ele><time>2026-04-18T12:05:15.008Z</time></trkpt><trkpt lat="44.7420522" lon="7.2407571"><ele>1344.0</ele><time>2026-04-18T12:05:17.007Z</time></trkpt><trkpt lat="44.7421201" lon="7.2407004"><ele>1344.0</ele><time>2026-04-18T12:05:18.007Z</time></trkpt><trkpt lat="44.7421793" lon="7.2406346"><ele>1344.0</ele><time>2026-04-18T12:05:19.008Z</time></trkpt><trkpt lat="44.7422347" lon="7.2405541"><ele>1344.0</ele><time>2026-04-18T12:05:20.007Z</time></trkpt><trkpt lat="44.7422801" lon="7.2404702"><ele>1344.0</ele><time>2026-04-18T12:05:21.008Z</time></trkpt><trkpt lat="44.7423117" lon="7.2403757"><ele>1344.0</ele><time>2026-04-18T12:05:22.007Z</time></trkpt><trkpt lat="44.7423287" lon="7.240283"><ele>1344.0</ele><time>2026-04-18T12:05:23.008Z</time></trkpt><trkpt lat="44.7423331" lon="7.2401806"><ele>1344.0</ele><time>2026-04-18T12:05:24.007Z</time></trkpt><trkpt lat="44.7423318" lon="7.2400777"><ele>1344.0</ele><time>2026-04-18T12:05:25.008Z</time></trkpt><trkpt lat="44.7423217" lon="7.2399576"><ele>1344.0</ele><time>2026-04-18T12:05:26.008Z</time></trkpt><trkpt lat="44.7423014" lon="7.2398077"><ele>1344.0</ele><time>2026-04-18T12:05:27.008Z</time></trkpt><trkpt lat="44.7422737" lon="7.2396562"><ele>1344.0</ele><time>2026-04-18T12:05:28.008Z</time></trkpt><trkpt lat="44.7422427" lon="7.239509"><ele>1344.0</ele><time>2026-04-18T12:05:29.007Z</time></trkpt><trkpt lat="44.7422068" lon="7.2393639"><ele>1344.0</ele><time>2026-04-18T12:05:30.008Z</time></trkpt><trkpt lat="44.7421739" lon="7.239228"><ele>1344.0</ele><time>2026-04-18T12:05:31.007Z</time></trkpt><trkpt lat="44.742137" lon="7.2390992"><ele>1344.0</ele><time>2026-04-18T12:05:32.008Z</time></trkpt><trkpt lat="44.742091" lon="7.238978"><ele>1345.8000000000002</ele><time>2026-04-18T12:05:33.007Z</time></trkpt><trkpt lat="44.7420406" lon="7.2388487"><ele>1347.6000000000001</ele><time>2026-04-18T12:05:34.008Z</time></trkpt><trkpt lat="44.7419982" lon="7.2387172"><ele>1349.4</ele><time>2026-04-18T12:05:35.008Z</time></trkpt><trkpt lat="44.7419711" lon="7.2385856"><ele>1351.2</ele><time>2026-04-18T12:05:36.007Z</time></trkpt><trkpt lat="44.7419466" lon="7.2384353"><ele>1353.0</ele><time>2026-04-18T12:05:37.008Z</time></trkpt><trkpt lat="44.7419314" lon="7.2382892"><ele>1353.0</ele><time>2026-04-18T12:05:38.008Z</time></trkpt><trkpt lat="44.7419213" lon="7.2381473"><ele>1353.0</ele><time>2026-04-18T12:05:39.007Z</time></trkpt><trkpt lat="44.7419163" lon="7.2380265"><ele>1353.0</ele><time>2026-04-18T12:05:40.008Z</time></trkpt><trkpt lat="44.7419212" lon="7.2379049"><ele>1353.0</ele><time>2026-04-18T12:05:41.007Z</time></trkpt><trkpt lat="44.7419381" lon="7.2377838"><ele>1353.0</ele><time>2026-04-18T12:05:42.007Z</time></trkpt><trkpt lat="44.7419729" lon="7.2376562"><ele>1353.6666666666667</ele><time>2026-04-18T12:05:43.007Z</time></trkpt><trkpt lat="44.7420006" lon="7.2375377"><ele>1354.3333333333333</ele><time>2026-04-18T12:05:44.007Z</time></trkpt><trkpt lat="44.7420211" lon="7.2374363"><ele>1355.0</ele><time>2026-04-18T12:05:45.008Z</time></trkpt><trkpt lat="44.7420423" lon="7.2373302"><ele>1355.6666666666665</ele><time>2026-04-18T12:05:46.008Z</time></trkpt><trkpt lat="44.7420446" lon="7.2372315"><ele>1356.3333333333333</ele><time>2026-04-18T12:05:47.008Z</time></trkpt><trkpt lat="44.7420239" lon="7.2371421"><ele>1357.0</ele><time>2026-04-18T12:05:48.008Z</time></trkpt><trkpt lat="44.7419605" lon="7.237036"><ele>1357.1999999999998</ele><time>2026-04-18T12:05:49.007Z</time></trkpt><trkpt lat="44.7419308" lon="7.2368898"><ele>1357.4</ele><time>2026-04-18T12:05:50.007Z</time></trkpt><trkpt lat="44.7418997" lon="7.2367366"><ele>1357.6</ele><time>2026-04-18T12:05:51.008Z</time></trkpt><trkpt lat="44.7418669" lon="7.2365896"><ele>1357.8000000000002</ele><time>2026-04-18T12:05:52.008Z</time></trkpt><trkpt lat="44.7418371" lon="7.2364613"><ele>1358.0</ele><time>2026-04-18T12:05:53.007Z</time></trkpt><trkpt lat="44.7417982" lon="7.2363505"><ele>1350.5</ele><time>2026-04-18T12:05:54.008Z</time></trkpt><trkpt lat="44.7417455" lon="7.2362296"><ele>1343.0</ele><time>2026-04-18T12:05:55.007Z</time></trkpt><trkpt lat="44.741672" lon="7.2360915"><ele>1335.5</ele><time>2026-04-18T12:05:56.007Z</time></trkpt><trkpt lat="44.7416001" lon="7.2359449"><ele>1328.0</ele><time>2026-04-18T12:05:57.008Z</time></trkpt><trkpt lat="44.7415318" lon="7.2358161"><ele>1328.0</ele><time>2026-04-18T12:05:58.007Z</time></trkpt><trkpt lat="44.741461" lon="7.2356994"><ele>1328.0</ele><time>2026-04-18T12:05:59.008Z</time></trkpt><trkpt lat="44.7413766" lon="7.2355971"><ele>1328.0</ele><time>2026-04-18T12:06:00.007Z</time></trkpt><trkpt lat="44.7412782" lon="7.2354987"><ele>1328.0</ele><time>2026-04-18T12:06:01.008Z</time></trkpt><trkpt lat="44.7411748" lon="7.2354229"><ele>1327.75</ele><time>2026-04-18T12:06:02.008Z</time></trkpt><trkpt lat="44.7410758" lon="7.235349"><ele>1327.5</ele><time>2026-04-18T12:06:03.007Z</time></trkpt><trkpt lat="44.7409681" lon="7.2352958"><ele>1327.25</ele><time>2026-04-18T12:06:04.007Z</time></trkpt><trkpt lat="44.7408498" lon="7.2352424"><ele>1327.0</ele><time>2026-04-18T12:06:05.007Z</time></trkpt><trkpt lat="44.7407443" lon="7.2351904"><ele>1327.0</ele><time>2026-04-18T12:06:06.008Z</time></trkpt><trkpt lat="44.740655" lon="7.2351327"><ele>1327.0</ele><time>2026-04-18T12:06:07.008Z</time></trkpt><trkpt lat="44.7405737" lon="7.235091"><ele>1327.0</ele><time>2026-04-18T12:06:08.007Z</time></trkpt><trkpt lat="44.7405178" lon="7.2350283"><ele>1327.0</ele><time>2026-04-18T12:06:09.007Z</time></trkpt><trkpt lat="44.7404783" lon="7.234943"><ele>1327.0</ele><time>2026-04-18T12:06:10.007Z</time></trkpt><trkpt lat="44.7404466" lon="7.2348269"><ele>1327.0</ele><time>2026-04-18T12:06:11.008Z</time></trkpt><trkpt lat="44.7404186" lon="7.2346805"><ele>1329.3333333333333</ele><time>2026-04-18T12:06:12.007Z</time></trkpt><trkpt lat="44.7404031" lon="7.234532"><ele>1331.6666666666665</ele><time>2026-04-18T12:06:13.008Z</time></trkpt><trkpt lat="44.7403935" lon="7.2344188"><ele>1334.0</ele><time>2026-04-18T12:06:14.007Z</time></trkpt><trkpt lat="44.7403748" lon="7.2343341"><ele>1336.3333333333333</ele><time>2026-04-18T12:06:15.008Z</time></trkpt><trkpt lat="44.7403195" lon="7.234222"><ele>1338.6666666666667</ele><time>2026-04-18T12:06:17.007Z</time></trkpt><trkpt lat="44.7402594" lon="7.2341813"><ele>1341.0</ele><time>2026-04-18T12:06:18.008Z</time></trkpt><trkpt lat="44.7401792" lon="7.234144"><ele>1341.6</ele><time>2026-04-18T12:06:19.007Z</time></trkpt><trkpt lat="44.7400978" lon="7.2340928"><ele>1342.1999999999998</ele><time>2026-04-18T12:06:20.007Z</time></trkpt><trkpt lat="44.7400029" lon="7.2340103"><ele>1342.8000000000002</ele><time>2026-04-18T12:06:21.007Z</time></trkpt><trkpt lat="44.7399168" lon="7.2339385"><ele>1343.4</ele><time>2026-04-18T12:06:22.007Z</time></trkpt><trkpt lat="44.7398252" lon="7.2338751"><ele>1344.0</ele><time>2026-04-18T12:06:23.006Z</time></trkpt><trkpt lat="44.7397271" lon="7.2338198"><ele>1344.0</ele><time>2026-04-18T12:06:24.007Z</time></trkpt><trkpt lat="44.7396295" lon="7.2337806"><ele>1344.0</ele><time>2026-04-18T12:06:25.007Z</time></trkpt><trkpt lat="44.7395326" lon="7.2337601"><ele>1344.0</ele><time>2026-04-18T12:06:26.008Z</time></trkpt><trkpt lat="44.7394387" lon="7.2337675"><ele>1344.0</ele><time>2026-04-18T12:06:27.008Z</time></trkpt><trkpt lat="44.7393261" lon="7.2337994"><ele>1344.0</ele><time>2026-04-18T12:06:28.008Z</time></trkpt><trkpt lat="44.7391924" lon="7.2338348"><ele>1342.4</ele><time>2026-04-18T12:06:29.007Z</time></trkpt><trkpt lat="44.7390791" lon="7.2338674"><ele>1340.8000000000002</ele><time>2026-04-18T12:06:30.008Z</time></trkpt><trkpt lat="44.7389817" lon="7.2339052"><ele>1339.1999999999998</ele><time>2026-04-18T12:06:31.007Z</time></trkpt><trkpt lat="44.7388993" lon="7.2339375"><ele>1337.6</ele><time>2026-04-18T12:06:32.008Z</time></trkpt><trkpt lat="44.7388265" lon="7.2339335"><ele>1336.0</ele><time>2026-04-18T12:06:33.008Z</time></trkpt><trkpt lat="44.7387556" lon="7.2339"><ele>1336.0</ele><time>2026-04-18T12:06:34.007Z</time></trkpt><trkpt lat="44.7386815" lon="7.2338332"><ele>1336.0</ele><time>2026-04-18T12:06:35.008Z</time></trkpt><trkpt lat="44.738596" lon="7.2337409"><ele>1336.0</ele><time>2026-04-18T12:06:36.007Z</time></trkpt><trkpt lat="44.7385205" lon="7.2336608"><ele>1336.0</ele><time>2026-04-18T12:06:37.007Z</time></trkpt><trkpt lat="44.7384414" lon="7.2335621"><ele>1336.0</ele><time>2026-04-18T12:06:38.008Z</time></trkpt><trkpt lat="44.7383668" lon="7.2334701"><ele>1332.8333333333333</ele><time>2026-04-18T12:06:39.007Z</time></trkpt><trkpt lat="44.7382946" lon="7.2333797"><ele>1329.6666666666665</ele><time>2026-04-18T12:06:40.008Z</time></trkpt><trkpt lat="44.738228" lon="7.2333077"><ele>1326.5</ele><time>2026-04-18T12:06:41.007Z</time></trkpt><trkpt lat="44.7381584" lon="7.2332389"><ele>1323.3333333333333</ele><time>2026-04-18T12:06:42.008Z</time></trkpt><trkpt lat="44.7380862" lon="7.2332429"><ele>1320.1666666666667</ele><time>2026-04-18T12:06:43.008Z</time></trkpt><trkpt lat="44.7380172" lon="7.2332237"><ele>1317.0</ele><time>2026-04-18T12:06:44.008Z</time></trkpt><trkpt lat="44.7379354" lon="7.2332233"><ele>1317.0</ele><time>2026-04-18T12:06:45.008Z</time></trkpt><trkpt lat="44.7378614" lon="7.2332408"><ele>1317.0</ele><time>2026-04-18T12:06:46.007Z</time></trkpt><trkpt lat="44.7377886" lon="7.2332599"><ele>1317.0</ele><time>2026-04-18T12:06:47.007Z</time></trkpt><trkpt lat="44.7377215" lon="7.2332814"><ele>1317.0</ele><time>2026-04-18T12:06:48.008Z</time></trkpt><trkpt lat="44.7376433" lon="7.2332542"><ele>1317.0</ele><time>2026-04-18T12:06:49.007Z</time></trkpt><trkpt lat="44.737608" lon="7.2331482"><ele>1317.0</ele><time>2026-04-18T12:06:50.008Z</time></trkpt><trkpt lat="44.7375543" lon="7.2330612"><ele>1314.8333333333333</ele><time>2026-04-18T12:06:51.008Z</time></trkpt><trkpt lat="44.7375242" lon="7.2329758"><ele>1312.6666666666667</ele><time>2026-04-18T12:06:52.008Z</time></trkpt><trkpt lat="44.7374727" lon="7.2328328"><ele>1310.5</ele><time>2026-04-18T12:06:54.007Z</time></trkpt><trkpt lat="44.7374352" lon="7.2327314"><ele>1308.3333333333335</ele><time>2026-04-18T12:06:56.008Z</time></trkpt><trkpt lat="44.7373976" lon="7.2326336"><ele>1306.1666666666667</ele><time>2026-04-18T12:06:59.008Z</time></trkpt><trkpt lat="44.7373352" lon="7.2326826"><ele>1304.0</ele><time>2026-04-18T12:07:22.006Z</time></trkpt><trkpt lat="44.7373588" lon="7.2328258"><ele>1304.0</ele><time>2026-04-18T12:07:25.007Z</time></trkpt><trkpt lat="44.7373901" lon="7.2329912"><ele>1304.0</ele><time>2026-04-18T12:07:27.007Z</time></trkpt><trkpt lat="44.7373981" lon="7.2330823"><ele>1304.0</ele><time>2026-04-18T12:07:28.007Z</time></trkpt><trkpt lat="44.7374244" lon="7.2332725"><ele>1304.0</ele><time>2026-04-18T12:07:30.006Z</time></trkpt><trkpt lat="44.7374558" lon="7.2334213"><ele>1304.0</ele><time>2026-04-18T12:07:32.007Z</time></trkpt><trkpt lat="44.737503" lon="7.2335548"><ele>1306.6</ele><time>2026-04-18T12:07:34.007Z</time></trkpt><trkpt lat="44.7375766" lon="7.2336367"><ele>1309.2</ele><time>2026-04-18T12:07:36.008Z</time></trkpt><trkpt lat="44.7376952" lon="7.233669"><ele>1311.8</ele><time>2026-04-18T12:07:38.008Z</time></trkpt><trkpt lat="44.7377602" lon="7.2336824"><ele>1314.3999999999999</ele><time>2026-04-18T12:07:39.008Z</time></trkpt><trkpt lat="44.7378615" lon="7.2337448"><ele>1317.0</ele><time>2026-04-18T12:07:41.007Z</time></trkpt><trkpt lat="44.73796" lon="7.2338288"><ele>1317.0</ele><time>2026-04-18T12:07:43.007Z</time></trkpt><trkpt lat="44.7380252" lon="7.2338831"><ele>1317.0</ele><time>2026-04-18T12:07:44.008Z</time></trkpt><trkpt lat="44.7380796" lon="7.2339358"><ele>1317.0</ele><time>2026-04-18T12:07:45.008Z</time></trkpt><trkpt lat="44.7381347" lon="7.2339983"><ele>1317.0</ele><time>2026-04-18T12:07:46.008Z</time></trkpt><trkpt lat="44.7381897" lon="7.2340596"><ele>1317.0</ele><time>2026-04-18T12:07:47.007Z</time></trkpt><trkpt lat="44.7382368" lon="7.2341249"><ele>1317.0</ele><time>2026-04-18T12:07:48.008Z</time></trkpt><trkpt lat="44.7383098" lon="7.234263"><ele>1313.6</ele><time>2026-04-18T12:07:50.007Z</time></trkpt><trkpt lat="44.7383886" lon="7.2343829"><ele>1310.1999999999998</ele><time>2026-04-18T12:07:52.007Z</time></trkpt><trkpt lat="44.7384733" lon="7.2344864"><ele>1306.8</ele><time>2026-04-18T12:07:54.008Z</time></trkpt><trkpt lat="44.738568" lon="7.2345717"><ele>1303.4</ele><time>2026-04-18T12:07:56.008Z</time></trkpt><trkpt lat="44.7386287" lon="7.2346081"><ele>1300.0</ele><time>2026-04-18T12:07:57.007Z</time></trkpt><trkpt lat="44.7386886" lon="7.2346367"><ele>1300.0</ele><time>2026-04-18T12:07:58.007Z</time></trkpt><trkpt lat="44.7387509" lon="7.2346561"><ele>1300.0</ele><time>2026-04-18T12:07:59.007Z</time></trkpt><trkpt lat="44.7388663" lon="7.23467"><ele>1300.0</ele><time>2026-04-18T12:08:01.008Z</time></trkpt><trkpt lat="44.7389689" lon="7.2346768"><ele>1300.0</ele><time>2026-04-18T12:08:03.008Z</time></trkpt><trkpt lat="44.7390472" lon="7.2346558"><ele>1300.0</ele><time>2026-04-18T12:08:05.008Z</time></trkpt><trkpt lat="44.7391147" lon="7.2346379"><ele>1300.0</ele><time>2026-04-18T12:08:09.008Z</time></trkpt><trkpt lat="44.7391759" lon="7.2347035"><ele>1300.0</ele><time>2026-04-18T12:08:13.008Z</time></trkpt><trkpt lat="44.7390956" lon="7.2347791"><ele>1300.0</ele><time>2026-04-18T12:08:16.007Z</time></trkpt><trkpt lat="44.7389881" lon="7.2347925"><ele>1300.0</ele><time>2026-04-18T12:08:18.007Z</time></trkpt><trkpt lat="44.7388713" lon="7.2348323"><ele>1300.0</ele><time>2026-04-18T12:08:20.008Z</time></trkpt><trkpt lat="44.7387673" lon="7.2348771"><ele>1300.0</ele><time>2026-04-18T12:08:22.008Z</time></trkpt><trkpt lat="44.7386663" lon="7.2349094"><ele>1295.8</ele><time>2026-04-18T12:08:24.008Z</time></trkpt><trkpt lat="44.7385697" lon="7.2349005"><ele>1291.6</ele><time>2026-04-18T12:08:26.008Z</time></trkpt><trkpt lat="44.7384692" lon="7.2348916"><ele>1287.4</ele><time>2026-04-18T12:08:28.007Z</time></trkpt><trkpt lat="44.7383583" lon="7.2348559"><ele>1283.2</ele><time>2026-04-18T12:08:30.008Z</time></trkpt><trkpt lat="44.7382408" lon="7.2347892"><ele>1279.0</ele><time>2026-04-18T12:08:32.007Z</time></trkpt><trkpt lat="44.7381258" lon="7.2347292"><ele>1279.0</ele><time>2026-04-18T12:08:34.008Z</time></trkpt><trkpt lat="44.7380175" lon="7.2346629"><ele>1279.0</ele><time>2026-04-18T12:08:36.008Z</time></trkpt><trkpt lat="44.7379471" lon="7.234628"><ele>1279.0</ele><time>2026-04-18T12:08:37.007Z</time></trkpt><trkpt lat="44.7378782" lon="7.2346213"><ele>1279.0</ele><time>2026-04-18T12:08:40.008Z</time></trkpt><trkpt lat="44.7377867" lon="7.2346125"><ele>1279.0</ele><time>2026-04-18T12:08:42.008Z</time></trkpt><trkpt lat="44.737716" lon="7.2345854"><ele>1279.0</ele><time>2026-04-18T12:08:43.007Z</time></trkpt><trkpt lat="44.7376106" lon="7.2345849"><ele>1274.2</ele><time>2026-04-18T12:08:45.008Z</time></trkpt><trkpt lat="44.7374997" lon="7.2345767"><ele>1269.4</ele><time>2026-04-18T12:08:47.008Z</time></trkpt><trkpt lat="44.737393" lon="7.2345587"><ele>1264.6</ele><time>2026-04-18T12:08:49.007Z</time></trkpt><trkpt lat="44.7372794" lon="7.2345396"><ele>1259.8</ele><time>2026-04-18T12:08:51.008Z</time></trkpt><trkpt lat="44.7371737" lon="7.234519"><ele>1255.0</ele><time>2026-04-18T12:08:53.007Z</time></trkpt><trkpt lat="44.7370673" lon="7.2344899"><ele>1255.0</ele><time>2026-04-18T12:08:55.008Z</time></trkpt><trkpt lat="44.7369678" lon="7.2344692"><ele>1255.0</ele><time>2026-04-18T12:08:57.007Z</time></trkpt><trkpt lat="44.7368613" lon="7.23446"><ele>1255.0</ele><time>2026-04-18T12:08:59.008Z</time></trkpt><trkpt lat="44.7367628" lon="7.2344762"><ele>1255.0</ele><time>2026-04-18T12:09:01.007Z</time></trkpt><trkpt lat="44.7366673" lon="7.2344811"><ele>1255.0</ele><time>2026-04-18T12:09:03.007Z</time></trkpt><trkpt lat="44.7365875" lon="7.2344187"><ele>1252.2</ele><time>2026-04-18T12:09:05.008Z</time></trkpt><trkpt lat="44.736511" lon="7.2342794"><ele>1249.4</ele><time>2026-04-18T12:09:07.007Z</time></trkpt><trkpt lat="44.7364267" lon="7.2341607"><ele>1246.6</ele><time>2026-04-18T12:09:09.008Z</time></trkpt><trkpt lat="44.7363466" lon="7.234049"><ele>1243.8</ele><time>2026-04-18T12:09:11.008Z</time></trkpt><trkpt lat="44.7363152" lon="7.2339705"><ele>1241.0</ele><time>2026-04-18T12:09:12.008Z</time></trkpt><trkpt lat="44.7362964" lon="7.2338802"><ele>1241.0</ele><time>2026-04-18T12:09:13.008Z</time></trkpt><trkpt lat="44.7362974" lon="7.233789"><ele>1241.0</ele><time>2026-04-18T12:09:14.008Z</time></trkpt><trkpt lat="44.7363041" lon="7.2337"><ele>1241.0</ele><time>2026-04-18T12:09:15.008Z</time></trkpt><trkpt lat="44.7363158" lon="7.2336092"><ele>1241.0</ele><time>2026-04-18T12:09:16.007Z</time></trkpt><trkpt lat="44.7363107" lon="7.2334586"><ele>1241.0</ele><time>2026-04-18T12:09:18.008Z</time></trkpt><trkpt lat="44.7363139" lon="7.2333677"><ele>1241.0</ele><time>2026-04-18T12:09:19.008Z</time></trkpt><trkpt lat="44.7362993" lon="7.2332769"><ele>1241.0</ele><time>2026-04-18T12:09:20.007Z</time></trkpt><trkpt lat="44.7362172" lon="7.2331602"><ele>1243.1666666666667</ele><time>2026-04-18T12:09:22.008Z</time></trkpt><trkpt lat="44.7361744" lon="7.2330833"><ele>1245.3333333333335</ele><time>2026-04-18T12:09:23.008Z</time></trkpt><trkpt lat="44.7361482" lon="7.2329951"><ele>1247.5</ele><time>2026-04-18T12:09:24.007Z</time></trkpt><trkpt lat="44.7361448" lon="7.2329021"><ele>1249.6666666666667</ele><time>2026-04-18T12:09:25.007Z</time></trkpt><trkpt lat="44.7361119" lon="7.2327714"><ele>1251.8333333333333</ele><time>2026-04-18T12:09:27.007Z</time></trkpt><trkpt lat="44.7360659" lon="7.2326769"><ele>1254.0</ele><time>2026-04-18T12:09:29.007Z</time></trkpt><trkpt lat="44.7359861" lon="7.2326035"><ele>1246.2</ele><time>2026-04-18T12:09:31.008Z</time></trkpt><trkpt lat="44.7358697" lon="7.232567"><ele>1238.4</ele><time>2026-04-18T12:09:33.008Z</time></trkpt><trkpt lat="44.7357986" lon="7.2325529"><ele>1230.6</ele><time>2026-04-18T12:09:34.008Z</time></trkpt><trkpt lat="44.7356761" lon="7.232571"><ele>1222.8</ele><time>2026-04-18T12:09:36.008Z</time></trkpt><trkpt lat="44.7356011" lon="7.232599"><ele>1215.0</ele><time>2026-04-18T12:09:37.007Z</time></trkpt><trkpt lat="44.7354966" lon="7.2325957"><ele>1215.0</ele><time>2026-04-18T12:09:39.007Z</time></trkpt><trkpt lat="44.7354191" lon="7.232515"><ele>1215.0</ele><time>2026-04-18T12:09:41.008Z</time></trkpt><trkpt lat="44.7353673" lon="7.2324605"><ele>1215.0</ele><time>2026-04-18T12:09:42.008Z</time></trkpt><trkpt lat="44.7353042" lon="7.2324116"><ele>1215.0</ele><time>2026-04-18T12:09:43.008Z</time></trkpt><trkpt lat="44.7352417" lon="7.2323779"><ele>1215.0</ele><time>2026-04-18T12:09:44.007Z</time></trkpt><trkpt lat="44.7351727" lon="7.2323554"><ele>1215.0</ele><time>2026-04-18T12:09:45.008Z</time></trkpt><trkpt lat="44.7350588" lon="7.2322873"><ele>1214.6666666666667</ele><time>2026-04-18T12:09:47.008Z</time></trkpt><trkpt lat="44.7350036" lon="7.2322216"><ele>1214.3333333333333</ele><time>2026-04-18T12:09:48.007Z</time></trkpt><trkpt lat="44.7349524" lon="7.2321349"><ele>1214.0</ele><time>2026-04-18T12:09:49.008Z</time></trkpt><trkpt lat="44.7348995" lon="7.2320426"><ele>1213.6666666666665</ele><time>2026-04-18T12:09:50.007Z</time></trkpt><trkpt lat="44.7348545" lon="7.2319578"><ele>1213.3333333333333</ele><time>2026-04-18T12:09:51.007Z</time></trkpt><trkpt lat="44.7348038" lon="7.2318669"><ele>1213.0</ele><time>2026-04-18T12:09:52.008Z</time></trkpt><trkpt lat="44.7347526" lon="7.2317663"><ele>1213.0</ele><time>2026-04-18T12:09:53.008Z</time></trkpt><trkpt lat="44.7347121" lon="7.2316604"><ele>1213.0</ele><time>2026-04-18T12:09:54.008Z</time></trkpt><trkpt lat="44.7346824" lon="7.2315489"><ele>1213.0</ele><time>2026-04-18T12:09:55.007Z</time></trkpt><trkpt lat="44.7346507" lon="7.2314628"><ele>1213.0</ele><time>2026-04-18T12:09:56.007Z</time></trkpt><trkpt lat="44.7346092" lon="7.2313805"><ele>1213.0</ele><time>2026-04-18T12:09:57.008Z</time></trkpt><trkpt lat="44.7345592" lon="7.2312896"><ele>1213.0</ele><time>2026-04-18T12:09:58.008Z</time></trkpt><trkpt lat="44.7345294" lon="7.2311878"><ele>1214.1666666666665</ele><time>2026-04-18T12:09:59.007Z</time></trkpt><trkpt lat="44.734507" lon="7.2310642"><ele>1215.3333333333333</ele><time>2026-04-18T12:10:00.008Z</time></trkpt><trkpt lat="44.7344943" lon="7.2309414"><ele>1216.5</ele><time>2026-04-18T12:10:01.008Z</time></trkpt><trkpt lat="44.7344712" lon="7.2308235"><ele>1217.6666666666667</ele><time>2026-04-18T12:10:02.008Z</time></trkpt><trkpt lat="44.7344429" lon="7.2307152"><ele>1218.8333333333335</ele><time>2026-04-18T12:10:03.007Z</time></trkpt><trkpt lat="44.7344093" lon="7.2306134"><ele>1220.0</ele><time>2026-04-18T12:10:04.007Z</time></trkpt><trkpt lat="44.7343699" lon="7.2305315"><ele>1220.0</ele><time>2026-04-18T12:10:05.008Z</time></trkpt><trkpt lat="44.7343187" lon="7.2304699"><ele>1220.0</ele><time>2026-04-18T12:10:06.008Z</time></trkpt><trkpt lat="44.7342555" lon="7.230422"><ele>1220.0</ele><time>2026-04-18T12:10:07.007Z</time></trkpt><trkpt lat="44.7341775" lon="7.2303948"><ele>1220.0</ele><time>2026-04-18T12:10:08.008Z</time></trkpt><trkpt lat="44.7341032" lon="7.2303817"><ele>1220.0</ele><time>2026-04-18T12:10:09.008Z</time></trkpt><trkpt lat="44.73398" lon="7.2304213"><ele>1220.0</ele><time>2026-04-18T12:10:11.008Z</time></trkpt><trkpt lat="44.7339124" lon="7.230479"><ele>1220.0</ele><time>2026-04-18T12:10:12.008Z</time></trkpt><trkpt lat="44.7338399" lon="7.2305542"><ele>1220.0</ele><time>2026-04-18T12:10:13.008Z</time></trkpt><trkpt lat="44.7337756" lon="7.230636"><ele>1220.0</ele><time>2026-04-18T12:10:14.008Z</time></trkpt><trkpt lat="44.7337275" lon="7.2307156"><ele>1220.0</ele><time>2026-04-18T12:10:15.006Z</time></trkpt><trkpt lat="44.7336703" lon="7.2308177"><ele>1220.0</ele><time>2026-04-18T12:10:16.008Z</time></trkpt><trkpt lat="44.7336212" lon="7.2309312"><ele>1220.0</ele><time>2026-04-18T12:10:17.008Z</time></trkpt><trkpt lat="44.7335767" lon="7.2310517"><ele>1218.6</ele><time>2026-04-18T12:10:18.007Z</time></trkpt><trkpt lat="44.7335244" lon="7.231189"><ele>1217.2</ele><time>2026-04-18T12:10:19.008Z</time></trkpt><trkpt lat="44.7334787" lon="7.2313108"><ele>1215.8</ele><time>2026-04-18T12:10:20.008Z</time></trkpt><trkpt lat="44.7334277" lon="7.2314435"><ele>1214.4</ele><time>2026-04-18T12:10:21.008Z</time></trkpt><trkpt lat="44.7333768" lon="7.2315739"><ele>1213.0</ele><time>2026-04-18T12:10:22.008Z</time></trkpt><trkpt lat="44.7333216" lon="7.231701"><ele>1213.0</ele><time>2026-04-18T12:10:23.007Z</time></trkpt><trkpt lat="44.7332496" lon="7.2318193"><ele>1213.0</ele><time>2026-04-18T12:10:24.008Z</time></trkpt><trkpt lat="44.7331872" lon="7.2319351"><ele>1213.0</ele><time>2026-04-18T12:10:25.007Z</time></trkpt><trkpt lat="44.733137" lon="7.2320303"><ele>1213.0</ele><time>2026-04-18T12:10:26.007Z</time></trkpt><trkpt lat="44.733095" lon="7.2321185"><ele>1213.0</ele><time>2026-04-18T12:10:27.008Z</time></trkpt><trkpt lat="44.7330438" lon="7.2322325"><ele>1210.0</ele><time>2026-04-18T12:10:28.008Z</time></trkpt><trkpt lat="44.7330003" lon="7.2323169"><ele>1207.0</ele><time>2026-04-18T12:10:29.006Z</time></trkpt><trkpt lat="44.7329669" lon="7.2324002"><ele>1204.0</ele><time>2026-04-18T12:10:30.007Z</time></trkpt><trkpt lat="44.7329426" lon="7.2324946"><ele>1201.0</ele><time>2026-04-18T12:10:31.007Z</time></trkpt><trkpt lat="44.7329217" lon="7.232592"><ele>1198.0</ele><time>2026-04-18T12:10:32.007Z</time></trkpt><trkpt lat="44.7329047" lon="7.232701"><ele>1195.0</ele><time>2026-04-18T12:10:33.008Z</time></trkpt><trkpt lat="44.7328892" lon="7.2328085"><ele>1192.0</ele><time>2026-04-18T12:10:34.008Z</time></trkpt><trkpt lat="44.7328987" lon="7.2329005"><ele>1192.0</ele><time>2026-04-18T12:10:35.008Z</time></trkpt><trkpt lat="44.7328922" lon="7.2329971"><ele>1192.0</ele><time>2026-04-18T12:10:36.008Z</time></trkpt><trkpt lat="44.7328763" lon="7.2331018"><ele>1192.0</ele><time>2026-04-18T12:10:37.008Z</time></trkpt><trkpt lat="44.7328229" lon="7.2332602"><ele>1192.0</ele><time>2026-04-18T12:10:39.007Z</time></trkpt><trkpt lat="44.7327191" lon="7.2333491"><ele>1192.0</ele><time>2026-04-18T12:10:41.008Z</time></trkpt><trkpt lat="44.7326416" lon="7.2334034"><ele>1196.2</ele><time>2026-04-18T12:10:42.007Z</time></trkpt><trkpt lat="44.7325707" lon="7.2334629"><ele>1200.4</ele><time>2026-04-18T12:10:43.008Z</time></trkpt><trkpt lat="44.7324862" lon="7.2335279"><ele>1204.6</ele><time>2026-04-18T12:10:44.008Z</time></trkpt><trkpt lat="44.7323956" lon="7.2335804"><ele>1208.8</ele><time>2026-04-18T12:10:45.008Z</time></trkpt><trkpt lat="44.7322947" lon="7.2336413"><ele>1213.0</ele><time>2026-04-18T12:10:46.007Z</time></trkpt><trkpt lat="44.7322025" lon="7.2337083"><ele>1213.0</ele><time>2026-04-18T12:10:47.007Z</time></trkpt><trkpt lat="44.7321063" lon="7.2337717"><ele>1213.0</ele><time>2026-04-18T12:10:48.006Z</time></trkpt><trkpt lat="44.7320011" lon="7.2338411"><ele>1213.0</ele><time>2026-04-18T12:10:49.007Z</time></trkpt><trkpt lat="44.7318993" lon="7.2339057"><ele>1213.0</ele><time>2026-04-18T12:10:50.008Z</time></trkpt><trkpt lat="44.7318032" lon="7.2339688"><ele>1213.0</ele><time>2026-04-18T12:10:51.007Z</time></trkpt><trkpt lat="44.7317087" lon="7.234033"><ele>1209.8</ele><time>2026-04-18T12:10:52.008Z</time></trkpt><trkpt lat="44.7316206" lon="7.2340891"><ele>1206.6</ele><time>2026-04-18T12:10:53.007Z</time></trkpt><trkpt lat="44.7315332" lon="7.2341458"><ele>1203.4</ele><time>2026-04-18T12:10:54.008Z</time></trkpt><trkpt lat="44.7314406" lon="7.234211"><ele>1200.2</ele><time>2026-04-18T12:10:55.007Z</time></trkpt><trkpt lat="44.7313489" lon="7.2342656"><ele>1197.0</ele><time>2026-04-18T12:10:56.007Z</time></trkpt><trkpt lat="44.7312647" lon="7.2343146"><ele>1197.0</ele><time>2026-04-18T12:10:57.008Z</time></trkpt><trkpt lat="44.7311941" lon="7.2343533"><ele>1197.0</ele><time>2026-04-18T12:10:58.008Z</time></trkpt><trkpt lat="44.731118" lon="7.2343947"><ele>1197.0</ele><time>2026-04-18T12:10:59.008Z</time></trkpt><trkpt lat="44.7310061" lon="7.2344695"><ele>1197.0</ele><time>2026-04-18T12:11:01.007Z</time></trkpt><trkpt lat="44.730944" lon="7.2345092"><ele>1197.0</ele><time>2026-04-18T12:11:02.008Z</time></trkpt><trkpt lat="44.7308773" lon="7.2345143"><ele>1197.0</ele><time>2026-04-18T12:11:03.008Z</time></trkpt><trkpt lat="44.7308085" lon="7.234548"><ele>1198.6</ele><time>2026-04-18T12:11:04.007Z</time></trkpt><trkpt lat="44.7306962" lon="7.2345971"><ele>1200.2</ele><time>2026-04-18T12:11:06.007Z</time></trkpt><trkpt lat="44.7306326" lon="7.2346784"><ele>1201.8</ele><time>2026-04-18T12:11:09.007Z</time></trkpt><trkpt lat="44.7306746" lon="7.2347759"><ele>1203.4</ele><time>2026-04-18T12:11:12.008Z</time></trkpt><trkpt lat="44.7307861" lon="7.234855"><ele>1205.0</ele><time>2026-04-18T12:11:14.008Z</time></trkpt><trkpt lat="44.7308821" lon="7.2349211"><ele>1201.8333333333335</ele><time>2026-04-18T12:11:15.008Z</time></trkpt><trkpt lat="44.7309649" lon="7.2349787"><ele>1198.6666666666667</ele><time>2026-04-18T12:11:16.007Z</time></trkpt><trkpt lat="44.7310365" lon="7.2350307"><ele>1195.5</ele><time>2026-04-18T12:11:17.008Z</time></trkpt><trkpt lat="44.7311053" lon="7.235071"><ele>1192.3333333333333</ele><time>2026-04-18T12:11:18.008Z</time></trkpt><trkpt lat="44.7311753" lon="7.2350953"><ele>1189.1666666666665</ele><time>2026-04-18T12:11:19.008Z</time></trkpt><trkpt lat="44.7312444" lon="7.235082"><ele>1186.0</ele><time>2026-04-18T12:11:20.008Z</time></trkpt><trkpt lat="44.7313194" lon="7.2350703"><ele>1184.8333333333333</ele><time>2026-04-18T12:11:21.007Z</time></trkpt><trkpt lat="44.7314054" lon="7.2349919"><ele>1183.6666666666665</ele><time>2026-04-18T12:11:23.007Z</time></trkpt><trkpt lat="44.7314657" lon="7.2349534"><ele>1182.5</ele><time>2026-04-18T12:11:24.008Z</time></trkpt><trkpt lat="44.7315331" lon="7.2349092"><ele>1181.3333333333333</ele><time>2026-04-18T12:11:25.008Z</time></trkpt><trkpt lat="44.7316033" lon="7.2348794"><ele>1180.1666666666667</ele><time>2026-04-18T12:11:26.008Z</time></trkpt><trkpt lat="44.7316952" lon="7.2348498"><ele>1179.0</ele><time>2026-04-18T12:11:27.008Z</time></trkpt><trkpt lat="44.7317604" lon="7.2348208"><ele>1178.6666666666667</ele><time>2026-04-18T12:11:28.008Z</time></trkpt><trkpt lat="44.7318303" lon="7.2347961"><ele>1178.3333333333333</ele><time>2026-04-18T12:11:29.007Z</time></trkpt><trkpt lat="44.7318927" lon="7.234753"><ele>1178.0</ele><time>2026-04-18T12:11:30.008Z</time></trkpt><trkpt lat="44.7319796" lon="7.2347221"><ele>1177.6666666666665</ele><time>2026-04-18T12:11:32.008Z</time></trkpt><trkpt lat="44.7320568" lon="7.2346787"><ele>1177.3333333333333</ele><time>2026-04-18T12:11:34.008Z</time></trkpt><trkpt lat="44.7321351" lon="7.2346388"><ele>1177.0</ele><time>2026-04-18T12:11:36.008Z</time></trkpt><trkpt lat="44.7321902" lon="7.2347023"><ele>1177.0</ele><time>2026-04-18T12:11:40.007Z</time></trkpt><trkpt lat="44.7321765" lon="7.2347911"><ele>1177.0</ele><time>2026-04-18T12:11:42.008Z</time></trkpt><trkpt lat="44.7321357" lon="7.2348675"><ele>1177.0</ele><time>2026-04-18T12:11:43.008Z</time></trkpt><trkpt lat="44.7320945" lon="7.2349494"><ele>1177.0</ele><time>2026-04-18T12:11:44.007Z</time></trkpt><trkpt lat="44.7320477" lon="7.2350524"><ele>1177.0</ele><time>2026-04-18T12:11:45.007Z</time></trkpt><trkpt lat="44.731998" lon="7.2351525"><ele>1177.0</ele><time>2026-04-18T12:11:46.007Z</time></trkpt><trkpt lat="44.7319459" lon="7.2352564"><ele>1177.3333333333333</ele><time>2026-04-18T12:11:47.007Z</time></trkpt><trkpt lat="44.7318825" lon="7.23537"><ele>1177.6666666666665</ele><time>2026-04-18T12:11:48.007Z</time></trkpt><trkpt lat="44.731821" lon="7.235483"><ele>1178.0</ele><time>2026-04-18T12:11:49.008Z</time></trkpt><trkpt lat="44.7317637" lon="7.2355752"><ele>1178.3333333333333</ele><time>2026-04-18T12:11:50.008Z</time></trkpt><trkpt lat="44.7317187" lon="7.2356689"><ele>1178.6666666666667</ele><time>2026-04-18T12:11:51.008Z</time></trkpt><trkpt lat="44.7316785" lon="7.2357474"><ele>1179.0</ele><time>2026-04-18T12:11:52.008Z</time></trkpt><trkpt lat="44.7316222" lon="7.2358301"><ele>1175.5</ele><time>2026-04-18T12:11:53.008Z</time></trkpt><trkpt lat="44.7315834" lon="7.2359269"><ele>1172.0</ele><time>2026-04-18T12:11:54.007Z</time></trkpt><trkpt lat="44.7315414" lon="7.2360069"><ele>1168.5</ele><time>2026-04-18T12:11:55.008Z</time></trkpt><trkpt lat="44.7314917" lon="7.2360847"><ele>1165.0</ele><time>2026-04-18T12:11:56.008Z</time></trkpt><trkpt lat="44.7314309" lon="7.2361656"><ele>1161.5</ele><time>2026-04-18T12:11:57.008Z</time></trkpt><trkpt lat="44.7313663" lon="7.236225"><ele>1158.0</ele><time>2026-04-18T12:11:58.008Z</time></trkpt><trkpt lat="44.7313061" lon="7.23628"><ele>1158.0</ele><time>2026-04-18T12:11:59.008Z</time></trkpt><trkpt lat="44.7312458" lon="7.2363329"><ele>1158.0</ele><time>2026-04-18T12:12:00.007Z</time></trkpt><trkpt lat="44.7311904" lon="7.2363807"><ele>1158.0</ele><time>2026-04-18T12:12:01.008Z</time></trkpt><trkpt lat="44.7311364" lon="7.2364366"><ele>1158.0</ele><time>2026-04-18T12:12:02.008Z</time></trkpt><trkpt lat="44.7310787" lon="7.2364844"><ele>1158.0</ele><time>2026-04-18T12:12:03.007Z</time></trkpt><trkpt lat="44.7309914" lon="7.2366048"><ele>1158.0</ele><time>2026-04-18T12:12:05.008Z</time></trkpt><trkpt lat="44.730906" lon="7.2366975"><ele>1155.6666666666667</ele><time>2026-04-18T12:12:07.008Z</time></trkpt><trkpt lat="44.730825" lon="7.2367207"><ele>1153.3333333333333</ele><time>2026-04-18T12:12:09.008Z</time></trkpt><trkpt lat="44.7307271" lon="7.2367391"><ele>1151.0</ele><time>2026-04-18T12:12:11.008Z</time></trkpt><trkpt lat="44.7306495" lon="7.2367416"><ele>1148.6666666666665</ele><time>2026-04-18T12:12:13.007Z</time></trkpt><trkpt lat="44.7305848" lon="7.2367996"><ele>1146.3333333333333</ele><time>2026-04-18T12:12:16.007Z</time></trkpt><trkpt lat="44.7305403" lon="7.2368739"><ele>1144.0</ele><time>2026-04-18T12:12:19.007Z</time></trkpt><trkpt lat="44.730455" lon="7.2368883"><ele>1144.0</ele><time>2026-04-18T12:12:22.008Z</time></trkpt><trkpt lat="44.730366" lon="7.236917"><ele>1144.0</ele><time>2026-04-18T12:12:24.008Z</time></trkpt><trkpt lat="44.7302883" lon="7.2368274"><ele>1144.0</ele><time>2026-04-18T12:12:26.008Z</time></trkpt><trkpt lat="44.7302144" lon="7.2366844"><ele>1144.0</ele><time>2026-04-18T12:12:28.008Z</time></trkpt><trkpt lat="44.7301897" lon="7.2365989"><ele>1144.0</ele><time>2026-04-18T12:12:29.008Z</time></trkpt><trkpt lat="44.7301528" lon="7.2365269"><ele>1144.0</ele><time>2026-04-18T12:12:30.008Z</time></trkpt><trkpt lat="44.7301081" lon="7.23646"><ele>1144.5</ele><time>2026-04-18T12:12:31.008Z</time></trkpt><trkpt lat="44.7300593" lon="7.2363919"><ele>1145.0</ele><time>2026-04-18T12:12:32.008Z</time></trkpt><trkpt lat="44.7300181" lon="7.2363244"><ele>1145.5</ele><time>2026-04-18T12:12:33.007Z</time></trkpt><trkpt lat="44.7299184" lon="7.2361865"><ele>1146.0</ele><time>2026-04-18T12:12:35.008Z</time></trkpt><trkpt lat="44.7298559" lon="7.236111"><ele>1146.5</ele><time>2026-04-18T12:12:36.008Z</time></trkpt><trkpt lat="44.729805" lon="7.2360364"><ele>1147.0</ele><time>2026-04-18T12:12:37.008Z</time></trkpt><trkpt lat="44.7297495" lon="7.2359588"><ele>1147.0</ele><time>2026-04-18T12:12:38.008Z</time></trkpt><trkpt lat="44.7296942" lon="7.2358843"><ele>1147.0</ele><time>2026-04-18T12:12:39.008Z</time></trkpt><trkpt lat="44.7296399" lon="7.2358101"><ele>1147.0</ele><time>2026-04-18T12:12:40.008Z</time></trkpt><trkpt lat="44.7295706" lon="7.2357349"><ele>1147.0</ele><time>2026-04-18T12:12:41.007Z</time></trkpt><trkpt lat="44.7295087" lon="7.2356672"><ele>1147.0</ele><time>2026-04-18T12:12:42.007Z</time></trkpt><trkpt lat="44.7294461" lon="7.2356091"><ele>1147.0</ele><time>2026-04-18T12:12:43.007Z</time></trkpt><trkpt lat="44.7293882" lon="7.2355679"><ele>1146.1666666666665</ele><time>2026-04-18T12:12:44.007Z</time></trkpt><trkpt lat="44.7293275" lon="7.2355369"><ele>1145.3333333333333</ele><time>2026-04-18T12:12:45.007Z</time></trkpt><trkpt lat="44.7292636" lon="7.2355108"><ele>1144.5</ele><time>2026-04-18T12:12:46.007Z</time></trkpt><trkpt lat="44.7291571" lon="7.2354299"><ele>1143.6666666666667</ele><time>2026-04-18T12:12:48.008Z</time></trkpt><trkpt lat="44.7291014" lon="7.2353758"><ele>1142.8333333333335</ele><time>2026-04-18T12:12:49.008Z</time></trkpt><trkpt lat="44.7290154" lon="7.235263"><ele>1142.0</ele><time>2026-04-18T12:12:51.007Z</time></trkpt><trkpt lat="44.7289354" lon="7.23515"><ele>1142.0</ele><time>2026-04-18T12:12:53.008Z</time></trkpt><trkpt lat="44.7288879" lon="7.2350836"><ele>1142.0</ele><time>2026-04-18T12:12:54.007Z</time></trkpt><trkpt lat="44.7288016" lon="7.2349964"><ele>1142.0</ele><time>2026-04-18T12:12:56.008Z</time></trkpt><trkpt lat="44.7287238" lon="7.2349385"><ele>1142.0</ele><time>2026-04-18T12:12:58.008Z</time></trkpt><trkpt lat="44.7286654" lon="7.2348855"><ele>1142.0</ele><time>2026-04-18T12:13:00.008Z</time></trkpt><trkpt lat="44.7285716" lon="7.2348011"><ele>1142.0</ele><time>2026-04-18T12:13:02.009Z</time></trkpt><trkpt lat="44.7284998" lon="7.2347638"><ele>1142.1666666666667</ele><time>2026-04-18T12:13:04.009Z</time></trkpt><trkpt lat="44.728405" lon="7.234749"><ele>1142.3333333333335</ele><time>2026-04-18T12:13:06.008Z</time></trkpt><trkpt lat="44.7283353" lon="7.2347672"><ele>1142.5</ele><time>2026-04-18T12:13:08.008Z</time></trkpt><trkpt lat="44.7282625" lon="7.2347839"><ele>1142.6666666666667</ele><time>2026-04-18T12:13:10.009Z</time></trkpt><trkpt lat="44.7281936" lon="7.2347961"><ele>1142.8333333333333</ele><time>2026-04-18T12:13:12.009Z</time></trkpt><trkpt lat="44.728112" lon="7.2347905"><ele>1143.0</ele><time>2026-04-18T12:13:14.008Z</time></trkpt><trkpt lat="44.7280424" lon="7.2347594"><ele>1143.0</ele><time>2026-04-18T12:13:16.009Z</time></trkpt><trkpt lat="44.7279686" lon="7.2347272"><ele>1143.0</ele><time>2026-04-18T12:13:18.008Z</time></trkpt><trkpt lat="44.7278555" lon="7.2346464"><ele>1143.0</ele><time>2026-04-18T12:13:20.008Z</time></trkpt><trkpt lat="44.7277992" lon="7.2345821"><ele>1143.0</ele><time>2026-04-18T12:13:22.009Z</time></trkpt><trkpt lat="44.7277106" lon="7.2345096"><ele>1143.0</ele><time>2026-04-18T12:13:24.008Z</time></trkpt><trkpt lat="44.7276439" lon="7.2344493"><ele>1138.0</ele><time>2026-04-18T12:13:26.008Z</time></trkpt><trkpt lat="44.7275466" lon="7.2343771"><ele>1133.0</ele><time>2026-04-18T12:13:28.009Z</time></trkpt><trkpt lat="44.7274877" lon="7.234319"><ele>1128.0</ele><time>2026-04-18T12:13:29.008Z</time></trkpt><trkpt lat="44.7274363" lon="7.2342379"><ele>1123.0</ele><time>2026-04-18T12:13:30.008Z</time></trkpt><trkpt lat="44.7273932" lon="7.2341729"><ele>1118.0</ele><time>2026-04-18T12:13:31.009Z</time></trkpt><trkpt lat="44.727319" lon="7.2340717"><ele>1113.0</ele><time>2026-04-18T12:13:33.009Z</time></trkpt><trkpt lat="44.7272428" lon="7.2339933"><ele>1113.0</ele><time>2026-04-18T12:13:35.008Z</time></trkpt><trkpt lat="44.7271783" lon="7.233961"><ele>1113.0</ele><time>2026-04-18T12:13:38.009Z</time></trkpt><trkpt lat="44.7271044" lon="7.2339088"><ele>1113.0</ele><time>2026-04-18T12:14:30.009Z</time></trkpt><trkpt lat="44.7270146" lon="7.23394"><ele>1113.0</ele><time>2026-04-18T12:14:33.009Z</time></trkpt><trkpt lat="44.7269526" lon="7.2339805"><ele>1113.0</ele><time>2026-04-18T12:14:35.008Z</time></trkpt><trkpt lat="44.7269158" lon="7.2340745"><ele>1113.0</ele><time>2026-04-18T12:14:37.009Z</time></trkpt><trkpt lat="44.726895" lon="7.2341682"><ele>1113.0</ele><time>2026-04-18T12:15:23.009Z</time></trkpt><trkpt lat="44.7268998" lon="7.2342569"><ele>1113.0</ele><time>2026-04-18T12:15:25.007Z</time></trkpt><trkpt lat="44.7269229" lon="7.234347"><ele>1113.0</ele><time>2026-04-18T12:15:27.008Z</time></trkpt><trkpt lat="44.7269566" lon="7.234482"><ele>1113.0</ele><time>2026-04-18T12:15:29.008Z</time></trkpt><trkpt lat="44.726963" lon="7.2346282"><ele>1113.0</ele><time>2026-04-18T12:15:31.008Z</time></trkpt><trkpt lat="44.726963" lon="7.2347574"><ele>1113.0</ele><time>2026-04-18T12:15:33.009Z</time></trkpt><trkpt lat="44.7269561" lon="7.2348779"><ele>1112.1666666666667</ele><time>2026-04-18T12:15:35.008Z</time></trkpt><trkpt lat="44.7269011" lon="7.2349763"><ele>1111.3333333333333</ele><time>2026-04-18T12:15:37.008Z</time></trkpt><trkpt lat="44.7268716" lon="7.2350764"><ele>1110.5</ele><time>2026-04-18T12:15:39.008Z</time></trkpt><trkpt lat="44.7269042" lon="7.2351707"><ele>1109.6666666666665</ele><time>2026-04-18T12:15:42.009Z</time></trkpt><trkpt lat="44.7269714" lon="7.2352431"><ele>1108.8333333333333</ele><time>2026-04-18T12:15:44.008Z</time></trkpt><trkpt lat="44.7270174" lon="7.2353198"><ele>1108.0</ele><time>2026-04-18T12:15:46.008Z</time></trkpt><trkpt lat="44.7270584" lon="7.2354164"><ele>1105.2</ele><time>2026-04-18T12:15:48.009Z</time></trkpt><trkpt lat="44.7270913" lon="7.235533"><ele>1102.4</ele><time>2026-04-18T12:15:50.009Z</time></trkpt><trkpt lat="44.7271315" lon="7.2356721"><ele>1099.6000000000001</ele><time>2026-04-18T12:15:52.008Z</time></trkpt><trkpt lat="44.7271686" lon="7.2357989"><ele>1096.8</ele><time>2026-04-18T12:15:54.009Z</time></trkpt><trkpt lat="44.7272041" lon="7.2359561"><ele>1094.0</ele><time>2026-04-18T12:15:56.009Z</time></trkpt><trkpt lat="44.7272533" lon="7.2361052"><ele>1090.8</ele><time>2026-04-18T12:15:58.008Z</time></trkpt><trkpt lat="44.7273018" lon="7.2362312"><ele>1087.6000000000001</ele><time>2026-04-18T12:16:00.009Z</time></trkpt><trkpt lat="44.7273126" lon="7.2363659"><ele>1084.4</ele><time>2026-04-18T12:16:02.009Z</time></trkpt><trkpt lat="44.7273422" lon="7.2364789"><ele>1081.2</ele><time>2026-04-18T12:16:04.007Z</time></trkpt><trkpt lat="44.727369" lon="7.2365926"><ele>1078.0</ele><time>2026-04-18T12:16:06.009Z</time></trkpt><trkpt lat="44.727398" lon="7.236699"><ele>1078.0</ele><time>2026-04-18T12:16:08.009Z</time></trkpt><trkpt lat="44.7274467" lon="7.236808"><ele>1078.0</ele><time>2026-04-18T12:16:10.009Z</time></trkpt><trkpt lat="44.7274955" lon="7.2369211"><ele>1078.0</ele><time>2026-04-18T12:16:12.008Z</time></trkpt><trkpt lat="44.7275333" lon="7.2370503"><ele>1078.0</ele><time>2026-04-18T12:16:14.007Z</time></trkpt><trkpt lat="44.7275812" lon="7.2371725"><ele>1078.0</ele><time>2026-04-18T12:16:16.008Z</time></trkpt><trkpt lat="44.7276169" lon="7.2373226"><ele>1077.2</ele><time>2026-04-18T12:16:18.009Z</time></trkpt><trkpt lat="44.7276204" lon="7.2374691"><ele>1076.4</ele><time>2026-04-18T12:16:20.008Z</time></trkpt><trkpt lat="44.7276368" lon="7.2376157"><ele>1075.6000000000001</ele><time>2026-04-18T12:16:22.009Z</time></trkpt><trkpt lat="44.7276439" lon="7.2377467"><ele>1074.8</ele><time>2026-04-18T12:16:24.009Z</time></trkpt><trkpt lat="44.7276341" lon="7.2378744"><ele>1074.0</ele><time>2026-04-18T12:16:26.009Z</time></trkpt><trkpt lat="44.7276261" lon="7.2380346"><ele>1072.8</ele><time>2026-04-18T12:16:28.009Z</time></trkpt><trkpt lat="44.7276172" lon="7.2382001"><ele>1071.6000000000001</ele><time>2026-04-18T12:16:30.009Z</time></trkpt><trkpt lat="44.727604" lon="7.2382882"><ele>1070.4</ele><time>2026-04-18T12:16:31.009Z</time></trkpt><trkpt lat="44.7275846" lon="7.2384332"><ele>1069.2</ele><time>2026-04-18T12:16:33.009Z</time></trkpt><trkpt lat="44.7275293" lon="7.2385829"><ele>1068.0</ele><time>2026-04-18T12:16:35.009Z</time></trkpt><trkpt lat="44.7274959" lon="7.2386587"><ele>1068.0</ele><time>2026-04-18T12:16:36.009Z</time></trkpt><trkpt lat="44.7274597" lon="7.2387323"><ele>1068.0</ele><time>2026-04-18T12:16:37.008Z</time></trkpt><trkpt lat="44.7274374" lon="7.2388914"><ele>1068.0</ele><time>2026-04-18T12:16:39.009Z</time></trkpt><trkpt lat="44.7274365" lon="7.2389906"><ele>1068.0</ele><time>2026-04-18T12:16:40.009Z</time></trkpt><trkpt lat="44.7274392" lon="7.2391738"><ele>1068.0</ele><time>2026-04-18T12:16:42.009Z</time></trkpt><trkpt lat="44.7274377" lon="7.239268"><ele>1068.0</ele><time>2026-04-18T12:16:43.008Z</time></trkpt><trkpt lat="44.7274104" lon="7.2393645"><ele>1066.1666666666667</ele><time>2026-04-18T12:16:44.009Z</time></trkpt><trkpt lat="44.7273888" lon="7.2394553"><ele>1064.3333333333333</ele><time>2026-04-18T12:16:45.007Z</time></trkpt><trkpt lat="44.7273576" lon="7.2395949"><ele>1062.5</ele><time>2026-04-18T12:16:47.008Z</time></trkpt><trkpt lat="44.7273576" lon="7.2397112"><ele>1060.6666666666665</ele><time>2026-04-18T12:21:57.008Z</time></trkpt><trkpt lat="44.7273551" lon="7.2397998"><ele>1058.8333333333333</ele><time>2026-04-18T12:21:58.009Z</time></trkpt><trkpt lat="44.7273675" lon="7.2399571"><ele>1057.0</ele><time>2026-04-18T12:22:00.008Z</time></trkpt><trkpt lat="44.727404" lon="7.2400627"><ele>1057.2857142857142</ele><time>2026-04-18T12:22:01.007Z</time></trkpt><trkpt lat="44.7274287" lon="7.24016"><ele>1057.5714285714284</ele><time>2026-04-18T12:22:02.008Z</time></trkpt><trkpt lat="44.727449" lon="7.2402542"><ele>1057.857142857143</ele><time>2026-04-18T12:22:03.009Z</time></trkpt><trkpt lat="44.7274627" lon="7.2403484"><ele>1058.142857142857</ele><time>2026-04-18T12:22:04.009Z</time></trkpt><trkpt lat="44.727488" lon="7.2404367"><ele>1058.4285714285713</ele><time>2026-04-18T12:22:05.008Z</time></trkpt><trkpt lat="44.7274786" lon="7.2405426"><ele>1058.7142857142858</ele><time>2026-04-18T12:22:06.009Z</time></trkpt><trkpt lat="44.7275078" lon="7.2406428"><ele>1059.0</ele><time>2026-04-18T12:22:07.009Z</time></trkpt><trkpt lat="44.7275248" lon="7.2407305"><ele>1059.0</ele><time>2026-04-18T12:22:08.009Z</time></trkpt><trkpt lat="44.7275527" lon="7.2408256"><ele>1059.0</ele><time>2026-04-18T12:22:09.009Z</time></trkpt><trkpt lat="44.72758" lon="7.2409115"><ele>1059.0</ele><time>2026-04-18T12:22:10.008Z</time></trkpt><trkpt lat="44.7276268" lon="7.2409724"><ele>1059.0</ele><time>2026-04-18T12:22:11.008Z</time></trkpt><trkpt lat="44.7276891" lon="7.2410363"><ele>1059.0</ele><time>2026-04-18T12:22:12.009Z</time></trkpt><trkpt lat="44.7277642" lon="7.2411045"><ele>1059.0</ele><time>2026-04-18T12:22:13.008Z</time></trkpt><trkpt lat="44.7278268" lon="7.2411745"><ele>1054.1666666666667</ele><time>2026-04-18T12:22:14.008Z</time></trkpt><trkpt lat="44.7278995" lon="7.2412456"><ele>1049.3333333333333</ele><time>2026-04-18T12:22:15.008Z</time></trkpt><trkpt lat="44.7279745" lon="7.2413076"><ele>1044.5</ele><time>2026-04-18T12:22:16.008Z</time></trkpt><trkpt lat="44.7280255" lon="7.2413659"><ele>1039.6666666666665</ele><time>2026-04-18T12:22:17.009Z</time></trkpt><trkpt lat="44.7280791" lon="7.2414383"><ele>1034.8333333333333</ele><time>2026-04-18T12:22:18.008Z</time></trkpt><trkpt lat="44.728112" lon="7.2415238"><ele>1030.0</ele><time>2026-04-18T12:22:19.009Z</time></trkpt><trkpt lat="44.7281642" lon="7.2416752"><ele>1030.0</ele><time>2026-04-18T12:22:21.009Z</time></trkpt><trkpt lat="44.7282007" lon="7.2418363"><ele>1030.0</ele><time>2026-04-18T12:22:23.009Z</time></trkpt><trkpt lat="44.7281985" lon="7.2420109"><ele>1030.0</ele><time>2026-04-18T12:22:25.009Z</time></trkpt><trkpt lat="44.7281899" lon="7.2421103"><ele>1030.0</ele><time>2026-04-18T12:22:26.009Z</time></trkpt><trkpt lat="44.7281091" lon="7.2422439"><ele>1030.0</ele><time>2026-04-18T12:22:28.007Z</time></trkpt><trkpt lat="44.7280563" lon="7.242296"><ele>1027.8</ele><time>2026-04-18T12:22:29.008Z</time></trkpt><trkpt lat="44.7279771" lon="7.2423751"><ele>1025.6</ele><time>2026-04-18T12:22:31.008Z</time></trkpt><trkpt lat="44.727873" lon="7.2424073"><ele>1023.4000000000001</ele><time>2026-04-18T12:22:33.009Z</time></trkpt><trkpt lat="44.7277539" lon="7.2424446"><ele>1021.2</ele><time>2026-04-18T12:22:35.008Z</time></trkpt><trkpt lat="44.7276953" lon="7.2424801"><ele>1019.0</ele><time>2026-04-18T12:22:36.009Z</time></trkpt><trkpt lat="44.7275972" lon="7.2425612"><ele>1026.75</ele><time>2026-04-18T12:22:38.009Z</time></trkpt><trkpt lat="44.727512" lon="7.2426769"><ele>1034.5</ele><time>2026-04-18T12:22:40.009Z</time></trkpt><trkpt lat="44.7274712" lon="7.2427516"><ele>1042.25</ele><time>2026-04-18T12:22:41.009Z</time></trkpt><trkpt lat="44.7273439" lon="7.2429816"><ele>1050.0</ele><time>2026-04-18T12:22:44.008Z</time></trkpt><trkpt lat="44.7272987" lon="7.2430581"><ele>1050.0</ele><time>2026-04-18T12:22:45.009Z</time></trkpt><trkpt lat="44.727252" lon="7.2431254"><ele>1050.0</ele><time>2026-04-18T12:22:46.009Z</time></trkpt><trkpt lat="44.7272095" lon="7.2431979"><ele>1050.0</ele><time>2026-04-18T12:22:47.008Z</time></trkpt><trkpt lat="44.7271659" lon="7.2432655"><ele>1050.0</ele><time>2026-04-18T12:22:48.009Z</time></trkpt><trkpt lat="44.727114" lon="7.2433332"><ele>1050.0</ele><time>2026-04-18T12:22:49.008Z</time></trkpt><trkpt lat="44.7270562" lon="7.2433927"><ele>1050.0</ele><time>2026-04-18T12:22:50.008Z</time></trkpt><trkpt lat="44.7270007" lon="7.2434534"><ele>1050.0</ele><time>2026-04-18T12:22:51.009Z</time></trkpt><trkpt lat="44.7269484" lon="7.2435143"><ele>1047.0</ele><time>2026-04-18T12:22:52.009Z</time></trkpt><trkpt lat="44.7268564" lon="7.2436054"><ele>1044.0</ele><time>2026-04-18T12:22:54.009Z</time></trkpt><trkpt lat="44.726819" lon="7.243726"><ele>1041.0</ele><time>2026-04-18T12:22:56.007Z</time></trkpt><trkpt lat="44.7268242" lon="7.2438783"><ele>1038.0</ele><time>2026-04-18T12:22:58.008Z</time></trkpt><trkpt lat="44.7268264" lon="7.2439729"><ele>1035.0</ele><time>2026-04-18T12:22:59.008Z</time></trkpt><trkpt lat="44.7268401" lon="7.2441401"><ele>1031.6</ele><time>2026-04-18T12:23:01.009Z</time></trkpt><trkpt lat="44.7268048" lon="7.2442731"><ele>1028.2</ele><time>2026-04-18T12:23:03.009Z</time></trkpt><trkpt lat="44.726737" lon="7.2444149"><ele>1024.8</ele><time>2026-04-18T12:23:05.008Z</time></trkpt><trkpt lat="44.7266806" lon="7.2445385"><ele>1021.4</ele><time>2026-04-18T12:23:07.009Z</time></trkpt><trkpt lat="44.7266134" lon="7.2446514"><ele>1018.0</ele><time>2026-04-18T12:23:09.008Z</time></trkpt><trkpt lat="44.7265594" lon="7.2447383"><ele>1016.8333333333333</ele><time>2026-04-18T12:23:11.008Z</time></trkpt><trkpt lat="44.7265467" lon="7.2448277"><ele>1015.6666666666666</ele><time>2026-04-18T12:23:13.008Z</time></trkpt><trkpt lat="44.7265854" lon="7.244917"><ele>1014.5</ele><time>2026-04-18T12:23:16.009Z</time></trkpt><trkpt lat="44.7266837" lon="7.2449341"><ele>1013.3333333333333</ele><time>2026-04-18T12:23:25.008Z</time></trkpt><trkpt lat="44.7267948" lon="7.2449471"><ele>1012.1666666666666</ele><time>2026-04-18T12:23:27.009Z</time></trkpt><trkpt lat="44.7268624" lon="7.2449649"><ele>1011.0</ele><time>2026-04-18T12:23:28.009Z</time></trkpt><trkpt lat="44.7269243" lon="7.2449934"><ele>1006.1666666666666</ele><time>2026-04-18T12:23:29.009Z</time></trkpt><trkpt lat="44.7269825" lon="7.2450455"><ele>1001.3333333333333</ele><time>2026-04-18T12:23:30.009Z</time></trkpt><trkpt lat="44.7270487" lon="7.245113"><ele>996.5</ele><time>2026-04-18T12:23:31.009Z</time></trkpt><trkpt lat="44.7271112" lon="7.2451902"><ele>991.6666666666666</ele><time>2026-04-18T12:23:32.009Z</time></trkpt><trkpt lat="44.7271669" lon="7.2452545"><ele>986.8333333333333</ele><time>2026-04-18T12:23:33.009Z</time></trkpt><trkpt lat="44.7272245" lon="7.2453151"><ele>982.0</ele><time>2026-04-18T12:23:34.008Z</time></trkpt><trkpt lat="44.7273251" lon="7.2453662"><ele>981.9999999999999</ele><time>2026-04-18T12:23:36.008Z</time></trkpt><trkpt lat="44.727435" lon="7.2453854"><ele>982.0</ele><time>2026-04-18T12:23:38.009Z</time></trkpt><trkpt lat="44.7275168" lon="7.2454619"><ele>982.0</ele><time>2026-04-18T12:23:40.008Z</time></trkpt><trkpt lat="44.7275552" lon="7.2455364"><ele>982.0</ele><time>2026-04-18T12:23:41.009Z</time></trkpt><trkpt lat="44.7275923" lon="7.2456187"><ele>981.9999999999999</ele><time>2026-04-18T12:23:42.008Z</time></trkpt><trkpt lat="44.7276256" lon="7.2457016"><ele>982.0</ele><time>2026-04-18T12:23:43.009Z</time></trkpt><trkpt lat="44.7276787" lon="7.2457603"><ele>982.0</ele><time>2026-04-18T12:23:44.009Z</time></trkpt><trkpt lat="44.7277514" lon="7.2458643"><ele>982.0</ele><time>2026-04-18T12:23:46.008Z</time></trkpt><trkpt lat="44.7278492" lon="7.2459197"><ele>982.0</ele><time>2026-04-18T12:23:48.008Z</time></trkpt><trkpt lat="44.7279251" lon="7.2459411"><ele>982.0</ele><time>2026-04-18T12:23:49.008Z</time></trkpt><trkpt lat="44.7279983" lon="7.2459809"><ele>982.0</ele><time>2026-04-18T12:23:50.009Z</time></trkpt><trkpt lat="44.7280791" lon="7.2460357"><ele>982.0</ele><time>2026-04-18T12:23:51.009Z</time></trkpt><trkpt lat="44.7281747" lon="7.246091"><ele>982.0</ele><time>2026-04-18T12:23:52.008Z</time></trkpt><trkpt lat="44.728265" lon="7.2461393"><ele>982.0</ele><time>2026-04-18T12:23:53.009Z</time></trkpt><trkpt lat="44.7283578" lon="7.2461917"><ele>982.0</ele><time>2026-04-18T12:23:54.008Z</time></trkpt><trkpt lat="44.7284451" lon="7.2462347"><ele>982.0</ele><time>2026-04-18T12:23:55.009Z</time></trkpt><trkpt lat="44.7285287" lon="7.2462527"><ele>976.4999999999999</ele><time>2026-04-18T12:23:56.009Z</time></trkpt><trkpt lat="44.7286128" lon="7.2462497"><ele>971.0</ele><time>2026-04-18T12:23:57.008Z</time></trkpt><trkpt lat="44.7286815" lon="7.2462593"><ele>965.5</ele><time>2026-04-18T12:23:58.009Z</time></trkpt><trkpt lat="44.7287544" lon="7.2462828"><ele>960.0</ele><time>2026-04-18T12:23:59.008Z</time></trkpt><trkpt lat="44.7288334" lon="7.2463228"><ele>954.4999999999999</ele><time>2026-04-18T12:24:00.009Z</time></trkpt><trkpt lat="44.728913" lon="7.2463826"><ele>949.0</ele><time>2026-04-18T12:24:01.009Z</time></trkpt><trkpt lat="44.7289964" lon="7.2464572"><ele>952.1666666666666</ele><time>2026-04-18T12:24:02.009Z</time></trkpt><trkpt lat="44.7290727" lon="7.2465304"><ele>955.3333333333333</ele><time>2026-04-18T12:24:03.008Z</time></trkpt><trkpt lat="44.7291904" lon="7.2465942"><ele>958.5</ele><time>2026-04-18T12:24:05.008Z</time></trkpt><trkpt lat="44.7292542" lon="7.2466149"><ele>961.6666666666667</ele><time>2026-04-18T12:24:06.009Z</time></trkpt><trkpt lat="44.7293223" lon="7.246666"><ele>964.8333333333334</ele><time>2026-04-18T12:24:07.008Z</time></trkpt><trkpt lat="44.7293801" lon="7.246732"><ele>968.0</ele><time>2026-04-18T12:24:08.009Z</time></trkpt><trkpt lat="44.7294325" lon="7.2468054"><ele>968.0000000000001</ele><time>2026-04-18T12:24:09.008Z</time></trkpt><trkpt lat="44.7294869" lon="7.2468575"><ele>968.0</ele><time>2026-04-18T12:24:10.007Z</time></trkpt><trkpt lat="44.7295665" lon="7.2469189"><ele>968.0</ele><time>2026-04-18T12:24:11.008Z</time></trkpt><trkpt lat="44.7296872" lon="7.2469564"><ele>968.0</ele><time>2026-04-18T12:24:13.009Z</time></trkpt><trkpt lat="44.7297569" lon="7.246952"><ele>968.0000000000001</ele><time>2026-04-18T12:24:14.009Z</time></trkpt><trkpt lat="44.7298341" lon="7.246967"><ele>968.0</ele><time>2026-04-18T12:24:15.008Z</time></trkpt><trkpt lat="44.7299039" lon="7.2469982"><ele>968.0</ele><time>2026-04-18T12:24:16.009Z</time></trkpt><trkpt lat="44.7299848" lon="7.2470456"><ele>968.0</ele><time>2026-04-18T12:24:17.008Z</time></trkpt><trkpt lat="44.7300786" lon="7.2471004"><ele>968.0</ele><time>2026-04-18T12:24:18.008Z</time></trkpt><trkpt lat="44.7301693" lon="7.2471561"><ele>968.0</ele><time>2026-04-18T12:24:19.008Z</time></trkpt><trkpt lat="44.730257" lon="7.2472184"><ele>968.0</ele><time>2026-04-18T12:24:20.008Z</time></trkpt><trkpt lat="44.730336" lon="7.2472753"><ele>968.5000000000001</ele><time>2026-04-18T12:24:21.008Z</time></trkpt><trkpt lat="44.7304119" lon="7.2473256"><ele>969.0</ele><time>2026-04-18T12:24:22.009Z</time></trkpt><trkpt lat="44.730489" lon="7.2473698"><ele>969.5</ele><time>2026-04-18T12:24:23.008Z</time></trkpt><trkpt lat="44.7305692" lon="7.2474048"><ele>970.0</ele><time>2026-04-18T12:24:24.008Z</time></trkpt><trkpt lat="44.7306609" lon="7.2474203"><ele>970.5000000000001</ele><time>2026-04-18T12:24:25.009Z</time></trkpt><trkpt lat="44.7307454" lon="7.2474407"><ele>971.0</ele><time>2026-04-18T12:24:26.008Z</time></trkpt><trkpt lat="44.7308389" lon="7.2475175"><ele>971.0</ele><time>2026-04-18T12:24:28.008Z</time></trkpt><trkpt lat="44.7308853" lon="7.2475875"><ele>970.9999999999999</ele><time>2026-04-18T12:24:29.009Z</time></trkpt><trkpt lat="44.7309297" lon="7.2477668"><ele>970.9999999999999</ele><time>2026-04-18T12:24:31.008Z</time></trkpt><trkpt lat="44.7309527" lon="7.2478968"><ele>971.0</ele><time>2026-04-18T12:24:32.008Z</time></trkpt><trkpt lat="44.7309738" lon="7.2480235"><ele>971.0</ele><time>2026-04-18T12:24:33.008Z</time></trkpt><trkpt lat="44.7309989" lon="7.2481376"><ele>975.3333333333334</ele><time>2026-04-18T12:24:34.008Z</time></trkpt><trkpt lat="44.7310253" lon="7.2482579"><ele>979.6666666666667</ele><time>2026-04-18T12:24:35.009Z</time></trkpt><trkpt lat="44.7310574" lon="7.2483675"><ele>984.0</ele><time>2026-04-18T12:24:36.008Z</time></trkpt><trkpt lat="44.7311159" lon="7.2484698"><ele>988.3333333333333</ele><time>2026-04-18T12:24:37.009Z</time></trkpt><trkpt lat="44.7311437" lon="7.2485539"><ele>992.6666666666666</ele><time>2026-04-18T12:24:38.009Z</time></trkpt><trkpt lat="44.7311804" lon="7.2486491"><ele>997.0</ele><time>2026-04-18T12:24:39.008Z</time></trkpt><trkpt lat="44.7312332" lon="7.2487539"><ele>988.4000000000001</ele><time>2026-04-18T12:24:40.009Z</time></trkpt><trkpt lat="44.7313381" lon="7.2488889"><ele>979.8000000000001</ele><time>2026-04-18T12:24:42.009Z</time></trkpt><trkpt lat="44.7313876" lon="7.2489868"><ele>971.2</ele><time>2026-04-18T12:24:43.008Z</time></trkpt><trkpt lat="44.7314472" lon="7.2490777"><ele>962.6</ele><time>2026-04-18T12:24:44.008Z</time></trkpt><trkpt lat="44.7314971" lon="7.2491628"><ele>954.0</ele><time>2026-04-18T12:24:45.008Z</time></trkpt><trkpt lat="44.7315355" lon="7.2492606"><ele>954.0</ele><time>2026-04-18T12:24:46.009Z</time></trkpt><trkpt lat="44.7315844" lon="7.2493213"><ele>954.0000000000001</ele><time>2026-04-18T12:24:47.008Z</time></trkpt><trkpt lat="44.7316741" lon="7.2494178"><ele>954.0000000000001</ele><time>2026-04-18T12:24:49.009Z</time></trkpt><trkpt lat="44.7317762" lon="7.2495077"><ele>954.0</ele><time>2026-04-18T12:24:51.008Z</time></trkpt><trkpt lat="44.7318001" lon="7.2496232"><ele>954.0</ele><time>2026-04-18T12:24:53.008Z</time></trkpt><trkpt lat="44.7317678" lon="7.2497235"><ele>953.8571428571428</ele><time>2026-04-18T12:24:55.009Z</time></trkpt><trkpt lat="44.7317414" lon="7.2498327"><ele>953.7142857142856</ele><time>2026-04-18T12:24:57.009Z</time></trkpt><trkpt lat="44.7317076" lon="7.249909"><ele>953.5714285714286</ele><time>2026-04-18T12:24:58.008Z</time></trkpt><trkpt lat="44.7316757" lon="7.2499973"><ele>953.4285714285713</ele><time>2026-04-18T12:24:59.008Z</time></trkpt><trkpt lat="44.7316497" lon="7.2500823"><ele>953.2857142857142</ele><time>2026-04-18T12:25:00.009Z</time></trkpt><trkpt lat="44.7316067" lon="7.2501797"><ele>953.1428571428571</ele><time>2026-04-18T12:25:01.008Z</time></trkpt><trkpt lat="44.7315697" lon="7.2502626"><ele>953.0</ele><time>2026-04-18T12:25:02.009Z</time></trkpt><trkpt lat="44.7315269" lon="7.250354"><ele>953.0000000000001</ele><time>2026-04-18T12:25:03.009Z</time></trkpt><trkpt lat="44.7314697" lon="7.2504863"><ele>953.0</ele><time>2026-04-18T12:25:05.007Z</time></trkpt><trkpt lat="44.7314348" lon="7.2506042"><ele>953.0</ele><time>2026-04-18T12:25:07.009Z</time></trkpt><trkpt lat="44.7313626" lon="7.2507224"><ele>953.0</ele><time>2026-04-18T12:25:09.008Z</time></trkpt><trkpt lat="44.7313149" lon="7.2507966"><ele>953.0000000000001</ele><time>2026-04-18T12:25:10.008Z</time></trkpt><trkpt lat="44.7312822" lon="7.2508765"><ele>953.0</ele><time>2026-04-18T12:25:11.009Z</time></trkpt><trkpt lat="44.7312414" lon="7.2509579"><ele>948.5000000000001</ele><time>2026-04-18T12:25:12.008Z</time></trkpt><trkpt lat="44.7312109" lon="7.2510622"><ele>944.0</ele><time>2026-04-18T12:25:13.008Z</time></trkpt><trkpt lat="44.7311515" lon="7.2512174"><ele>939.5</ele><time>2026-04-18T12:25:15.009Z</time></trkpt><trkpt lat="44.7311277" lon="7.2513069"><ele>935.0</ele><time>2026-04-18T12:25:16.008Z</time></trkpt><trkpt lat="44.7311236" lon="7.2514093"><ele>930.5000000000001</ele><time>2026-04-18T12:25:17.009Z</time></trkpt><trkpt lat="44.731101" lon="7.251527"><ele>926.0</ele><time>2026-04-18T12:25:18.007Z</time></trkpt><trkpt lat="44.7311685" lon="7.2515977"><ele>922.5000000000001</ele><time>2026-04-18T12:25:19.009Z</time></trkpt><trkpt lat="44.7311546" lon="7.251691"><ele>919.0</ele><time>2026-04-18T12:25:20.009Z</time></trkpt><trkpt lat="44.7311268" lon="7.2518007"><ele>915.5</ele><time>2026-04-18T12:25:21.009Z</time></trkpt><trkpt lat="44.7311143" lon="7.2518996"><ele>912.0</ele><time>2026-04-18T12:25:22.008Z</time></trkpt><trkpt lat="44.7311114" lon="7.2520104"><ele>908.5000000000001</ele><time>2026-04-18T12:25:23.009Z</time></trkpt><trkpt lat="44.7311095" lon="7.252126"><ele>905.0</ele><time>2026-04-18T12:25:24.008Z</time></trkpt><trkpt lat="44.7311152" lon="7.2522517"><ele>902.3333333333334</ele><time>2026-04-18T12:25:26.008Z</time></trkpt><trkpt lat="44.7311238" lon="7.2523443"><ele>899.6666666666667</ele><time>2026-04-18T12:25:27.008Z</time></trkpt><trkpt lat="44.7311407" lon="7.2524957"><ele>897.0</ele><time>2026-04-18T12:25:29.009Z</time></trkpt><trkpt lat="44.7311622" lon="7.2526595"><ele>894.3333333333333</ele><time>2026-04-18T12:25:31.009Z</time></trkpt><trkpt lat="44.7311705" lon="7.2527499"><ele>891.6666666666666</ele><time>2026-04-18T12:25:32.008Z</time></trkpt><trkpt lat="44.7311783" lon="7.2528404"><ele>889.0</ele><time>2026-04-18T12:25:33.009Z</time></trkpt><trkpt lat="44.7311962" lon="7.2530124"><ele>885.8000000000001</ele><time>2026-04-18T12:25:35.009Z</time></trkpt><trkpt lat="44.7312155" lon="7.2531567"><ele>882.6000000000001</ele><time>2026-04-18T12:25:37.008Z</time></trkpt><trkpt lat="44.7312098" lon="7.2532522"><ele>879.4</ele><time>2026-04-18T12:25:38.009Z</time></trkpt><trkpt lat="44.7312002" lon="7.2533429"><ele>876.2</ele><time>2026-04-18T12:25:39.009Z</time></trkpt><trkpt lat="44.7311852" lon="7.2534386"><ele>873.0</ele><time>2026-04-18T12:25:40.009Z</time></trkpt><trkpt lat="44.7311125" lon="7.2536708"><ele>873.0</ele><time>2026-04-18T12:25:44.008Z</time></trkpt><trkpt lat="44.7310714" lon="7.2537605"><ele>873.0</ele><time>2026-04-18T12:25:46.008Z</time></trkpt><trkpt lat="44.7309896" lon="7.2538456"><ele>873.0</ele><time>2026-04-18T12:25:48.009Z</time></trkpt><trkpt lat="44.7309321" lon="7.2539101"><ele>873.0</ele><time>2026-04-18T12:25:49.008Z</time></trkpt><trkpt lat="44.730825" lon="7.2540226"><ele>873.0</ele><time>2026-04-18T12:25:51.009Z</time></trkpt><trkpt lat="44.7307871" lon="7.2540939"><ele>873.0</ele><time>2026-04-18T12:25:52.009Z</time></trkpt><trkpt lat="44.7307265" lon="7.2541375"><ele>876.0</ele><time>2026-04-18T12:25:53.009Z</time></trkpt><trkpt lat="44.7306359" lon="7.2541905"><ele>879.0</ele><time>2026-04-18T12:25:55.007Z</time></trkpt><trkpt lat="44.730555" lon="7.254259"><ele>882.0</ele><time>2026-04-18T12:25:57.009Z</time></trkpt><trkpt lat="44.7304849" lon="7.2543771"><ele>885.0</ele><time>2026-04-18T12:25:59.009Z</time></trkpt><trkpt lat="44.7304563" lon="7.2544574"><ele>888.0</ele><time>2026-04-18T12:26:00.009Z</time></trkpt><trkpt lat="44.7304216" lon="7.2545373"><ele>891.0</ele><time>2026-04-18T12:26:01.009Z</time></trkpt><trkpt lat="44.7303738" lon="7.2546578"><ele>891.0</ele><time>2026-04-18T12:26:03.008Z</time></trkpt><trkpt lat="44.73034" lon="7.2547334"><ele>890.9999999999999</ele><time>2026-04-18T12:26:04.008Z</time></trkpt><trkpt lat="44.7302824" lon="7.2548496"><ele>890.9999999999999</ele><time>2026-04-18T12:26:06.008Z</time></trkpt><trkpt lat="44.730256" lon="7.2549759"><ele>891.0</ele><time>2026-04-18T12:26:08.008Z</time></trkpt><trkpt lat="44.7302776" lon="7.2551324"><ele>891.0</ele><time>2026-04-18T12:26:10.008Z</time></trkpt><trkpt lat="44.7303365" lon="7.2552918"><ele>885.0</ele><time>2026-04-18T12:26:12.009Z</time></trkpt><trkpt lat="44.7303692" lon="7.2554301"><ele>878.9999999999999</ele><time>2026-04-18T12:26:14.008Z</time></trkpt><trkpt lat="44.7303961" lon="7.2555633"><ele>872.9999999999999</ele><time>2026-04-18T12:26:16.008Z</time></trkpt><trkpt lat="44.7304463" lon="7.2556185"><ele>867.0</ele><time>2026-04-18T12:26:18.009Z</time></trkpt><trkpt lat="44.7305226" lon="7.2556706"><ele>861.0</ele><time>2026-04-18T12:26:19.009Z</time></trkpt><trkpt lat="44.7305884" lon="7.2557861"><ele>859.4</ele><time>2026-04-18T12:26:21.009Z</time></trkpt><trkpt lat="44.7306646" lon="7.2559524"><ele>857.8</ele><time>2026-04-18T12:26:23.008Z</time></trkpt><trkpt lat="44.7307104" lon="7.2560312"><ele>856.1999999999999</ele><time>2026-04-18T12:26:24.008Z</time></trkpt><trkpt lat="44.7307397" lon="7.2561138"><ele>854.5999999999999</ele><time>2026-04-18T12:26:25.009Z</time></trkpt><trkpt lat="44.7307275" lon="7.2562201"><ele>853.0</ele><time>2026-04-18T12:26:26.009Z</time></trkpt><trkpt lat="44.7307532" lon="7.2563634"><ele>851.4</ele><time>2026-04-18T12:26:28.008Z</time></trkpt><trkpt lat="44.7307053" lon="7.2565194"><ele>849.8</ele><time>2026-04-18T12:26:30.008Z</time></trkpt><trkpt lat="44.7306347" lon="7.2565799"><ele>848.2</ele><time>2026-04-18T12:26:31.008Z</time></trkpt><trkpt lat="44.730572" lon="7.256626"><ele>846.6</ele><time>2026-04-18T12:26:32.009Z</time></trkpt><trkpt lat="44.7304948" lon="7.2567551"><ele>845.0</ele><time>2026-04-18T12:26:34.008Z</time></trkpt><trkpt lat="44.7304705" lon="7.2568976"><ele>844.9999999999999</ele><time>2026-04-18T12:26:36.008Z</time></trkpt><trkpt lat="44.7304645" lon="7.2570055"><ele>845.0</ele><time>2026-04-18T12:26:37.008Z</time></trkpt><trkpt lat="44.7304694" lon="7.2571042"><ele>845.0</ele><time>2026-04-18T12:26:38.009Z</time></trkpt><trkpt lat="44.7304727" lon="7.2571951"><ele>845.0</ele><time>2026-04-18T12:26:39.009Z</time></trkpt><trkpt lat="44.7305025" lon="7.2572848"><ele>845.0</ele><time>2026-04-18T12:26:40.009Z</time></trkpt><trkpt lat="44.7305099" lon="7.2573733"><ele>844.9999999999999</ele><time>2026-04-18T12:26:41.009Z</time></trkpt><trkpt lat="44.730507" lon="7.2574674"><ele>845.0</ele><time>2026-04-18T12:26:42.009Z</time></trkpt><trkpt lat="44.73046" lon="7.2575963"><ele>846.5000000000001</ele><time>2026-04-18T12:26:43.009Z</time></trkpt><trkpt lat="44.7304077" lon="7.2576735"><ele>848.0</ele><time>2026-04-18T12:26:44.009Z</time></trkpt><trkpt lat="44.7303418" lon="7.257777"><ele>849.5</ele><time>2026-04-18T12:26:45.008Z</time></trkpt><trkpt lat="44.7302847" lon="7.2578545"><ele>851.0</ele><time>2026-04-18T12:26:46.009Z</time></trkpt><trkpt lat="44.7302401" lon="7.2579462"><ele>852.5000000000001</ele><time>2026-04-18T12:26:47.008Z</time></trkpt><trkpt lat="44.7302058" lon="7.2580377"><ele>854.0</ele><time>2026-04-18T12:26:48.009Z</time></trkpt><trkpt lat="44.7301841" lon="7.2581585"><ele>854.0000000000001</ele><time>2026-04-18T12:26:49.008Z</time></trkpt><trkpt lat="44.730146" lon="7.2582623"><ele>854.0</ele><time>2026-04-18T12:26:50.008Z</time></trkpt><trkpt lat="44.7301085" lon="7.2583642"><ele>854.0</ele><time>2026-04-18T12:26:51.009Z</time></trkpt><trkpt lat="44.7301042" lon="7.2584689"><ele>854.0</ele><time>2026-04-18T12:26:52.008Z</time></trkpt><trkpt lat="44.7301904" lon="7.2585784"><ele>854.0000000000001</ele><time>2026-04-18T12:26:53.009Z</time></trkpt><trkpt lat="44.7302139" lon="7.2586714"><ele>854.0</ele><time>2026-04-18T12:26:54.009Z</time></trkpt><trkpt lat="44.7302323" lon="7.258759"><ele>847.2</ele><time>2026-04-18T12:26:55.008Z</time></trkpt><trkpt lat="44.7302952" lon="7.2588766"><ele>840.4000000000001</ele><time>2026-04-18T12:26:57.009Z</time></trkpt><trkpt lat="44.7304021" lon="7.2588639"><ele>833.6</ele><time>2026-04-18T12:26:59.008Z</time></trkpt><trkpt lat="44.7304702" lon="7.2588153"><ele>826.8</ele><time>2026-04-18T12:27:01.008Z</time></trkpt><trkpt lat="44.7305238" lon="7.2586702"><ele>820.0</ele><time>2026-04-18T12:27:03.009Z</time></trkpt><trkpt lat="44.7305617" lon="7.2585875"><ele>820.0</ele><time>2026-04-18T12:27:04.009Z</time></trkpt><trkpt lat="44.7305882" lon="7.2584929"><ele>820.0</ele><time>2026-04-18T12:27:05.008Z</time></trkpt><trkpt lat="44.7306865" lon="7.2583529"><ele>820.0</ele><time>2026-04-18T12:27:07.008Z</time></trkpt><trkpt lat="44.7307225" lon="7.258257"><ele>820.0</ele><time>2026-04-18T12:27:08.008Z</time></trkpt><trkpt lat="44.7307696" lon="7.2581502"><ele>820.0</ele><time>2026-04-18T12:27:09.009Z</time></trkpt><trkpt lat="44.73082" lon="7.258048"><ele>821.6666666666666</ele><time>2026-04-18T12:27:10.009Z</time></trkpt><trkpt lat="44.7308705" lon="7.2579275"><ele>823.3333333333333</ele><time>2026-04-18T12:27:11.009Z</time></trkpt><trkpt lat="44.7309254" lon="7.2578204"><ele>825.0</ele><time>2026-04-18T12:27:12.008Z</time></trkpt><trkpt lat="44.7309547" lon="7.2577173"><ele>826.6666666666667</ele><time>2026-04-18T12:27:13.009Z</time></trkpt><trkpt lat="44.7310125" lon="7.2576333"><ele>828.3333333333334</ele><time>2026-04-18T12:27:14.008Z</time></trkpt><trkpt lat="44.7310465" lon="7.2575279"><ele>830.0</ele><time>2026-04-18T12:27:15.009Z</time></trkpt><trkpt lat="44.7310946" lon="7.2574201"><ele>824.8</ele><time>2026-04-18T12:27:16.009Z</time></trkpt><trkpt lat="44.7311469" lon="7.2573389"><ele>819.6</ele><time>2026-04-18T12:27:17.008Z</time></trkpt><trkpt lat="44.7311935" lon="7.2572657"><ele>814.4000000000001</ele><time>2026-04-18T12:27:18.008Z</time></trkpt><trkpt lat="44.7312786" lon="7.2571466"><ele>809.2</ele><time>2026-04-18T12:27:20.009Z</time></trkpt><trkpt lat="44.7313854" lon="7.2570529"><ele>804.0</ele><time>2026-04-18T12:27:22.009Z</time></trkpt><trkpt lat="44.7314109" lon="7.2569504"><ele>804.0</ele><time>2026-04-18T12:27:24.009Z</time></trkpt><trkpt lat="44.7314417" lon="7.2568179"><ele>804.0</ele><time>2026-04-18T12:27:26.009Z</time></trkpt><trkpt lat="44.7314714" lon="7.2567088"><ele>804.0</ele><time>2026-04-18T12:27:28.009Z</time></trkpt><trkpt lat="44.7315006" lon="7.2565995"><ele>804.0</ele><time>2026-04-18T12:27:30.009Z</time></trkpt><trkpt lat="44.7315728" lon="7.2566079"><ele>804.0</ele><time>2026-04-18T12:27:32.008Z</time></trkpt><trkpt lat="44.7316078" lon="7.2567193"><ele>804.0</ele><time>2026-04-18T12:27:34.008Z</time></trkpt><trkpt lat="44.7316315" lon="7.2568127"><ele>804.0</ele><time>2026-04-18T12:27:35.009Z</time></trkpt><trkpt lat="44.7316505" lon="7.2569581"><ele>804.0</ele><time>2026-04-18T12:27:37.008Z</time></trkpt><trkpt lat="44.731629" lon="7.2570436"><ele>804.0</ele><time>2026-04-18T12:27:38.008Z</time></trkpt><trkpt lat="44.7316054" lon="7.2572087"><ele>804.0</ele><time>2026-04-18T12:27:40.009Z</time></trkpt><trkpt lat="44.7315347" lon="7.2573447"><ele>804.0</ele><time>2026-04-18T12:27:42.009Z</time></trkpt><trkpt lat="44.7314671" lon="7.2574122"><ele>801.6</ele><time>2026-04-18T12:27:43.009Z</time></trkpt><trkpt lat="44.7314191" lon="7.2574791"><ele>799.2</ele><time>2026-04-18T12:27:44.008Z</time></trkpt><trkpt lat="44.7313507" lon="7.2576097"><ele>796.8000000000001</ele><time>2026-04-18T12:27:46.009Z</time></trkpt><trkpt lat="44.7313236" lon="7.2577427"><ele>794.4000000000001</ele><time>2026-04-18T12:27:48.009Z</time></trkpt><trkpt lat="44.7313233" lon="7.2578746"><ele>792.0</ele><time>2026-04-18T12:27:50.008Z</time></trkpt><trkpt lat="44.7313343" lon="7.2580194"><ele>789.0</ele><time>2026-04-18T12:27:52.009Z</time></trkpt><trkpt lat="44.7313502" lon="7.2581701"><ele>786.0</ele><time>2026-04-18T12:27:54.009Z</time></trkpt><trkpt lat="44.7313885" lon="7.2583233"><ele>783.0</ele><time>2026-04-18T12:27:56.007Z</time></trkpt><trkpt lat="44.7313935" lon="7.2584168"><ele>780.0</ele><time>2026-04-18T12:27:57.008Z</time></trkpt><trkpt lat="44.7313881" lon="7.2585052"><ele>777.0</ele><time>2026-04-18T12:27:58.009Z</time></trkpt><trkpt lat="44.7313871" lon="7.2586009"><ele>774.0</ele><time>2026-04-18T12:27:59.008Z</time></trkpt><trkpt lat="44.7313669" lon="7.2587094"><ele>774.0</ele><time>2026-04-18T12:28:00.008Z</time></trkpt><trkpt lat="44.7312952" lon="7.2588479"><ele>774.0</ele><time>2026-04-18T12:28:01.009Z</time></trkpt><trkpt lat="44.73127" lon="7.2589529"><ele>774.0</ele><time>2026-04-18T12:28:02.009Z</time></trkpt><trkpt lat="44.7312415" lon="7.2591395"><ele>774.0</ele><time>2026-04-18T12:28:04.008Z</time></trkpt><trkpt lat="44.7312341" lon="7.2592371"><ele>774.0</ele><time>2026-04-18T12:28:05.008Z</time></trkpt><trkpt lat="44.7312242" lon="7.2593458"><ele>771.1666666666666</ele><time>2026-04-18T12:28:06.009Z</time></trkpt><trkpt lat="44.731218" lon="7.2594535"><ele>768.3333333333334</ele><time>2026-04-18T12:28:07.008Z</time></trkpt><trkpt lat="44.7312163" lon="7.2595454"><ele>765.5</ele><time>2026-04-18T12:28:08.009Z</time></trkpt><trkpt lat="44.731204" lon="7.259636"><ele>762.6666666666667</ele><time>2026-04-18T12:28:09.009Z</time></trkpt><trkpt lat="44.7311999" lon="7.2597436"><ele>759.8333333333334</ele><time>2026-04-18T12:28:10.009Z</time></trkpt><trkpt lat="44.7311793" lon="7.2599321"><ele>757.0</ele><time>2026-04-18T12:28:12.008Z</time></trkpt><trkpt lat="44.7311378" lon="7.2600651"><ele>758.4000000000001</ele><time>2026-04-18T12:28:14.008Z</time></trkpt><trkpt lat="44.7310736" lon="7.2601971"><ele>759.8000000000001</ele><time>2026-04-18T12:28:16.009Z</time></trkpt><trkpt lat="44.731018" lon="7.2603536"><ele>761.2</ele><time>2026-04-18T12:28:18.009Z</time></trkpt><trkpt lat="44.7309763" lon="7.2604634"><ele>762.6</ele><time>2026-04-18T12:28:19.009Z</time></trkpt><trkpt lat="44.7309508" lon="7.2605583"><ele>764.0</ele><time>2026-04-18T12:28:20.008Z</time></trkpt><trkpt lat="44.7308831" lon="7.2606917"><ele>764.0</ele><time>2026-04-18T12:28:22.009Z</time></trkpt><trkpt lat="44.7308267" lon="7.2608602"><ele>764.0</ele><time>2026-04-18T12:28:24.008Z</time></trkpt><trkpt lat="44.7307941" lon="7.2609477"><ele>764.0</ele><time>2026-04-18T12:28:25.009Z</time></trkpt><trkpt lat="44.730761" lon="7.2610964"><ele>764.0</ele><time>2026-04-18T12:28:27.009Z</time></trkpt><trkpt lat="44.7307307" lon="7.2612106"><ele>764.0</ele><time>2026-04-18T12:28:29.009Z</time></trkpt><trkpt lat="44.7307055" lon="7.2613284"><ele>764.0</ele><time>2026-04-18T12:28:31.009Z</time></trkpt><trkpt lat="44.7307412" lon="7.2614314"><ele>764.0</ele><time>2026-04-18T12:29:28.009Z</time></trkpt><trkpt lat="44.7307602" lon="7.2615316"><ele>764.0</ele><time>2026-04-18T12:29:30.009Z</time></trkpt><trkpt lat="44.7307827" lon="7.261645"><ele>764.0</ele><time>2026-04-18T12:29:32.009Z</time></trkpt><trkpt lat="44.7307936" lon="7.2617619"><ele>764.0</ele><time>2026-04-18T12:29:35.009Z</time></trkpt><trkpt lat="44.7307455" lon="7.2618607"><ele>764.0</ele><time>2026-04-18T12:29:37.008Z</time></trkpt><trkpt lat="44.7306754" lon="7.2619216"><ele>759.8000000000001</ele><time>2026-04-18T12:29:38.008Z</time></trkpt><trkpt lat="44.7306068" lon="7.2620276"><ele>755.6</ele><time>2026-04-18T12:29:40.009Z</time></trkpt><trkpt lat="44.7305309" lon="7.262163"><ele>751.4</ele><time>2026-04-18T12:29:42.009Z</time></trkpt><trkpt lat="44.7304789" lon="7.2622651"><ele>747.2</ele><time>2026-04-18T12:29:43.008Z</time></trkpt><trkpt lat="44.7304307" lon="7.2623632"><ele>743.0</ele><time>2026-04-18T12:29:44.009Z</time></trkpt><trkpt lat="44.7303868" lon="7.2624498"><ele>743.2</ele><time>2026-04-18T12:29:45.009Z</time></trkpt><trkpt lat="44.7303374" lon="7.262533"><ele>743.4</ele><time>2026-04-18T12:29:46.008Z</time></trkpt><trkpt lat="44.7302777" lon="7.2626399"><ele>743.6</ele><time>2026-04-18T12:29:48.009Z</time></trkpt><trkpt lat="44.7301881" lon="7.2626658"><ele>743.8000000000001</ele><time>2026-04-18T12:29:50.008Z</time></trkpt><trkpt lat="44.7300861" lon="7.2626164"><ele>744.0</ele><time>2026-04-18T12:29:52.008Z</time></trkpt><trkpt lat="44.7299858" lon="7.2625599"><ele>744.0</ele><time>2026-04-18T12:29:54.008Z</time></trkpt><trkpt lat="44.7298754" lon="7.2625404"><ele>744.0</ele><time>2026-04-18T12:29:56.009Z</time></trkpt><trkpt lat="44.7297933" lon="7.2625317"><ele>744.0</ele><time>2026-04-18T12:29:58.008Z</time></trkpt><trkpt lat="44.7297138" lon="7.262529"><ele>744.0</ele><time>2026-04-18T12:30:00.008Z</time></trkpt><trkpt lat="44.7296468" lon="7.2625509"><ele>744.0</ele><time>2026-04-18T12:30:02.009Z</time></trkpt><trkpt lat="44.7295852" lon="7.2626117"><ele>744.0</ele><time>2026-04-18T12:30:04.007Z</time></trkpt><trkpt lat="44.729574" lon="7.2627135"><ele>744.0</ele><time>2026-04-18T12:30:06.008Z</time></trkpt><trkpt lat="44.7296238" lon="7.262884"><ele>744.0</ele><time>2026-04-18T12:30:09.009Z</time></trkpt><trkpt lat="44.7296855" lon="7.2629762"><ele>744.0</ele><time>2026-04-18T12:30:10.009Z</time></trkpt><trkpt lat="44.7296874" lon="7.2630761"><ele>744.0</ele><time>2026-04-18T12:30:11.008Z</time></trkpt><trkpt lat="44.7297063" lon="7.2631708"><ele>744.0</ele><time>2026-04-18T12:30:12.009Z</time></trkpt><trkpt lat="44.7297488" lon="7.2633769"><ele>740.2</ele><time>2026-04-18T12:30:14.008Z</time></trkpt><trkpt lat="44.7297745" lon="7.2635256"><ele>736.4000000000001</ele><time>2026-04-18T12:30:15.008Z</time></trkpt><trkpt lat="44.7297973" lon="7.2636544"><ele>732.6</ele><time>2026-04-18T12:30:16.009Z</time></trkpt><trkpt lat="44.7298225" lon="7.2638039"><ele>728.8</ele><time>2026-04-18T12:30:17.008Z</time></trkpt><trkpt lat="44.729842" lon="7.2639232"><ele>725.0</ele><time>2026-04-18T12:30:18.009Z</time></trkpt><trkpt lat="44.7298409" lon="7.2640684"><ele>722.4</ele><time>2026-04-18T12:30:20.009Z</time></trkpt><trkpt lat="44.7298351" lon="7.2642025"><ele>719.8</ele><time>2026-04-18T12:30:22.008Z</time></trkpt><trkpt lat="44.7298165" lon="7.264291"><ele>717.2</ele><time>2026-04-18T12:30:23.008Z</time></trkpt><trkpt lat="44.7297633" lon="7.2644221"><ele>714.6</ele><time>2026-04-18T12:30:25.008Z</time></trkpt><trkpt lat="44.7296883" lon="7.2645569"><ele>712.0</ele><time>2026-04-18T12:30:27.009Z</time></trkpt><trkpt lat="44.7296403" lon="7.2646196"><ele>712.0</ele><time>2026-04-18T12:30:28.007Z</time></trkpt><trkpt lat="44.7295891" lon="7.2646778"><ele>712.0</ele><time>2026-04-18T12:30:29.008Z</time></trkpt><trkpt lat="44.7294734" lon="7.2647846"><ele>712.0</ele><time>2026-04-18T12:30:31.009Z</time></trkpt><trkpt lat="44.7293674" lon="7.2648852"><ele>712.0</ele><time>2026-04-18T12:30:33.008Z</time></trkpt><trkpt lat="44.7292734" lon="7.2649436"><ele>712.0</ele><time>2026-04-18T12:30:35.009Z</time></trkpt><trkpt lat="44.7291695" lon="7.2649322"><ele>710.0</ele><time>2026-04-18T12:30:37.009Z</time></trkpt><trkpt lat="44.7290755" lon="7.2649349"><ele>708.0</ele><time>2026-04-18T12:30:39.009Z</time></trkpt><trkpt lat="44.7289877" lon="7.2649792"><ele>706.0</ele><time>2026-04-18T12:30:41.009Z</time></trkpt><trkpt lat="44.7288764" lon="7.2650632"><ele>704.0</ele><time>2026-04-18T12:30:43.008Z</time></trkpt><trkpt lat="44.7288" lon="7.2651796"><ele>702.0</ele><time>2026-04-18T12:30:45.009Z</time></trkpt><trkpt lat="44.7287365" lon="7.2653284"><ele>702.0</ele><time>2026-04-18T12:30:47.009Z</time></trkpt><trkpt lat="44.7286793" lon="7.2654436"><ele>702.0</ele><time>2026-04-18T12:30:48.009Z</time></trkpt><trkpt lat="44.7286216" lon="7.2656107"><ele>702.0</ele><time>2026-04-18T12:30:50.008Z</time></trkpt><trkpt lat="44.7285577" lon="7.2656806"><ele>702.0</ele><time>2026-04-18T12:30:51.009Z</time></trkpt><trkpt lat="44.7284948" lon="7.2657618"><ele>702.0</ele><time>2026-04-18T12:30:53.008Z</time></trkpt><trkpt lat="44.7284441" lon="7.2658282"><ele>700.6</ele><time>2026-04-18T12:30:55.009Z</time></trkpt><trkpt lat="44.7284944" lon="7.2658924"><ele>699.2</ele><time>2026-04-18T12:30:58.009Z</time></trkpt><trkpt lat="44.7285661" lon="7.265813"><ele>697.8</ele><time>2026-04-18T12:31:01.008Z</time></trkpt><trkpt lat="44.7286355" lon="7.2657276"><ele>696.4</ele><time>2026-04-18T12:31:04.009Z</time></trkpt><trkpt lat="44.7287722" lon="7.2657016"><ele>695.0</ele><time>2026-04-18T12:31:06.009Z</time></trkpt><trkpt lat="44.7288591" lon="7.2657085"><ele>693.1666666666666</ele><time>2026-04-18T12:31:07.009Z</time></trkpt><trkpt lat="44.7289305" lon="7.2657168"><ele>691.3333333333333</ele><time>2026-04-18T12:31:08.009Z</time></trkpt><trkpt lat="44.7290021" lon="7.2657335"><ele>689.5</ele><time>2026-04-18T12:31:09.009Z</time></trkpt><trkpt lat="44.7290766" lon="7.2657544"><ele>687.6666666666666</ele><time>2026-04-18T12:31:10.009Z</time></trkpt><trkpt lat="44.7291467" lon="7.2657663"><ele>685.8333333333334</ele><time>2026-04-18T12:31:11.008Z</time></trkpt><trkpt lat="44.7292509" lon="7.2657915"><ele>684.0</ele><time>2026-04-18T12:31:13.008Z</time></trkpt><trkpt lat="44.7293244" lon="7.2658868"><ele>684.0</ele><time>2026-04-18T12:31:15.009Z</time></trkpt><trkpt lat="44.7293798" lon="7.266011"><ele>684.0</ele><time>2026-04-18T12:31:17.008Z</time></trkpt><trkpt lat="44.7294006" lon="7.266097"><ele>684.0</ele><time>2026-04-18T12:31:19.009Z</time></trkpt><trkpt lat="44.7294088" lon="7.2662455"><ele>684.0</ele><time>2026-04-18T12:32:11.009Z</time></trkpt><trkpt lat="44.7293819" lon="7.2664206"><ele>684.0</ele><time>2026-04-18T12:32:13.008Z</time></trkpt><trkpt lat="44.7293538" lon="7.2665393"><ele>683.6666666666666</ele><time>2026-04-18T12:32:14.008Z</time></trkpt><trkpt lat="44.7293327" lon="7.2666362"><ele>683.3333333333334</ele><time>2026-04-18T12:32:15.009Z</time></trkpt><trkpt lat="44.7292909" lon="7.2667374"><ele>683.0</ele><time>2026-04-18T12:32:16.009Z</time></trkpt><trkpt lat="44.7292505" lon="7.2668442"><ele>682.6666666666667</ele><time>2026-04-18T12:32:19.009Z</time></trkpt><trkpt lat="44.7292082" lon="7.2669476"><ele>682.3333333333334</ele><time>2026-04-18T12:32:45.008Z</time></trkpt><trkpt lat="44.7291798" lon="7.2670659"><ele>682.0</ele><time>2026-04-18T12:32:47.009Z</time></trkpt><trkpt lat="44.7291281" lon="7.2672863"><ele>681.5</ele><time>2026-04-18T12:32:49.01Z</time></trkpt><trkpt lat="44.7290944" lon="7.2673994"><ele>681.0</ele><time>2026-04-18T12:32:50.009Z</time></trkpt><trkpt lat="44.7290668" lon="7.267503"><ele>680.5</ele><time>2026-04-18T12:32:51.01Z</time></trkpt><trkpt lat="44.7290347" lon="7.26761"><ele>680.0</ele><time>2026-04-18T12:32:52.009Z</time></trkpt><trkpt lat="44.7289955" lon="7.2677094"><ele>679.5</ele><time>2026-04-18T12:32:53.01Z</time></trkpt><trkpt lat="44.7289694" lon="7.2678177"><ele>679.0</ele><time>2026-04-18T12:32:54.01Z</time></trkpt><trkpt lat="44.7289631" lon="7.2679198"><ele>679.0</ele><time>2026-04-18T12:32:55.01Z</time></trkpt><trkpt lat="44.7289423" lon="7.2680272"><ele>679.0</ele><time>2026-04-18T12:32:56.009Z</time></trkpt><trkpt lat="44.7289436" lon="7.2681601"><ele>679.0</ele><time>2026-04-18T12:32:57.01Z</time></trkpt><trkpt lat="44.7289785" lon="7.2682622"><ele>679.0</ele><time>2026-04-18T12:32:58.009Z</time></trkpt><trkpt lat="44.728987" lon="7.268371"><ele>679.0</ele><time>2026-04-18T12:32:59.009Z</time></trkpt><trkpt lat="44.7290325" lon="7.2684794"><ele>679.0</ele><time>2026-04-18T12:33:00.009Z</time></trkpt><trkpt lat="44.729069" lon="7.2685927"><ele>677.0</ele><time>2026-04-18T12:33:01.009Z</time></trkpt><trkpt lat="44.7291184" lon="7.2687037"><ele>675.0</ele><time>2026-04-18T12:33:02.009Z</time></trkpt><trkpt lat="44.7291728" lon="7.2687922"><ele>673.0</ele><time>2026-04-18T12:33:03.01Z</time></trkpt><trkpt lat="44.7291861" lon="7.2689171"><ele>671.0</ele><time>2026-04-18T12:33:04.01Z</time></trkpt><trkpt lat="44.729234" lon="7.2690226"><ele>669.0</ele><time>2026-04-18T12:33:05.009Z</time></trkpt><trkpt lat="44.7292771" lon="7.2691109"><ele>667.0</ele><time>2026-04-18T12:33:06.009Z</time></trkpt><trkpt lat="44.7293036" lon="7.2692108"><ele>664.8</ele><time>2026-04-18T12:33:07.009Z</time></trkpt><trkpt lat="44.7293473" lon="7.2693041"><ele>662.6</ele><time>2026-04-18T12:33:08.009Z</time></trkpt><trkpt lat="44.7294054" lon="7.2694044"><ele>660.4</ele><time>2026-04-18T12:33:10.01Z</time></trkpt><trkpt lat="44.7294184" lon="7.2695852"><ele>658.1999999999999</ele><time>2026-04-18T12:33:12.01Z</time></trkpt><trkpt lat="44.7294124" lon="7.2694807"><ele>656.0</ele><time>2026-04-18T12:33:13.01Z</time></trkpt><trkpt lat="44.7294501" lon="7.2695883"><ele>656.8</ele><time>2026-04-18T12:33:27.009Z</time></trkpt><trkpt lat="44.729471" lon="7.2696776"><ele>657.5999999999999</ele><time>2026-04-18T12:33:30.01Z</time></trkpt><trkpt lat="44.7294391" lon="7.2697653"><ele>658.4</ele><time>2026-04-18T12:33:35.01Z</time></trkpt><trkpt lat="44.7294012" lon="7.2698465"><ele>659.2</ele><time>2026-04-18T12:33:37.008Z</time></trkpt><trkpt lat="44.7294044" lon="7.2700743"><ele>660.0</ele><time>2026-04-18T12:33:39.01Z</time></trkpt><trkpt lat="44.7294593" lon="7.2702267"><ele>660.0</ele><time>2026-04-18T12:33:41.008Z</time></trkpt><trkpt lat="44.7295295" lon="7.2703225"><ele>660.0</ele><time>2026-04-18T12:33:42.01Z</time></trkpt><trkpt lat="44.7296068" lon="7.2704646"><ele>660.0</ele><time>2026-04-18T12:33:44.01Z</time></trkpt><trkpt lat="44.7296646" lon="7.2705638"><ele>660.0</ele><time>2026-04-18T12:33:45.01Z</time></trkpt><trkpt lat="44.7297219" lon="7.2706658"><ele>660.0</ele><time>2026-04-18T12:33:46.009Z</time></trkpt><trkpt lat="44.729767" lon="7.270746"><ele>657.5</ele><time>2026-04-18T12:33:47.01Z</time></trkpt><trkpt lat="44.7297901" lon="7.2708361"><ele>655.0</ele><time>2026-04-18T12:33:48.01Z</time></trkpt><trkpt lat="44.7298106" lon="7.2709271"><ele>652.5</ele><time>2026-04-18T12:33:49.009Z</time></trkpt><trkpt lat="44.7297754" lon="7.2710893"><ele>650.0</ele><time>2026-04-18T12:33:51.01Z</time></trkpt><trkpt lat="44.7297513" lon="7.2711785"><ele>647.5</ele><time>2026-04-18T12:33:52.01Z</time></trkpt><trkpt lat="44.7297428" lon="7.2713416"><ele>645.0</ele><time>2026-04-18T12:33:54.009Z</time></trkpt><trkpt lat="44.7297817" lon="7.2715053"><ele>644.5714285714286</ele><time>2026-04-18T12:33:56.01Z</time></trkpt><trkpt lat="44.7298153" lon="7.2716021"><ele>644.1428571428571</ele><time>2026-04-18T12:33:57.01Z</time></trkpt><trkpt lat="44.7298525" lon="7.2716856"><ele>643.7142857142857</ele><time>2026-04-18T12:33:58.01Z</time></trkpt><trkpt lat="44.729892" lon="7.2717587"><ele>643.2857142857142</ele><time>2026-04-18T12:33:59.009Z</time></trkpt><trkpt lat="44.7299347" lon="7.2718264"><ele>642.8571428571429</ele><time>2026-04-18T12:34:00.01Z</time></trkpt><trkpt lat="44.7300029" lon="7.2718789"><ele>642.4285714285713</ele><time>2026-04-18T12:34:01.009Z</time></trkpt><trkpt lat="44.7300653" lon="7.2719325"><ele>642.0</ele><time>2026-04-18T12:34:02.01Z</time></trkpt><trkpt lat="44.7301251" lon="7.2719917"><ele>642.0</ele><time>2026-04-18T12:34:03.009Z</time></trkpt><trkpt lat="44.7301925" lon="7.2720499"><ele>642.0</ele><time>2026-04-18T12:34:04.01Z</time></trkpt><trkpt lat="44.7302661" lon="7.2721107"><ele>642.0</ele><time>2026-04-18T12:34:05.008Z</time></trkpt><trkpt lat="44.7303253" lon="7.2721696"><ele>642.0</ele><time>2026-04-18T12:34:06.009Z</time></trkpt><trkpt lat="44.7303637" lon="7.2722523"><ele>642.0</ele><time>2026-04-18T12:34:07.009Z</time></trkpt><trkpt lat="44.7304062" lon="7.2723427"><ele>642.0</ele><time>2026-04-18T12:34:08.009Z</time></trkpt><trkpt lat="44.730425" lon="7.2724359"><ele>640.6</ele><time>2026-04-18T12:34:09.01Z</time></trkpt><trkpt lat="44.7304523" lon="7.2725458"><ele>639.2</ele><time>2026-04-18T12:34:10.01Z</time></trkpt><trkpt lat="44.7304351" lon="7.2727252"><ele>637.8</ele><time>2026-04-18T12:34:11.009Z</time></trkpt><trkpt lat="44.730463" lon="7.2728704"><ele>636.4</ele><time>2026-04-18T12:34:12.01Z</time></trkpt><trkpt lat="44.7304743" lon="7.2730125"><ele>635.0</ele><time>2026-04-18T12:34:13.01Z</time></trkpt><trkpt lat="44.7304859" lon="7.2731803"><ele>633.8</ele><time>2026-04-18T12:34:14.01Z</time></trkpt><trkpt lat="44.7304673" lon="7.2733428"><ele>632.6</ele><time>2026-04-18T12:34:15.009Z</time></trkpt><trkpt lat="44.7304539" lon="7.2734936"><ele>631.4</ele><time>2026-04-18T12:34:16.01Z</time></trkpt><trkpt lat="44.730448" lon="7.2736345"><ele>630.2</ele><time>2026-04-18T12:34:17.01Z</time></trkpt><trkpt lat="44.7304388" lon="7.2737799"><ele>629.0</ele><time>2026-04-18T12:34:18.009Z</time></trkpt><trkpt lat="44.7304229" lon="7.2739122"><ele>627.2</ele><time>2026-04-18T12:34:19.009Z</time></trkpt><trkpt lat="44.7304137" lon="7.2740587"><ele>625.4</ele><time>2026-04-18T12:34:20.01Z</time></trkpt><trkpt lat="44.7303885" lon="7.2742221"><ele>623.6</ele><time>2026-04-18T12:34:21.01Z</time></trkpt><trkpt lat="44.7303775" lon="7.2743718"><ele>621.8</ele><time>2026-04-18T12:34:22.01Z</time></trkpt><trkpt lat="44.7303461" lon="7.2745026"><ele>620.0</ele><time>2026-04-18T12:34:23.009Z</time></trkpt><trkpt lat="44.7303257" lon="7.2746231"><ele>620.0</ele><time>2026-04-18T12:34:24.01Z</time></trkpt><trkpt lat="44.7303169" lon="7.2747596"><ele>620.0</ele><time>2026-04-18T12:34:25.01Z</time></trkpt><trkpt lat="44.7303129" lon="7.2748798"><ele>620.0</ele><time>2026-04-18T12:34:26.01Z</time></trkpt><trkpt lat="44.7303214" lon="7.2749901"><ele>620.0</ele><time>2026-04-18T12:34:27.01Z</time></trkpt><trkpt lat="44.7303382" lon="7.275123"><ele>620.0</ele><time>2026-04-18T12:34:28.01Z</time></trkpt><trkpt lat="44.7303541" lon="7.2752535"><ele>619.2</ele><time>2026-04-18T12:34:29.01Z</time></trkpt><trkpt lat="44.7303809" lon="7.2753938"><ele>618.4</ele><time>2026-04-18T12:34:30.01Z</time></trkpt><trkpt lat="44.7303938" lon="7.2755353"><ele>617.6</ele><time>2026-04-18T12:34:31.01Z</time></trkpt><trkpt lat="44.7304191" lon="7.2756678"><ele>616.8</ele><time>2026-04-18T12:34:32.01Z</time></trkpt><trkpt lat="44.7304547" lon="7.2757982"><ele>616.0</ele><time>2026-04-18T12:34:33.009Z</time></trkpt><trkpt lat="44.7304926" lon="7.2759314"><ele>614.8</ele><time>2026-04-18T12:34:34.009Z</time></trkpt><trkpt lat="44.7305296" lon="7.2760467"><ele>613.6</ele><time>2026-04-18T12:34:35.01Z</time></trkpt><trkpt lat="44.7305675" lon="7.2761641"><ele>612.4</ele><time>2026-04-18T12:34:36.009Z</time></trkpt><trkpt lat="44.7306067" lon="7.2762852"><ele>611.2</ele><time>2026-04-18T12:34:37.009Z</time></trkpt><trkpt lat="44.7305964" lon="7.2764439"><ele>610.0</ele><time>2026-04-18T12:34:38.01Z</time></trkpt><trkpt lat="44.7306017" lon="7.2766028"><ele>609.2</ele><time>2026-04-18T12:34:39.01Z</time></trkpt><trkpt lat="44.7305788" lon="7.2767558"><ele>608.4</ele><time>2026-04-18T12:34:40.008Z</time></trkpt><trkpt lat="44.7305565" lon="7.2769045"><ele>607.6</ele><time>2026-04-18T12:34:41.01Z</time></trkpt><trkpt lat="44.7305575" lon="7.2770613"><ele>606.8</ele><time>2026-04-18T12:34:42.01Z</time></trkpt><trkpt lat="44.7305456" lon="7.2771915"><ele>606.0</ele><time>2026-04-18T12:34:43.009Z</time></trkpt><trkpt lat="44.7305841" lon="7.2773473"><ele>604.5</ele><time>2026-04-18T12:34:44.01Z</time></trkpt><trkpt lat="44.7305918" lon="7.2774945"><ele>603.0</ele><time>2026-04-18T12:34:45.01Z</time></trkpt><trkpt lat="44.7305739" lon="7.2776642"><ele>601.5</ele><time>2026-04-18T12:34:46.008Z</time></trkpt><trkpt lat="44.7305593" lon="7.2778328"><ele>600.0</ele><time>2026-04-18T12:34:47.009Z</time></trkpt><trkpt lat="44.7305374" lon="7.2779778"><ele>599.0</ele><time>2026-04-18T12:34:48.009Z</time></trkpt><trkpt lat="44.730533" lon="7.2781218"><ele>598.0</ele><time>2026-04-18T12:34:49.01Z</time></trkpt><trkpt lat="44.7305373" lon="7.2782771"><ele>597.0</ele><time>2026-04-18T12:34:50.01Z</time></trkpt><trkpt lat="44.7305636" lon="7.2784069"><ele>596.0</ele><time>2026-04-18T12:34:51.01Z</time></trkpt><trkpt lat="44.7306046" lon="7.2785295"><ele>595.0</ele><time>2026-04-18T12:34:52.01Z</time></trkpt><trkpt lat="44.7306534" lon="7.2786363"><ele>595.0</ele><time>2026-04-18T12:34:53.009Z</time></trkpt><trkpt lat="44.7307087" lon="7.2787232"><ele>595.0</ele><time>2026-04-18T12:34:54.01Z</time></trkpt><trkpt lat="44.7307413" lon="7.2788124"><ele>595.0</ele><time>2026-04-18T12:34:55.01Z</time></trkpt><trkpt lat="44.7307598" lon="7.2789214"><ele>595.0</ele><time>2026-04-18T12:34:56.01Z</time></trkpt><trkpt lat="44.730773" lon="7.2790608"><ele>595.0</ele><time>2026-04-18T12:34:57.009Z</time></trkpt><trkpt lat="44.7307848" lon="7.2792138"><ele>595.0</ele><time>2026-04-18T12:34:58.01Z</time></trkpt><trkpt lat="44.7308039" lon="7.2794227"><ele>594.75</ele><time>2026-04-18T12:34:59.009Z</time></trkpt><trkpt lat="44.7308031" lon="7.279615"><ele>594.5</ele><time>2026-04-18T12:35:00.009Z</time></trkpt><trkpt lat="44.7308075" lon="7.2797956"><ele>594.25</ele><time>2026-04-18T12:35:01.01Z</time></trkpt><trkpt lat="44.7308003" lon="7.2799846"><ele>594.0</ele><time>2026-04-18T12:35:02.01Z</time></trkpt><trkpt lat="44.7307964" lon="7.2801768"><ele>593.75</ele><time>2026-04-18T12:35:03.01Z</time></trkpt><trkpt lat="44.7307964" lon="7.2803673"><ele>593.5</ele><time>2026-04-18T12:35:04.009Z</time></trkpt><trkpt lat="44.7308022" lon="7.2805516"><ele>593.25</ele><time>2026-04-18T12:35:05.01Z</time></trkpt><trkpt lat="44.7308076" lon="7.280753"><ele>593.0</ele><time>2026-04-18T12:35:06.01Z</time></trkpt><trkpt lat="44.7307984" lon="7.2809712"><ele>592.25</ele><time>2026-04-18T12:35:07.009Z</time></trkpt><trkpt lat="44.7307803" lon="7.2811503"><ele>591.5</ele><time>2026-04-18T12:35:08.01Z</time></trkpt><trkpt lat="44.7307645" lon="7.2813366"><ele>590.75</ele><time>2026-04-18T12:35:09.009Z</time></trkpt><trkpt lat="44.7307595" lon="7.2815039"><ele>590.0</ele><time>2026-04-18T12:35:10.01Z</time></trkpt><trkpt lat="44.7307567" lon="7.2816618"><ele>588.6</ele><time>2026-04-18T12:35:11.009Z</time></trkpt><trkpt lat="44.7307671" lon="7.2818048"><ele>587.2</ele><time>2026-04-18T12:35:12.01Z</time></trkpt><trkpt lat="44.7307858" lon="7.2819392"><ele>585.8</ele><time>2026-04-18T12:35:13.01Z</time></trkpt><trkpt lat="44.7308159" lon="7.2821033"><ele>584.4</ele><time>2026-04-18T12:35:14.01Z</time></trkpt><trkpt lat="44.7308218" lon="7.2822789"><ele>583.0</ele><time>2026-04-18T12:35:15.01Z</time></trkpt><trkpt lat="44.7308226" lon="7.2824397"><ele>582.1999999999999</ele><time>2026-04-18T12:35:16.01Z</time></trkpt><trkpt lat="44.7308051" lon="7.2825865"><ele>581.4</ele><time>2026-04-18T12:35:17.01Z</time></trkpt><trkpt lat="44.7307988" lon="7.2827311"><ele>580.5999999999999</ele><time>2026-04-18T12:35:18.01Z</time></trkpt><trkpt lat="44.7307981" lon="7.282861"><ele>579.8</ele><time>2026-04-18T12:35:19.009Z</time></trkpt><trkpt lat="44.7308069" lon="7.282991"><ele>579.0</ele><time>2026-04-18T12:35:20.009Z</time></trkpt><trkpt lat="44.730819" lon="7.2831422"><ele>579.0</ele><time>2026-04-18T12:35:21.01Z</time></trkpt><trkpt lat="44.730836" lon="7.2833128"><ele>579.0</ele><time>2026-04-18T12:35:22.01Z</time></trkpt><trkpt lat="44.7308547" lon="7.2834776"><ele>579.0</ele><time>2026-04-18T12:35:23.01Z</time></trkpt><trkpt lat="44.7308769" lon="7.2836553"><ele>579.0</ele><time>2026-04-18T12:35:24.009Z</time></trkpt><trkpt lat="44.7308919" lon="7.2838086"><ele>579.5</ele><time>2026-04-18T12:35:25.01Z</time></trkpt><trkpt lat="44.7309116" lon="7.2839938"><ele>580.0</ele><time>2026-04-18T12:35:26.009Z</time></trkpt><trkpt lat="44.7309241" lon="7.2841907"><ele>580.5</ele><time>2026-04-18T12:35:27.01Z</time></trkpt><trkpt lat="44.7309374" lon="7.2843739"><ele>581.0</ele><time>2026-04-18T12:35:28.009Z</time></trkpt><trkpt lat="44.7309457" lon="7.2845653"><ele>576.6666666666666</ele><time>2026-04-18T12:35:29.01Z</time></trkpt><trkpt lat="44.730965" lon="7.284773"><ele>572.3333333333334</ele><time>2026-04-18T12:35:30.009Z</time></trkpt><trkpt lat="44.7309941" lon="7.2849781"><ele>568.0</ele><time>2026-04-18T12:35:31.01Z</time></trkpt><trkpt lat="44.7310129" lon="7.2851985"><ele>568.0</ele><time>2026-04-18T12:35:32.01Z</time></trkpt><trkpt lat="44.7310314" lon="7.2854187"><ele>568.0</ele><time>2026-04-18T12:35:33.01Z</time></trkpt><trkpt lat="44.7310554" lon="7.285644"><ele>568.0</ele><time>2026-04-18T12:35:34.009Z</time></trkpt><trkpt lat="44.7310665" lon="7.2858702"><ele>561.0</ele><time>2026-04-18T12:35:35.009Z</time></trkpt><trkpt lat="44.7310534" lon="7.286118"><ele>554.0</ele><time>2026-04-18T12:35:36.009Z</time></trkpt><trkpt lat="44.7310113" lon="7.2863892"><ele>547.0</ele><time>2026-04-18T12:35:37.009Z</time></trkpt><trkpt lat="44.7309584" lon="7.2866688"><ele>543.6666666666667</ele><time>2026-04-18T12:35:38.009Z</time></trkpt><trkpt lat="44.7309129" lon="7.2869339"><ele>540.3333333333334</ele><time>2026-04-18T12:35:39.009Z</time></trkpt><trkpt lat="44.7308687" lon="7.2871997"><ele>537.0</ele><time>2026-04-18T12:35:40.009Z</time></trkpt><trkpt lat="44.7308246" lon="7.2874495"><ele>536.0</ele><time>2026-04-18T12:35:41.009Z</time></trkpt><trkpt lat="44.7307792" lon="7.2876952"><ele>535.0</ele><time>2026-04-18T12:35:42.01Z</time></trkpt><trkpt lat="44.7307372" lon="7.2879278"><ele>534.0</ele><time>2026-04-18T12:35:43.01Z</time></trkpt><trkpt lat="44.7306951" lon="7.2881532"><ele>533.3333333333334</ele><time>2026-04-18T12:35:44.009Z</time></trkpt><trkpt lat="44.7306538" lon="7.2883808"><ele>532.6666666666667</ele><time>2026-04-18T12:35:45.009Z</time></trkpt><trkpt lat="44.7306115" lon="7.2886097"><ele>532.0</ele><time>2026-04-18T12:35:46.01Z</time></trkpt><trkpt lat="44.7305692" lon="7.2888416"><ele>529.3333333333334</ele><time>2026-04-18T12:35:47.01Z</time></trkpt><trkpt lat="44.7305264" lon="7.2890816"><ele>526.6666666666666</ele><time>2026-04-18T12:35:48.01Z</time></trkpt><trkpt lat="44.7304798" lon="7.289335"><ele>524.0</ele><time>2026-04-18T12:35:49.008Z</time></trkpt><trkpt lat="44.7304322" lon="7.2895797"><ele>523.0</ele><time>2026-04-18T12:35:50.01Z</time></trkpt><trkpt lat="44.7303909" lon="7.2897955"><ele>522.0</ele><time>2026-04-18T12:35:51.01Z</time></trkpt><trkpt lat="44.7303588" lon="7.2899913"><ele>521.0</ele><time>2026-04-18T12:35:52.009Z</time></trkpt><trkpt lat="44.7303238" lon="7.2901838"><ele>520.0</ele><time>2026-04-18T12:35:53.01Z</time></trkpt><trkpt lat="44.7302912" lon="7.2903692"><ele>520.0</ele><time>2026-04-18T12:35:54.01Z</time></trkpt><trkpt lat="44.7302585" lon="7.2905457"><ele>520.0</ele><time>2026-04-18T12:35:55.01Z</time></trkpt><trkpt lat="44.7302268" lon="7.2907169"><ele>520.0</ele><time>2026-04-18T12:35:56.009Z</time></trkpt><trkpt lat="44.730195" lon="7.2908866"><ele>520.0</ele><time>2026-04-18T12:35:57.01Z</time></trkpt><trkpt lat="44.7301608" lon="7.2910484"><ele>519.0</ele><time>2026-04-18T12:35:58.01Z</time></trkpt><trkpt lat="44.7301026" lon="7.2911952"><ele>518.0</ele><time>2026-04-18T12:35:59.01Z</time></trkpt><trkpt lat="44.7300312" lon="7.2913325"><ele>517.0</ele><time>2026-04-18T12:36:00.01Z</time></trkpt><trkpt lat="44.729944" lon="7.2914515"><ele>516.0</ele><time>2026-04-18T12:36:01.01Z</time></trkpt><trkpt lat="44.7298339" lon="7.2915776"><ele>514.75</ele><time>2026-04-18T12:36:02.01Z</time></trkpt><trkpt lat="44.7297233" lon="7.291691"><ele>513.5</ele><time>2026-04-18T12:36:03.01Z</time></trkpt><trkpt lat="44.7296223" lon="7.291806"><ele>512.25</ele><time>2026-04-18T12:36:04.01Z</time></trkpt><trkpt lat="44.7295253" lon="7.2919296"><ele>511.0</ele><time>2026-04-18T12:36:05.009Z</time></trkpt><trkpt lat="44.7294318" lon="7.2920584"><ele>510.5</ele><time>2026-04-18T12:36:06.01Z</time></trkpt><trkpt lat="44.7293529" lon="7.2922094"><ele>510.0</ele><time>2026-04-18T12:36:07.009Z</time></trkpt><trkpt lat="44.7292813" lon="7.2923867"><ele>509.5</ele><time>2026-04-18T12:36:08.01Z</time></trkpt><trkpt lat="44.7292094" lon="7.2925742"><ele>509.0</ele><time>2026-04-18T12:36:09.009Z</time></trkpt><trkpt lat="44.7291387" lon="7.292751"><ele>508.0</ele><time>2026-04-18T12:36:10.01Z</time></trkpt><trkpt lat="44.7290756" lon="7.2929027"><ele>507.0</ele><time>2026-04-18T12:36:11.009Z</time></trkpt><trkpt lat="44.7290255" lon="7.2930396"><ele>506.0</ele><time>2026-04-18T12:36:12.009Z</time></trkpt><trkpt lat="44.7289771" lon="7.2931659"><ele>505.0</ele><time>2026-04-18T12:36:13.01Z</time></trkpt><trkpt lat="44.7289377" lon="7.2932763"><ele>504.0</ele><time>2026-04-18T12:36:14.009Z</time></trkpt><trkpt lat="44.7289055" lon="7.2933563"><ele>503.6666666666667</ele><time>2026-04-18T12:36:15.01Z</time></trkpt><trkpt lat="44.7288578" lon="7.2934502"><ele>503.33333333333337</ele><time>2026-04-18T12:36:17.009Z</time></trkpt><trkpt lat="44.7288219" lon="7.2935376"><ele>503.0</ele><time>2026-04-18T12:37:39.01Z</time></trkpt><trkpt lat="44.7287956" lon="7.2936354"><ele>502.6666666666667</ele><time>2026-04-18T12:37:41.009Z</time></trkpt><trkpt lat="44.728769" lon="7.2937643"><ele>502.33333333333337</ele><time>2026-04-18T12:37:43.009Z</time></trkpt><trkpt lat="44.7287382" lon="7.293933"><ele>502.0</ele><time>2026-04-18T12:37:45.009Z</time></trkpt><trkpt lat="44.7287285" lon="7.2940662"><ele>501.0</ele><time>2026-04-18T12:37:46.009Z</time></trkpt><trkpt lat="44.7287247" lon="7.2942042"><ele>500.00000000000006</ele><time>2026-04-18T12:37:47.009Z</time></trkpt><trkpt lat="44.7287261" lon="7.2943461"><ele>499.00000000000006</ele><time>2026-04-18T12:37:48.01Z</time></trkpt><trkpt lat="44.7287416" lon="7.2944946"><ele>498.0</ele><time>2026-04-18T12:37:49.01Z</time></trkpt><trkpt lat="44.7287887" lon="7.2946619"><ele>497.0</ele><time>2026-04-18T12:37:50.01Z</time></trkpt><trkpt lat="44.7288734" lon="7.2948486"><ele>496.0</ele><time>2026-04-18T12:37:51.01Z</time></trkpt><trkpt lat="44.7289997" lon="7.295079"><ele>495.0</ele><time>2026-04-18T12:37:52.009Z</time></trkpt><trkpt lat="44.7291332" lon="7.2953161"><ele>494.0</ele><time>2026-04-18T12:37:53.01Z</time></trkpt><trkpt lat="44.7292486" lon="7.2955241"><ele>493.3333333333333</ele><time>2026-04-18T12:37:54.009Z</time></trkpt><trkpt lat="44.7293587" lon="7.2957218"><ele>492.66666666666663</ele><time>2026-04-18T12:37:55.009Z</time></trkpt><trkpt lat="44.7294664" lon="7.2959052"><ele>492.0</ele><time>2026-04-18T12:37:56.01Z</time></trkpt><trkpt lat="44.7295613" lon="7.2960878"><ele>492.0</ele><time>2026-04-18T12:37:57.008Z</time></trkpt><trkpt lat="44.7296511" lon="7.296264"><ele>492.0</ele><time>2026-04-18T12:37:58.01Z</time></trkpt><trkpt lat="44.7297295" lon="7.2964385"><ele>492.0</ele><time>2026-04-18T12:37:59.009Z</time></trkpt><trkpt lat="44.7297854" lon="7.2966334"><ele>490.5</ele><time>2026-04-18T12:38:00.009Z</time></trkpt><trkpt lat="44.7298203" lon="7.2968464"><ele>489.0</ele><time>2026-04-18T12:38:01.01Z</time></trkpt><trkpt lat="44.7298385" lon="7.29705"><ele>487.5</ele><time>2026-04-18T12:38:02.01Z</time></trkpt><trkpt lat="44.7298502" lon="7.2972461"><ele>486.0</ele><time>2026-04-18T12:38:03.01Z</time></trkpt><trkpt lat="44.7298655" lon="7.2974406"><ele>484.33333333333337</ele><time>2026-04-18T12:38:04.01Z</time></trkpt><trkpt lat="44.7298682" lon="7.2976395"><ele>482.6666666666667</ele><time>2026-04-18T12:38:05.009Z</time></trkpt><trkpt lat="44.7298481" lon="7.2978544"><ele>481.0</ele><time>2026-04-18T12:38:06.009Z</time></trkpt><trkpt lat="44.7298125" lon="7.2980826"><ele>479.6666666666667</ele><time>2026-04-18T12:38:07.01Z</time></trkpt><trkpt lat="44.7297655" lon="7.2982879"><ele>478.33333333333337</ele><time>2026-04-18T12:38:08.009Z</time></trkpt><trkpt lat="44.7297084" lon="7.2984804"><ele>477.0</ele><time>2026-04-18T12:38:09.01Z</time></trkpt><trkpt lat="44.7296482" lon="7.298672"><ele>477.0</ele><time>2026-04-18T12:38:10.01Z</time></trkpt><trkpt lat="44.7295973" lon="7.2988974"><ele>477.0</ele><time>2026-04-18T12:38:11.01Z</time></trkpt><trkpt lat="44.7295653" lon="7.2991378"><ele>477.0</ele><time>2026-04-18T12:38:12.01Z</time></trkpt><trkpt lat="44.7295433" lon="7.2993704"><ele>475.66666666666663</ele><time>2026-04-18T12:38:13.009Z</time></trkpt><trkpt lat="44.7295361" lon="7.2996118"><ele>474.3333333333333</ele><time>2026-04-18T12:38:14.01Z</time></trkpt><trkpt lat="44.7295484" lon="7.2998561"><ele>473.0</ele><time>2026-04-18T12:38:15.009Z</time></trkpt><trkpt lat="44.7295671" lon="7.300087"><ele>471.75</ele><time>2026-04-18T12:38:16.009Z</time></trkpt><trkpt lat="44.7295883" lon="7.3002947"><ele>470.5</ele><time>2026-04-18T12:38:17.009Z</time></trkpt><trkpt lat="44.7296057" lon="7.3004793"><ele>469.25</ele><time>2026-04-18T12:38:18.01Z</time></trkpt><trkpt lat="44.7295984" lon="7.3006619"><ele>468.0</ele><time>2026-04-18T12:38:19.01Z</time></trkpt><trkpt lat="44.7295592" lon="7.3008673"><ele>466.66666666666663</ele><time>2026-04-18T12:38:20.01Z</time></trkpt><trkpt lat="44.7295058" lon="7.3010833"><ele>465.3333333333333</ele><time>2026-04-18T12:38:21.01Z</time></trkpt><trkpt lat="44.7294576" lon="7.301288"><ele>464.0</ele><time>2026-04-18T12:38:22.009Z</time></trkpt><trkpt lat="44.7294119" lon="7.3015008"><ele>462.66666666666663</ele><time>2026-04-18T12:38:23.01Z</time></trkpt><trkpt lat="44.7293666" lon="7.3017123"><ele>461.33333333333337</ele><time>2026-04-18T12:38:24.01Z</time></trkpt><trkpt lat="44.7293141" lon="7.301921"><ele>460.0</ele><time>2026-04-18T12:38:25.009Z</time></trkpt><trkpt lat="44.7292466" lon="7.3021149"><ele>458.0</ele><time>2026-04-18T12:38:26.009Z</time></trkpt><trkpt lat="44.7291624" lon="7.302296"><ele>456.0</ele><time>2026-04-18T12:38:27.01Z</time></trkpt><trkpt lat="44.729079" lon="7.3024801"><ele>454.0</ele><time>2026-04-18T12:38:28.01Z</time></trkpt><trkpt lat="44.7290116" lon="7.302691"><ele>454.0</ele><time>2026-04-18T12:38:29.009Z</time></trkpt><trkpt lat="44.728953" lon="7.3029022"><ele>454.0</ele><time>2026-04-18T12:38:30.009Z</time></trkpt><trkpt lat="44.7288798" lon="7.3030997"><ele>454.0</ele><time>2026-04-18T12:38:31.01Z</time></trkpt><trkpt lat="44.7287925" lon="7.3032752"><ele>453.25</ele><time>2026-04-18T12:38:32.009Z</time></trkpt><trkpt lat="44.7287209" lon="7.3034498"><ele>452.5</ele><time>2026-04-18T12:38:33.009Z</time></trkpt><trkpt lat="44.7286652" lon="7.3036416"><ele>451.75</ele><time>2026-04-18T12:38:34.01Z</time></trkpt><trkpt lat="44.728613" lon="7.3038324"><ele>451.0</ele><time>2026-04-18T12:38:35.009Z</time></trkpt><trkpt lat="44.7285441" lon="7.3040127"><ele>449.6666666666667</ele><time>2026-04-18T12:38:36.01Z</time></trkpt><trkpt lat="44.7284479" lon="7.3041974"><ele>448.33333333333337</ele><time>2026-04-18T12:38:37.009Z</time></trkpt><trkpt lat="44.728372" lon="7.3044066"><ele>447.0</ele><time>2026-04-18T12:38:38.01Z</time></trkpt><trkpt lat="44.7283077" lon="7.3046129"><ele>446.0</ele><time>2026-04-18T12:38:39.01Z</time></trkpt><trkpt lat="44.7282476" lon="7.3048113"><ele>445.0</ele><time>2026-04-18T12:38:40.009Z</time></trkpt><trkpt lat="44.7281898" lon="7.3050066"><ele>444.0</ele><time>2026-04-18T12:38:41.01Z</time></trkpt><trkpt lat="44.7281429" lon="7.3051969"><ele>443.0</ele><time>2026-04-18T12:38:42.01Z</time></trkpt><trkpt lat="44.7281086" lon="7.3053959"><ele>441.66666666666663</ele><time>2026-04-18T12:38:43.009Z</time></trkpt><trkpt lat="44.7280896" lon="7.3056162"><ele>440.33333333333337</ele><time>2026-04-18T12:38:44.009Z</time></trkpt><trkpt lat="44.7280752" lon="7.3058343"><ele>439.0</ele><time>2026-04-18T12:38:45.009Z</time></trkpt><trkpt lat="44.7280576" lon="7.3060399"><ele>439.0</ele><time>2026-04-18T12:38:46.009Z</time></trkpt><trkpt lat="44.7280364" lon="7.3062393"><ele>439.0</ele><time>2026-04-18T12:38:47.008Z</time></trkpt><trkpt lat="44.7280096" lon="7.3064414"><ele>439.0</ele><time>2026-04-18T12:38:48.01Z</time></trkpt><trkpt lat="44.7279812" lon="7.3066317"><ele>439.0</ele><time>2026-04-18T12:38:49.009Z</time></trkpt><trkpt lat="44.7279526" lon="7.3068181"><ele>438.25</ele><time>2026-04-18T12:38:50.01Z</time></trkpt><trkpt lat="44.7279259" lon="7.3069936"><ele>437.5</ele><time>2026-04-18T12:38:51.01Z</time></trkpt><trkpt lat="44.7278932" lon="7.3071575"><ele>436.75</ele><time>2026-04-18T12:38:52.01Z</time></trkpt><trkpt lat="44.7278472" lon="7.3073134"><ele>436.0</ele><time>2026-04-18T12:38:53.01Z</time></trkpt><trkpt lat="44.7277781" lon="7.3074685"><ele>435.5</ele><time>2026-04-18T12:38:54.01Z</time></trkpt><trkpt lat="44.7276998" lon="7.3076132"><ele>435.0</ele><time>2026-04-18T12:38:55.01Z</time></trkpt><trkpt lat="44.7276215" lon="7.3077556"><ele>434.5</ele><time>2026-04-18T12:38:56.01Z</time></trkpt><trkpt lat="44.7275501" lon="7.307906"><ele>434.0</ele><time>2026-04-18T12:38:57.01Z</time></trkpt><trkpt lat="44.727488" lon="7.3080648"><ele>432.75</ele><time>2026-04-18T12:38:58.01Z</time></trkpt><trkpt lat="44.7274406" lon="7.3082232"><ele>431.5</ele><time>2026-04-18T12:38:59.009Z</time></trkpt><trkpt lat="44.7274213" lon="7.3084045"><ele>430.25</ele><time>2026-04-18T12:39:00.009Z</time></trkpt><trkpt lat="44.7274155" lon="7.3086099"><ele>429.0</ele><time>2026-04-18T12:39:01.009Z</time></trkpt><trkpt lat="44.7274059" lon="7.3088873"><ele>428.33333333333337</ele><time>2026-04-18T12:39:02.009Z</time></trkpt><trkpt lat="44.7273774" lon="7.3091593"><ele>427.6666666666667</ele><time>2026-04-18T12:39:03.009Z</time></trkpt><trkpt lat="44.7273442" lon="7.309403"><ele>427.0</ele><time>2026-04-18T12:39:04.01Z</time></trkpt><trkpt lat="44.7272914" lon="7.3096312"><ele>425.75</ele><time>2026-04-18T12:39:05.01Z</time></trkpt><trkpt lat="44.7272364" lon="7.3098406"><ele>424.5</ele><time>2026-04-18T12:39:06.009Z</time></trkpt><trkpt lat="44.727183" lon="7.3100185"><ele>423.25</ele><time>2026-04-18T12:39:07.01Z</time></trkpt><trkpt lat="44.7271374" lon="7.3101695"><ele>422.0</ele><time>2026-04-18T12:39:08.01Z</time></trkpt><trkpt lat="44.7270999" lon="7.3103306"><ele>422.0</ele><time>2026-04-18T12:39:09.01Z</time></trkpt><trkpt lat="44.7270972" lon="7.3105405"><ele>422.0</ele><time>2026-04-18T12:39:10.01Z</time></trkpt><trkpt lat="44.7270886" lon="7.3107492"><ele>422.0</ele><time>2026-04-18T12:39:11.009Z</time></trkpt><trkpt lat="44.7270737" lon="7.3109469"><ele>422.0</ele><time>2026-04-18T12:39:12.009Z</time></trkpt><trkpt lat="44.7270659" lon="7.3111302"><ele>421.40000000000003</ele><time>2026-04-18T12:39:13.008Z</time></trkpt><trkpt lat="44.7270757" lon="7.3112809"><ele>420.8</ele><time>2026-04-18T12:39:14.009Z</time></trkpt><trkpt lat="44.7271134" lon="7.311414"><ele>420.2</ele><time>2026-04-18T12:39:15.01Z</time></trkpt><trkpt lat="44.7271777" lon="7.311518"><ele>419.6</ele><time>2026-04-18T12:39:16.009Z</time></trkpt><trkpt lat="44.7272743" lon="7.3116181"><ele>419.0</ele><time>2026-04-18T12:39:17.009Z</time></trkpt><trkpt lat="44.7273887" lon="7.3117219"><ele>419.0</ele><time>2026-04-18T12:39:18.01Z</time></trkpt><trkpt lat="44.7275007" lon="7.3118102"><ele>419.0</ele><time>2026-04-18T12:39:19.009Z</time></trkpt><trkpt lat="44.7276106" lon="7.3118872"><ele>419.0</ele><time>2026-04-18T12:39:20.009Z</time></trkpt><trkpt lat="44.7277097" lon="7.3119878"><ele>419.0</ele><time>2026-04-18T12:39:21.009Z</time></trkpt><trkpt lat="44.7277769" lon="7.3121146"><ele>416.75</ele><time>2026-04-18T12:39:22.01Z</time></trkpt><trkpt lat="44.7278225" lon="7.3122594"><ele>414.5</ele><time>2026-04-18T12:39:23.01Z</time></trkpt><trkpt lat="44.7278574" lon="7.312443"><ele>412.25</ele><time>2026-04-18T12:39:24.01Z</time></trkpt><trkpt lat="44.7278749" lon="7.3126382"><ele>410.0</ele><time>2026-04-18T12:39:25.009Z</time></trkpt><trkpt lat="44.7278687" lon="7.312844"><ele>410.0</ele><time>2026-04-18T12:39:26.009Z</time></trkpt><trkpt lat="44.727848" lon="7.3130513"><ele>410.0</ele><time>2026-04-18T12:39:27.01Z</time></trkpt><trkpt lat="44.7278038" lon="7.3132745"><ele>410.0</ele><time>2026-04-18T12:39:28.01Z</time></trkpt><trkpt lat="44.7277598" lon="7.3134954"><ele>408.66666666666663</ele><time>2026-04-18T12:39:29.01Z</time></trkpt><trkpt lat="44.7277293" lon="7.3137149"><ele>407.33333333333337</ele><time>2026-04-18T12:39:30.009Z</time></trkpt><trkpt lat="44.7277064" lon="7.3139392"><ele>406.0</ele><time>2026-04-18T12:39:31.01Z</time></trkpt><trkpt lat="44.7276993" lon="7.3141654"><ele>406.0</ele><time>2026-04-18T12:39:32.009Z</time></trkpt><trkpt lat="44.7276958" lon="7.3143902"><ele>406.0</ele><time>2026-04-18T12:39:33.01Z</time></trkpt><trkpt lat="44.7277026" lon="7.3146061"><ele>406.0</ele><time>2026-04-18T12:39:34.01Z</time></trkpt><trkpt lat="44.7277215" lon="7.3148117"><ele>405.0</ele><time>2026-04-18T12:39:35.009Z</time></trkpt><trkpt lat="44.7277444" lon="7.3150305"><ele>404.0</ele><time>2026-04-18T12:39:36.01Z</time></trkpt><trkpt lat="44.7277435" lon="7.3152427"><ele>403.0</ele><time>2026-04-18T12:39:37.01Z</time></trkpt><trkpt lat="44.7277264" lon="7.3154453"><ele>402.25</ele><time>2026-04-18T12:39:38.01Z</time></trkpt><trkpt lat="44.7277065" lon="7.315639"><ele>401.5</ele><time>2026-04-18T12:39:39.01Z</time></trkpt><trkpt lat="44.7276825" lon="7.3158283"><ele>400.75</ele><time>2026-04-18T12:39:40.01Z</time></trkpt><trkpt lat="44.72765" lon="7.3160058"><ele>400.0</ele><time>2026-04-18T12:39:41.008Z</time></trkpt><trkpt lat="44.7276148" lon="7.3161822"><ele>400.0</ele><time>2026-04-18T12:39:42.009Z</time></trkpt><trkpt lat="44.7275784" lon="7.3163542"><ele>400.0</ele><time>2026-04-18T12:39:43.009Z</time></trkpt><trkpt lat="44.7275409" lon="7.3165195"><ele>400.0</ele><time>2026-04-18T12:39:44.009Z</time></trkpt><trkpt lat="44.7274995" lon="7.3166717"><ele>400.0</ele><time>2026-04-18T12:39:45.009Z</time></trkpt><trkpt lat="44.7274546" lon="7.3168127"><ele>399.8</ele><time>2026-04-18T12:39:46.008Z</time></trkpt><trkpt lat="44.7274155" lon="7.3169489"><ele>399.6</ele><time>2026-04-18T12:39:47.009Z</time></trkpt><trkpt lat="44.7273765" lon="7.3170774"><ele>399.4</ele><time>2026-04-18T12:39:48.008Z</time></trkpt><trkpt lat="44.7273352" lon="7.3172033"><ele>399.2</ele><time>2026-04-18T12:39:49.009Z</time></trkpt><trkpt lat="44.7272987" lon="7.3173238"><ele>399.0</ele><time>2026-04-18T12:39:50.009Z</time></trkpt><trkpt lat="44.7272684" lon="7.3174394"><ele>398.6666666666667</ele><time>2026-04-18T12:39:51.008Z</time></trkpt><trkpt lat="44.7272422" lon="7.3175483"><ele>398.33333333333337</ele><time>2026-04-18T12:39:52.008Z</time></trkpt><trkpt lat="44.7272172" lon="7.3176359"><ele>398.0</ele><time>2026-04-18T12:39:53.009Z</time></trkpt><trkpt lat="44.7271834" lon="7.317771"><ele>397.6666666666667</ele><time>2026-04-18T12:39:55.009Z</time></trkpt><trkpt lat="44.7271659" lon="7.3178609"><ele>397.33333333333337</ele><time>2026-04-18T12:39:56.008Z</time></trkpt><trkpt lat="44.7271528" lon="7.3179584"><ele>397.0</ele><time>2026-04-18T12:39:57.009Z</time></trkpt><trkpt lat="44.7271541" lon="7.3181162"><ele>396.20000000000005</ele><time>2026-04-18T12:39:59.009Z</time></trkpt><trkpt lat="44.7272113" lon="7.3182847"><ele>395.4</ele><time>2026-04-18T12:40:01.008Z</time></trkpt><trkpt lat="44.7272526" lon="7.3184187"><ele>394.6</ele><time>2026-04-18T12:40:02.009Z</time></trkpt><trkpt lat="44.7272803" lon="7.3185457"><ele>393.79999999999995</ele><time>2026-04-18T12:40:03.009Z</time></trkpt><trkpt lat="44.727309" lon="7.3186469"><ele>393.0</ele><time>2026-04-18T12:40:04.008Z</time></trkpt><trkpt lat="44.7273282" lon="7.318738"><ele>392.25</ele><time>2026-04-18T12:40:05.009Z</time></trkpt><trkpt lat="44.7273193" lon="7.3189179"><ele>391.5</ele><time>2026-04-18T12:40:07.008Z</time></trkpt><trkpt lat="44.7272883" lon="7.3190437"><ele>390.75</ele><time>2026-04-18T12:40:08.008Z</time></trkpt><trkpt lat="44.7272262" lon="7.319191"><ele>390.0</ele><time>2026-04-18T12:40:09.009Z</time></trkpt><trkpt lat="44.7271679" lon="7.3193268"><ele>390.0</ele><time>2026-04-18T12:40:10.009Z</time></trkpt><trkpt lat="44.7271211" lon="7.3194566"><ele>390.0</ele><time>2026-04-18T12:40:11.008Z</time></trkpt><trkpt lat="44.7270757" lon="7.3195781"><ele>390.0</ele><time>2026-04-18T12:40:12.009Z</time></trkpt><trkpt lat="44.727025" lon="7.3196927"><ele>390.0</ele><time>2026-04-18T12:40:13.008Z</time></trkpt><trkpt lat="44.7269805" lon="7.3198184"><ele>390.0</ele><time>2026-04-18T12:40:14.007Z</time></trkpt><trkpt lat="44.7269384" lon="7.3199428"><ele>389.4</ele><time>2026-04-18T12:40:15.008Z</time></trkpt><trkpt lat="44.7268896" lon="7.3200699"><ele>388.8</ele><time>2026-04-18T12:40:16.009Z</time></trkpt><trkpt lat="44.7268482" lon="7.3202176"><ele>388.20000000000005</ele><time>2026-04-18T12:40:17.009Z</time></trkpt><trkpt lat="44.7268154" lon="7.3203611"><ele>387.6</ele><time>2026-04-18T12:40:18.008Z</time></trkpt><trkpt lat="44.7267866" lon="7.3204976"><ele>387.0</ele><time>2026-04-18T12:40:19.009Z</time></trkpt><trkpt lat="44.7267556" lon="7.3206442"><ele>386.0</ele><time>2026-04-18T12:40:20.009Z</time></trkpt><trkpt lat="44.7267006" lon="7.3207996"><ele>385.0</ele><time>2026-04-18T12:40:21.009Z</time></trkpt><trkpt lat="44.7266399" lon="7.3209614"><ele>384.0</ele><time>2026-04-18T12:40:22.009Z</time></trkpt><trkpt lat="44.7265784" lon="7.321101"><ele>383.0</ele><time>2026-04-18T12:40:23.008Z</time></trkpt><trkpt lat="44.7265141" lon="7.3212283"><ele>383.0</ele><time>2026-04-18T12:40:24.008Z</time></trkpt><trkpt lat="44.7264562" lon="7.3213589"><ele>383.0</ele><time>2026-04-18T12:40:25.009Z</time></trkpt><trkpt lat="44.7263963" lon="7.3214844"><ele>383.0</ele><time>2026-04-18T12:40:26.008Z</time></trkpt><trkpt lat="44.7263444" lon="7.321603"><ele>383.0</ele><time>2026-04-18T12:40:27.009Z</time></trkpt><trkpt lat="44.7263025" lon="7.3217148"><ele>383.0</ele><time>2026-04-18T12:40:28.009Z</time></trkpt><trkpt lat="44.7262604" lon="7.3218201"><ele>382.83333333333337</ele><time>2026-04-18T12:40:29.009Z</time></trkpt><trkpt lat="44.7262238" lon="7.3219195"><ele>382.6666666666667</ele><time>2026-04-18T12:40:30.008Z</time></trkpt><trkpt lat="44.7261894" lon="7.3220102"><ele>382.5</ele><time>2026-04-18T12:40:31.009Z</time></trkpt><trkpt lat="44.7261422" lon="7.3221416"><ele>382.3333333333333</ele><time>2026-04-18T12:40:33.009Z</time></trkpt><trkpt lat="44.7261058" lon="7.322237"><ele>382.16666666666663</ele><time>2026-04-18T12:40:36.008Z</time></trkpt><trkpt lat="44.7260911" lon="7.3223485"><ele>382.0</ele><time>2026-04-18T12:40:40.008Z</time></trkpt><trkpt lat="44.726186" lon="7.3224266"><ele>381.20000000000005</ele><time>2026-04-18T12:40:42.009Z</time></trkpt><trkpt lat="44.7262959" lon="7.3224408"><ele>380.4</ele><time>2026-04-18T12:40:43.008Z</time></trkpt><trkpt lat="44.7264179" lon="7.3224534"><ele>379.6</ele><time>2026-04-18T12:40:44.009Z</time></trkpt><trkpt lat="44.7265164" lon="7.322476"><ele>378.79999999999995</ele><time>2026-04-18T12:40:45.009Z</time></trkpt><trkpt lat="44.7266173" lon="7.3225133"><ele>378.0</ele><time>2026-04-18T12:40:46.008Z</time></trkpt><trkpt lat="44.7267133" lon="7.322582"><ele>378.0</ele><time>2026-04-18T12:40:47.008Z</time></trkpt><trkpt lat="44.7268085" lon="7.3226744"><ele>378.0</ele><time>2026-04-18T12:40:48.009Z</time></trkpt><trkpt lat="44.7268975" lon="7.3227854"><ele>378.0</ele><time>2026-04-18T12:40:49.009Z</time></trkpt><trkpt lat="44.7269835" lon="7.3229134"><ele>378.0</ele><time>2026-04-18T12:40:50.008Z</time></trkpt><trkpt lat="44.7270732" lon="7.3230458"><ele>376.5</ele><time>2026-04-18T12:40:51.008Z</time></trkpt><trkpt lat="44.7271632" lon="7.3231798"><ele>375.0</ele><time>2026-04-18T12:40:52.008Z</time></trkpt><trkpt lat="44.7272476" lon="7.3233249"><ele>373.5</ele><time>2026-04-18T12:40:53.009Z</time></trkpt><trkpt lat="44.7273297" lon="7.3234801"><ele>372.0</ele><time>2026-04-18T12:40:54.009Z</time></trkpt><trkpt lat="44.7274003" lon="7.3236533"><ele>372.0</ele><time>2026-04-18T12:40:55.008Z</time></trkpt><trkpt lat="44.7274601" lon="7.3238414"><ele>372.0</ele><time>2026-04-18T12:40:56.009Z</time></trkpt><trkpt lat="44.7275066" lon="7.3240295"><ele>372.0</ele><time>2026-04-18T12:40:57.008Z</time></trkpt><trkpt lat="44.727545" lon="7.3242"><ele>372.0</ele><time>2026-04-18T12:40:58.008Z</time></trkpt><trkpt lat="44.7275764" lon="7.324359"><ele>371.75</ele><time>2026-04-18T12:40:59.008Z</time></trkpt><trkpt lat="44.7276072" lon="7.3245078"><ele>371.5</ele><time>2026-04-18T12:41:00.009Z</time></trkpt><trkpt lat="44.7276381" lon="7.3246581"><ele>371.25</ele><time>2026-04-18T12:41:01.009Z</time></trkpt><trkpt lat="44.7276705" lon="7.3248149"><ele>371.0</ele><time>2026-04-18T12:41:02.008Z</time></trkpt><trkpt lat="44.727707" lon="7.32498"><ele>371.5</ele><time>2026-04-18T12:41:03.009Z</time></trkpt><trkpt lat="44.7277457" lon="7.3251543"><ele>372.0</ele><time>2026-04-18T12:41:04.009Z</time></trkpt><trkpt lat="44.727782" lon="7.325325"><ele>372.5</ele><time>2026-04-18T12:41:05.008Z</time></trkpt><trkpt lat="44.7278152" lon="7.3254821"><ele>373.0</ele><time>2026-04-18T12:41:06.009Z</time></trkpt><trkpt lat="44.7278425" lon="7.3256264"><ele>373.0</ele><time>2026-04-18T12:41:07.009Z</time></trkpt><trkpt lat="44.7278695" lon="7.3257544"><ele>373.0</ele><time>2026-04-18T12:41:08.008Z</time></trkpt><trkpt lat="44.7278986" lon="7.3258766"><ele>373.0</ele><time>2026-04-18T12:41:09.008Z</time></trkpt><trkpt lat="44.7279271" lon="7.3260024"><ele>373.0</ele><time>2026-04-18T12:41:10.009Z</time></trkpt><trkpt lat="44.7279537" lon="7.3261306"><ele>373.0</ele><time>2026-04-18T12:41:11.008Z</time></trkpt><trkpt lat="44.7279787" lon="7.3262693"><ele>372.5</ele><time>2026-04-18T12:41:12.009Z</time></trkpt><trkpt lat="44.7280059" lon="7.3264129"><ele>372.0</ele><time>2026-04-18T12:41:13.009Z</time></trkpt><trkpt lat="44.7280267" lon="7.326568"><ele>371.5</ele><time>2026-04-18T12:41:14.009Z</time></trkpt><trkpt lat="44.7280538" lon="7.3267293"><ele>371.0</ele><time>2026-04-18T12:41:15.008Z</time></trkpt><trkpt lat="44.7280783" lon="7.3269061"><ele>371.0</ele><time>2026-04-18T12:41:16.008Z</time></trkpt><trkpt lat="44.7281031" lon="7.327093"><ele>371.0</ele><time>2026-04-18T12:41:17.009Z</time></trkpt><trkpt lat="44.728127" lon="7.3272949"><ele>371.0</ele><time>2026-04-18T12:41:18.009Z</time></trkpt><trkpt lat="44.7281466" lon="7.3274936"><ele>371.0</ele><time>2026-04-18T12:41:19.008Z</time></trkpt><trkpt lat="44.7281672" lon="7.3276774"><ele>370.4</ele><time>2026-04-18T12:41:20.008Z</time></trkpt><trkpt lat="44.7281836" lon="7.3278489"><ele>369.8</ele><time>2026-04-18T12:41:21.009Z</time></trkpt><trkpt lat="44.7281993" lon="7.328003"><ele>369.2</ele><time>2026-04-18T12:41:22.009Z</time></trkpt><trkpt lat="44.728216" lon="7.3281445"><ele>368.59999999999997</ele><time>2026-04-18T12:41:23.008Z</time></trkpt><trkpt lat="44.7282315" lon="7.3282788"><ele>368.0</ele><time>2026-04-18T12:41:24.008Z</time></trkpt><trkpt lat="44.7282489" lon="7.3284061"><ele>367.4</ele><time>2026-04-18T12:41:25.009Z</time></trkpt><trkpt lat="44.7282637" lon="7.3285471"><ele>366.79999999999995</ele><time>2026-04-18T12:41:26.009Z</time></trkpt><trkpt lat="44.7282836" lon="7.3287152"><ele>366.2</ele><time>2026-04-18T12:41:27.009Z</time></trkpt><trkpt lat="44.728303" lon="7.3288698"><ele>365.6</ele><time>2026-04-18T12:41:28.008Z</time></trkpt><trkpt lat="44.7283091" lon="7.3290045"><ele>365.0</ele><time>2026-04-18T12:41:29.009Z</time></trkpt><trkpt lat="44.728292" lon="7.3291213"><ele>364.4</ele><time>2026-04-18T12:41:30.009Z</time></trkpt><trkpt lat="44.7282427" lon="7.3292162"><ele>363.8</ele><time>2026-04-18T12:41:31.009Z</time></trkpt><trkpt lat="44.7281736" lon="7.3292635"><ele>363.20000000000005</ele><time>2026-04-18T12:41:32.009Z</time></trkpt><trkpt lat="44.7280897" lon="7.3292885"><ele>362.6</ele><time>2026-04-18T12:41:33.009Z</time></trkpt><trkpt lat="44.7279632" lon="7.3293233"><ele>362.0</ele><time>2026-04-18T12:41:34.007Z</time></trkpt><trkpt lat="44.7277963" lon="7.3293707"><ele>361.5</ele><time>2026-04-18T12:41:35.009Z</time></trkpt><trkpt lat="44.7276362" lon="7.3294135"><ele>361.0</ele><time>2026-04-18T12:41:36.008Z</time></trkpt><trkpt lat="44.7274971" lon="7.3294565"><ele>360.5</ele><time>2026-04-18T12:41:37.008Z</time></trkpt><trkpt lat="44.7273631" lon="7.3294972"><ele>360.0</ele><time>2026-04-18T12:41:38.009Z</time></trkpt><trkpt lat="44.7272313" lon="7.3295351"><ele>360.0</ele><time>2026-04-18T12:41:39.008Z</time></trkpt><trkpt lat="44.727103" lon="7.3295723"><ele>360.0</ele><time>2026-04-18T12:41:40.008Z</time></trkpt><trkpt lat="44.7269858" lon="7.3296073"><ele>360.0</ele><time>2026-04-18T12:41:41.008Z</time></trkpt><trkpt lat="44.7268766" lon="7.3296441"><ele>360.0</ele><time>2026-04-18T12:41:42.009Z</time></trkpt><trkpt lat="44.7267756" lon="7.3296668"><ele>360.0</ele><time>2026-04-18T12:41:43.008Z</time></trkpt><trkpt lat="44.7266813" lon="7.3296917"><ele>360.0</ele><time>2026-04-18T12:41:44.008Z</time></trkpt><trkpt lat="44.7265979" lon="7.329718"><ele>360.0</ele><time>2026-04-18T12:41:45.009Z</time></trkpt><trkpt lat="44.7265239" lon="7.3297676"><ele>360.0</ele><time>2026-04-18T12:41:46.008Z</time></trkpt><trkpt lat="44.7264696" lon="7.3298446"><ele>360.0</ele><time>2026-04-18T12:41:47.009Z</time></trkpt><trkpt lat="44.7264389" lon="7.3299515"><ele>360.0</ele><time>2026-04-18T12:41:48.009Z</time></trkpt><trkpt lat="44.726439" lon="7.3300785"><ele>359.5</ele><time>2026-04-18T12:41:49.008Z</time></trkpt><trkpt lat="44.7264647" lon="7.3302353"><ele>359.0</ele><time>2026-04-18T12:41:50.008Z</time></trkpt><trkpt lat="44.7265092" lon="7.3304353"><ele>358.5</ele><time>2026-04-18T12:41:51.008Z</time></trkpt><trkpt lat="44.7265488" lon="7.3306385"><ele>358.0</ele><time>2026-04-18T12:41:52.008Z</time></trkpt><trkpt lat="44.7265868" lon="7.3308395"><ele>357.25</ele><time>2026-04-18T12:41:53.009Z</time></trkpt><trkpt lat="44.7266374" lon="7.3310415"><ele>356.5</ele><time>2026-04-18T12:41:54.009Z</time></trkpt><trkpt lat="44.726685" lon="7.3312308"><ele>355.75</ele><time>2026-04-18T12:41:55.009Z</time></trkpt><trkpt lat="44.7267305" lon="7.3314247"><ele>355.0</ele><time>2026-04-18T12:41:56.009Z</time></trkpt><trkpt lat="44.7267746" lon="7.3316091"><ele>354.0</ele><time>2026-04-18T12:41:57.009Z</time></trkpt><trkpt lat="44.7268174" lon="7.331785"><ele>353.0</ele><time>2026-04-18T12:41:58.007Z</time></trkpt><trkpt lat="44.7268572" lon="7.331951"><ele>352.0</ele><time>2026-04-18T12:41:59.008Z</time></trkpt><trkpt lat="44.7268942" lon="7.3321075"><ele>351.0</ele><time>2026-04-18T12:42:00.009Z</time></trkpt><trkpt lat="44.7269324" lon="7.3322675"><ele>350.75</ele><time>2026-04-18T12:42:01.009Z</time></trkpt><trkpt lat="44.7269784" lon="7.3324264"><ele>350.5</ele><time>2026-04-18T12:42:02.009Z</time></trkpt><trkpt lat="44.7270307" lon="7.3325885"><ele>350.25</ele><time>2026-04-18T12:42:03.009Z</time></trkpt><trkpt lat="44.7270898" lon="7.3327559"><ele>350.0</ele><time>2026-04-18T12:42:04.009Z</time></trkpt><trkpt lat="44.7271558" lon="7.3329237"><ele>349.25</ele><time>2026-04-18T12:42:05.009Z</time></trkpt><trkpt lat="44.7272242" lon="7.3330902"><ele>348.5</ele><time>2026-04-18T12:42:06.009Z</time></trkpt><trkpt lat="44.7272952" lon="7.3332578"><ele>347.75</ele><time>2026-04-18T12:42:07.008Z</time></trkpt><trkpt lat="44.7273711" lon="7.3334237"><ele>347.0</ele><time>2026-04-18T12:42:08.009Z</time></trkpt><trkpt lat="44.7274503" lon="7.333591"><ele>347.0</ele><time>2026-04-18T12:42:09.009Z</time></trkpt><trkpt lat="44.7275265" lon="7.3337628"><ele>347.0</ele><time>2026-04-18T12:42:10.009Z</time></trkpt><trkpt lat="44.7276012" lon="7.3339366"><ele>347.0</ele><time>2026-04-18T12:42:11.009Z</time></trkpt><trkpt lat="44.7276749" lon="7.3341097"><ele>347.0</ele><time>2026-04-18T12:42:12.009Z</time></trkpt><trkpt lat="44.7277508" lon="7.3342802"><ele>347.0</ele><time>2026-04-18T12:42:13.009Z</time></trkpt><trkpt lat="44.7278273" lon="7.3344496"><ele>347.0</ele><time>2026-04-18T12:42:14.008Z</time></trkpt><trkpt lat="44.7279038" lon="7.3346145"><ele>347.0</ele><time>2026-04-18T12:42:15.009Z</time></trkpt><trkpt lat="44.7279839" lon="7.3347784"><ele>347.0</ele><time>2026-04-18T12:42:16.008Z</time></trkpt><trkpt lat="44.7280636" lon="7.3349398"><ele>346.25</ele><time>2026-04-18T12:42:17.009Z</time></trkpt><trkpt lat="44.7281411" lon="7.3350991"><ele>345.5</ele><time>2026-04-18T12:42:18.009Z</time></trkpt><trkpt lat="44.7282155" lon="7.335255"><ele>344.75</ele><time>2026-04-18T12:42:19.009Z</time></trkpt><trkpt lat="44.7282881" lon="7.3354083"><ele>344.0</ele><time>2026-04-18T12:42:20.008Z</time></trkpt><trkpt lat="44.7283582" lon="7.3355625"><ele>343.75</ele><time>2026-04-18T12:42:21.009Z</time></trkpt><trkpt lat="44.7284283" lon="7.3357174"><ele>343.5</ele><time>2026-04-18T12:42:22.008Z</time></trkpt><trkpt lat="44.7284938" lon="7.3358719"><ele>343.25</ele><time>2026-04-18T12:42:23.007Z</time></trkpt><trkpt lat="44.7285663" lon="7.3360495"><ele>343.0</ele><time>2026-04-18T12:42:24.009Z</time></trkpt><trkpt lat="44.728647" lon="7.3362562"><ele>342.0</ele><time>2026-04-18T12:42:25.009Z</time></trkpt><trkpt lat="44.7287447" lon="7.3364996"><ele>341.0</ele><time>2026-04-18T12:42:26.009Z</time></trkpt><trkpt lat="44.7288491" lon="7.3367669"><ele>340.0</ele><time>2026-04-18T12:42:27.009Z</time></trkpt><trkpt lat="44.7289434" lon="7.33701"><ele>339.0</ele><time>2026-04-18T12:42:28.008Z</time></trkpt><trkpt lat="44.7290365" lon="7.3372451"><ele>338.0</ele><time>2026-04-18T12:42:29.008Z</time></trkpt><trkpt lat="44.7291286" lon="7.337481"><ele>337.0</ele><time>2026-04-18T12:42:30.009Z</time></trkpt><trkpt lat="44.7292177" lon="7.3377151"><ele>337.0</ele><time>2026-04-18T12:42:31.008Z</time></trkpt><trkpt lat="44.7293098" lon="7.3379535"><ele>337.0</ele><time>2026-04-18T12:42:32.009Z</time></trkpt><trkpt lat="44.7293965" lon="7.338183"><ele>337.0</ele><time>2026-04-18T12:42:33.009Z</time></trkpt><trkpt lat="44.7294823" lon="7.3383991"><ele>336.3333333333333</ele><time>2026-04-18T12:42:34.008Z</time></trkpt><trkpt lat="44.7295583" lon="7.3386003"><ele>335.6666666666667</ele><time>2026-04-18T12:42:35.009Z</time></trkpt><trkpt lat="44.7296348" lon="7.3388018"><ele>335.0</ele><time>2026-04-18T12:42:36.008Z</time></trkpt><trkpt lat="44.7297134" lon="7.3390029"><ele>334.6666666666667</ele><time>2026-04-18T12:42:37.008Z</time></trkpt><trkpt lat="44.7297975" lon="7.339219"><ele>334.3333333333333</ele><time>2026-04-18T12:42:38.009Z</time></trkpt><trkpt lat="44.7298875" lon="7.3394471"><ele>334.0</ele><time>2026-04-18T12:42:39.009Z</time></trkpt><trkpt lat="44.7299736" lon="7.3396804"><ele>333.0</ele><time>2026-04-18T12:42:40.009Z</time></trkpt><trkpt lat="44.7300632" lon="7.3399099"><ele>332.0</ele><time>2026-04-18T12:42:41.009Z</time></trkpt><trkpt lat="44.7301514" lon="7.3401409"><ele>331.0</ele><time>2026-04-18T12:42:42.009Z</time></trkpt><trkpt lat="44.7302268" lon="7.3403645"><ele>331.0</ele><time>2026-04-18T12:42:43.009Z</time></trkpt><trkpt lat="44.7302932" lon="7.3405921"><ele>331.0</ele><time>2026-04-18T12:42:44.008Z</time></trkpt><trkpt lat="44.7303382" lon="7.3408327"><ele>331.0</ele><time>2026-04-18T12:42:45.009Z</time></trkpt><trkpt lat="44.7303601" lon="7.3410822"><ele>331.0</ele><time>2026-04-18T12:42:46.008Z</time></trkpt><trkpt lat="44.7303568" lon="7.3413362"><ele>331.0</ele><time>2026-04-18T12:42:47.009Z</time></trkpt><trkpt lat="44.7303291" lon="7.3415748"><ele>331.0</ele><time>2026-04-18T12:42:48.009Z</time></trkpt><trkpt lat="44.7302772" lon="7.3418086"><ele>330.66666666666663</ele><time>2026-04-18T12:42:49.009Z</time></trkpt><trkpt lat="44.7302036" lon="7.3420565"><ele>330.3333333333333</ele><time>2026-04-18T12:42:50.009Z</time></trkpt><trkpt lat="44.7301143" lon="7.3423313"><ele>330.0</ele><time>2026-04-18T12:42:51.008Z</time></trkpt><trkpt lat="44.7300242" lon="7.3426141"><ele>329.3333333333333</ele><time>2026-04-18T12:42:52.008Z</time></trkpt><trkpt lat="44.7299395" lon="7.3428804"><ele>328.66666666666663</ele><time>2026-04-18T12:42:53.009Z</time></trkpt><trkpt lat="44.729858" lon="7.3431352"><ele>328.0</ele><time>2026-04-18T12:42:54.008Z</time></trkpt><trkpt lat="44.7297779" lon="7.3433765"><ele>327.0</ele><time>2026-04-18T12:42:55.009Z</time></trkpt><trkpt lat="44.7296978" lon="7.3436177"><ele>326.0</ele><time>2026-04-18T12:42:56.009Z</time></trkpt><trkpt lat="44.7296227" lon="7.3438564"><ele>325.0</ele><time>2026-04-18T12:42:57.009Z</time></trkpt><trkpt lat="44.7295564" lon="7.3440879"><ele>324.3333333333333</ele><time>2026-04-18T12:42:58.008Z</time></trkpt><trkpt lat="44.7294973" lon="7.3443122"><ele>323.6666666666667</ele><time>2026-04-18T12:42:59.008Z</time></trkpt><trkpt lat="44.729446" lon="7.3445268"><ele>323.0</ele><time>2026-04-18T12:43:00.009Z</time></trkpt><trkpt lat="44.7294055" lon="7.3447204"><ele>322.5</ele><time>2026-04-18T12:43:01.008Z</time></trkpt><trkpt lat="44.7293708" lon="7.3449045"><ele>322.0</ele><time>2026-04-18T12:43:02.009Z</time></trkpt><trkpt lat="44.7293473" lon="7.345083"><ele>321.5</ele><time>2026-04-18T12:43:03.009Z</time></trkpt><trkpt lat="44.7293344" lon="7.3452718"><ele>321.0</ele><time>2026-04-18T12:43:04.008Z</time></trkpt><trkpt lat="44.7293389" lon="7.3454645"><ele>320.75</ele><time>2026-04-18T12:43:05.009Z</time></trkpt><trkpt lat="44.7293608" lon="7.3456652"><ele>320.5</ele><time>2026-04-18T12:43:06.009Z</time></trkpt><trkpt lat="44.7293943" lon="7.3458728"><ele>320.25</ele><time>2026-04-18T12:43:07.008Z</time></trkpt><trkpt lat="44.7294279" lon="7.3460675"><ele>320.0</ele><time>2026-04-18T12:43:08.008Z</time></trkpt><trkpt lat="44.7294614" lon="7.3462518"><ele>320.5</ele><time>2026-04-18T12:43:09.008Z</time></trkpt><trkpt lat="44.7294946" lon="7.3464256"><ele>321.0</ele><time>2026-04-18T12:43:10.008Z</time></trkpt><trkpt lat="44.7295313" lon="7.3465986"><ele>321.5</ele><time>2026-04-18T12:43:11.008Z</time></trkpt><trkpt lat="44.7295692" lon="7.3467678"><ele>322.0</ele><time>2026-04-18T12:43:12.008Z</time></trkpt><trkpt lat="44.7296067" lon="7.3469337"><ele>322.0</ele><time>2026-04-18T12:43:13.009Z</time></trkpt><trkpt lat="44.7296439" lon="7.3470913"><ele>322.0</ele><time>2026-04-18T12:43:14.008Z</time></trkpt><trkpt lat="44.729683" lon="7.3472408"><ele>322.0</ele><time>2026-04-18T12:43:15.009Z</time></trkpt><trkpt lat="44.7297274" lon="7.3473878"><ele>322.0</ele><time>2026-04-18T12:43:16.009Z</time></trkpt><trkpt lat="44.7297694" lon="7.3475376"><ele>321.25</ele><time>2026-04-18T12:43:17.009Z</time></trkpt><trkpt lat="44.7298101" lon="7.3476831"><ele>320.5</ele><time>2026-04-18T12:43:18.009Z</time></trkpt><trkpt lat="44.7298491" lon="7.3478363"><ele>319.75</ele><time>2026-04-18T12:43:19.008Z</time></trkpt><trkpt lat="44.7298907" lon="7.3480089"><ele>319.0</ele><time>2026-04-18T12:43:20.009Z</time></trkpt><trkpt lat="44.7299312" lon="7.3481742"><ele>318.5</ele><time>2026-04-18T12:43:21.009Z</time></trkpt><trkpt lat="44.7299693" lon="7.3483351"><ele>318.0</ele><time>2026-04-18T12:43:22.009Z</time></trkpt><trkpt lat="44.7300095" lon="7.3484989"><ele>317.5</ele><time>2026-04-18T12:43:23.009Z</time></trkpt><trkpt lat="44.7300497" lon="7.3486709"><ele>317.0</ele><time>2026-04-18T12:43:24.008Z</time></trkpt><trkpt lat="44.7300922" lon="7.3488535"><ele>316.75</ele><time>2026-04-18T12:43:25.008Z</time></trkpt><trkpt lat="44.7301325" lon="7.3490396"><ele>316.5</ele><time>2026-04-18T12:43:26.009Z</time></trkpt><trkpt lat="44.7301673" lon="7.3492144"><ele>316.25</ele><time>2026-04-18T12:43:27.008Z</time></trkpt><trkpt lat="44.7301992" lon="7.3493835"><ele>316.0</ele><time>2026-04-18T12:43:28.009Z</time></trkpt><trkpt lat="44.73023" lon="7.3495449"><ele>315.75</ele><time>2026-04-18T12:43:29.009Z</time></trkpt><trkpt lat="44.7302555" lon="7.3497015"><ele>315.5</ele><time>2026-04-18T12:43:30.008Z</time></trkpt><trkpt lat="44.7302827" lon="7.3498529"><ele>315.25</ele><time>2026-04-18T12:43:31.009Z</time></trkpt><trkpt lat="44.7303129" lon="7.3500105"><ele>315.0</ele><time>2026-04-18T12:43:32.008Z</time></trkpt><trkpt lat="44.7303394" lon="7.350165"><ele>314.8</ele><time>2026-04-18T12:43:33.009Z</time></trkpt><trkpt lat="44.7303611" lon="7.3503096"><ele>314.6</ele><time>2026-04-18T12:43:34.009Z</time></trkpt><trkpt lat="44.7303726" lon="7.3504509"><ele>314.4</ele><time>2026-04-18T12:43:35.009Z</time></trkpt><trkpt lat="44.7303595" lon="7.3505789"><ele>314.2</ele><time>2026-04-18T12:43:36.008Z</time></trkpt><trkpt lat="44.7303255" lon="7.3506902"><ele>314.0</ele><time>2026-04-18T12:43:37.008Z</time></trkpt><trkpt lat="44.7302889" lon="7.3507963"><ele>313.59999999999997</ele><time>2026-04-18T12:43:38.008Z</time></trkpt><trkpt lat="44.7302741" lon="7.3508923"><ele>313.2</ele><time>2026-04-18T12:43:39.008Z</time></trkpt><trkpt lat="44.7302925" lon="7.3509928"><ele>312.79999999999995</ele><time>2026-04-18T12:43:40.008Z</time></trkpt><trkpt lat="44.7303405" lon="7.3510858"><ele>312.4</ele><time>2026-04-18T12:43:41.009Z</time></trkpt><trkpt lat="44.7304217" lon="7.3511808"><ele>312.0</ele><time>2026-04-18T12:43:42.008Z</time></trkpt><trkpt lat="44.7305006" lon="7.3513132"><ele>311.3333333333333</ele><time>2026-04-18T12:43:43.009Z</time></trkpt><trkpt lat="44.7305623" lon="7.3514861"><ele>310.66666666666663</ele><time>2026-04-18T12:43:44.009Z</time></trkpt><trkpt lat="44.7306005" lon="7.3516918"><ele>310.0</ele><time>2026-04-18T12:43:45.009Z</time></trkpt><trkpt lat="44.7306222" lon="7.3519182"><ele>310.0</ele><time>2026-04-18T12:43:46.009Z</time></trkpt><trkpt lat="44.7306329" lon="7.352167"><ele>310.0</ele><time>2026-04-18T12:43:47.008Z</time></trkpt><trkpt lat="44.7306368" lon="7.352411"><ele>310.0</ele><time>2026-04-18T12:43:48.009Z</time></trkpt><trkpt lat="44.7306384" lon="7.3526562"><ele>309.3333333333333</ele><time>2026-04-18T12:43:49.008Z</time></trkpt><trkpt lat="44.7306365" lon="7.3529182"><ele>308.6666666666667</ele><time>2026-04-18T12:43:50.009Z</time></trkpt><trkpt lat="44.7306332" lon="7.3531872"><ele>308.0</ele><time>2026-04-18T12:43:51.008Z</time></trkpt><trkpt lat="44.7306308" lon="7.3534357"><ele>307.6666666666667</ele><time>2026-04-18T12:43:52.009Z</time></trkpt><trkpt lat="44.7306299" lon="7.3536765"><ele>307.3333333333333</ele><time>2026-04-18T12:43:53.009Z</time></trkpt><trkpt lat="44.730634" lon="7.3539063"><ele>307.0</ele><time>2026-04-18T12:43:54.009Z</time></trkpt><trkpt lat="44.730649" lon="7.3541254"><ele>306.3333333333333</ele><time>2026-04-18T12:43:55.009Z</time></trkpt><trkpt lat="44.7306717" lon="7.3543519"><ele>305.6666666666667</ele><time>2026-04-18T12:43:56.008Z</time></trkpt><trkpt lat="44.7307018" lon="7.3545852"><ele>305.0</ele><time>2026-04-18T12:43:57.009Z</time></trkpt><trkpt lat="44.7307407" lon="7.3548234"><ele>304.6666666666667</ele><time>2026-04-18T12:43:58.009Z</time></trkpt><trkpt lat="44.7307876" lon="7.3550663"><ele>304.3333333333333</ele><time>2026-04-18T12:43:59.008Z</time></trkpt><trkpt lat="44.7308413" lon="7.3553114"><ele>304.0</ele><time>2026-04-18T12:44:00.008Z</time></trkpt><trkpt lat="44.7309095" lon="7.3555558"><ele>303.66666666666663</ele><time>2026-04-18T12:44:01.009Z</time></trkpt><trkpt lat="44.7309858" lon="7.3558009"><ele>303.3333333333333</ele><time>2026-04-18T12:44:02.008Z</time></trkpt><trkpt lat="44.7310759" lon="7.3560465"><ele>303.0</ele><time>2026-04-18T12:44:03.009Z</time></trkpt><trkpt lat="44.7311745" lon="7.3562843"><ele>302.6666666666667</ele><time>2026-04-18T12:44:04.008Z</time></trkpt><trkpt lat="44.7312773" lon="7.3565137"><ele>302.33333333333337</ele><time>2026-04-18T12:44:05.008Z</time></trkpt><trkpt lat="44.7313903" lon="7.3567324"><ele>302.0</ele><time>2026-04-18T12:44:06.009Z</time></trkpt><trkpt lat="44.7315123" lon="7.3569432"><ele>302.0</ele><time>2026-04-18T12:44:07.009Z</time></trkpt><trkpt lat="44.7316369" lon="7.3571476"><ele>302.0</ele><time>2026-04-18T12:44:08.008Z</time></trkpt><trkpt lat="44.7317661" lon="7.3573395"><ele>302.0</ele><time>2026-04-18T12:44:09.009Z</time></trkpt><trkpt lat="44.7319038" lon="7.3575229"><ele>301.0</ele><time>2026-04-18T12:44:10.008Z</time></trkpt><trkpt lat="44.7320486" lon="7.3576917"><ele>300.0</ele><time>2026-04-18T12:44:11.008Z</time></trkpt><trkpt lat="44.7321971" lon="7.3578516"><ele>299.0</ele><time>2026-04-18T12:44:12.008Z</time></trkpt><trkpt lat="44.7323524" lon="7.3580027"><ele>298.6666666666667</ele><time>2026-04-18T12:44:13.008Z</time></trkpt><trkpt lat="44.7325128" lon="7.3581466"><ele>298.3333333333333</ele><time>2026-04-18T12:44:14.008Z</time></trkpt><trkpt lat="44.7326802" lon="7.3582812"><ele>298.0</ele><time>2026-04-18T12:44:15.009Z</time></trkpt><trkpt lat="44.7328467" lon="7.3584146"><ele>298.0</ele><time>2026-04-18T12:44:16.009Z</time></trkpt><trkpt lat="44.733015" lon="7.3585492"><ele>298.0</ele><time>2026-04-18T12:44:17.009Z</time></trkpt><trkpt lat="44.7331854" lon="7.3586804"><ele>298.0</ele><time>2026-04-18T12:44:18.008Z</time></trkpt><trkpt lat="44.7333563" lon="7.3588152"><ele>297.3333333333333</ele><time>2026-04-18T12:44:19.008Z</time></trkpt><trkpt lat="44.7335256" lon="7.3589533"><ele>296.6666666666667</ele><time>2026-04-18T12:44:20.009Z</time></trkpt><trkpt lat="44.7336984" lon="7.35909"><ele>296.0</ele><time>2026-04-18T12:44:21.009Z</time></trkpt><trkpt lat="44.7338718" lon="7.3592259"><ele>296.0</ele><time>2026-04-18T12:44:22.008Z</time></trkpt><trkpt lat="44.7340465" lon="7.3593595"><ele>296.0</ele><time>2026-04-18T12:44:23.008Z</time></trkpt><trkpt lat="44.7342191" lon="7.3594953"><ele>296.0</ele><time>2026-04-18T12:44:24.009Z</time></trkpt><trkpt lat="44.7343908" lon="7.3596344"><ele>295.0</ele><time>2026-04-18T12:44:25.009Z</time></trkpt><trkpt lat="44.7345608" lon="7.3597718"><ele>294.0</ele><time>2026-04-18T12:44:26.009Z</time></trkpt><trkpt lat="44.7347316" lon="7.359904"><ele>293.0</ele><time>2026-04-18T12:44:27.009Z</time></trkpt><trkpt lat="44.7349009" lon="7.3600398"><ele>293.0</ele><time>2026-04-18T12:44:28.008Z</time></trkpt><trkpt lat="44.7350683" lon="7.360175"><ele>293.0</ele><time>2026-04-18T12:44:29.009Z</time></trkpt><trkpt lat="44.735235" lon="7.3603081"><ele>293.0</ele><time>2026-04-18T12:44:30.008Z</time></trkpt><trkpt lat="44.735402" lon="7.36044"><ele>293.0</ele><time>2026-04-18T12:44:31.008Z</time></trkpt><trkpt lat="44.735566" lon="7.3605694"><ele>293.0</ele><time>2026-04-18T12:44:32.009Z</time></trkpt><trkpt lat="44.7357305" lon="7.3607"><ele>293.0</ele><time>2026-04-18T12:44:33.009Z</time></trkpt><trkpt lat="44.7358954" lon="7.3608286"><ele>292.6666666666667</ele><time>2026-04-18T12:44:34.009Z</time></trkpt><trkpt lat="44.7360605" lon="7.3609569"><ele>292.3333333333333</ele><time>2026-04-18T12:44:35.009Z</time></trkpt><trkpt lat="44.736225" lon="7.3610885"><ele>292.0</ele><time>2026-04-18T12:44:36.007Z</time></trkpt><trkpt lat="44.7363889" lon="7.3612215"><ele>292.0</ele><time>2026-04-18T12:44:37.008Z</time></trkpt><trkpt lat="44.7365544" lon="7.361361"><ele>292.0</ele><time>2026-04-18T12:44:38.009Z</time></trkpt><trkpt lat="44.7367191" lon="7.3615112"><ele>292.0</ele><time>2026-04-18T12:44:39.009Z</time></trkpt><trkpt lat="44.7368785" lon="7.3616761"><ele>291.0</ele><time>2026-04-18T12:44:40.009Z</time></trkpt><trkpt lat="44.7370346" lon="7.3618535"><ele>290.0</ele><time>2026-04-18T12:44:41.009Z</time></trkpt><trkpt lat="44.7371851" lon="7.3620431"><ele>289.0</ele><time>2026-04-18T12:44:42.009Z</time></trkpt><trkpt lat="44.737328" lon="7.3622463"><ele>289.0</ele><time>2026-04-18T12:44:43.009Z</time></trkpt><trkpt lat="44.7374645" lon="7.3624598"><ele>289.0</ele><time>2026-04-18T12:44:44.009Z</time></trkpt><trkpt lat="44.7375925" lon="7.3626861"><ele>289.0</ele><time>2026-04-18T12:44:45.008Z</time></trkpt><trkpt lat="44.7377083" lon="7.3629229"><ele>288.66666666666663</ele><time>2026-04-18T12:44:46.009Z</time></trkpt><trkpt lat="44.7378131" lon="7.3631647"><ele>288.3333333333333</ele><time>2026-04-18T12:44:47.009Z</time></trkpt><trkpt lat="44.7379083" lon="7.3634122"><ele>288.0</ele><time>2026-04-18T12:44:48.009Z</time></trkpt><trkpt lat="44.7379947" lon="7.3636668"><ele>287.6666666666667</ele><time>2026-04-18T12:44:49.009Z</time></trkpt><trkpt lat="44.7380749" lon="7.3639342"><ele>287.33333333333337</ele><time>2026-04-18T12:44:50.009Z</time></trkpt><trkpt lat="44.7381533" lon="7.364211"><ele>287.0</ele><time>2026-04-18T12:44:51.009Z</time></trkpt><trkpt lat="44.7382309" lon="7.3644954"><ele>286.33333333333337</ele><time>2026-04-18T12:44:52.009Z</time></trkpt><trkpt lat="44.7383108" lon="7.3647896"><ele>285.6666666666667</ele><time>2026-04-18T12:44:53.009Z</time></trkpt><trkpt lat="44.7383851" lon="7.365073"><ele>285.0</ele><time>2026-04-18T12:44:54.007Z</time></trkpt><trkpt lat="44.7384586" lon="7.3653547"><ele>284.3333333333333</ele><time>2026-04-18T12:44:55.009Z</time></trkpt><trkpt lat="44.7385312" lon="7.3656333"><ele>283.66666666666663</ele><time>2026-04-18T12:44:56.008Z</time></trkpt><trkpt lat="44.7386034" lon="7.3659088"><ele>283.0</ele><time>2026-04-18T12:44:57.008Z</time></trkpt><trkpt lat="44.7386775" lon="7.3661819"><ele>282.66666666666663</ele><time>2026-04-18T12:44:58.008Z</time></trkpt><trkpt lat="44.7387497" lon="7.3664557"><ele>282.3333333333333</ele><time>2026-04-18T12:44:59.008Z</time></trkpt><trkpt lat="44.7388217" lon="7.3667303"><ele>282.0</ele><time>2026-04-18T12:45:00.008Z</time></trkpt><trkpt lat="44.738893" lon="7.3670067"><ele>282.0</ele><time>2026-04-18T12:45:01.009Z</time></trkpt><trkpt lat="44.738965" lon="7.367286"><ele>282.0</ele><time>2026-04-18T12:45:02.008Z</time></trkpt><trkpt lat="44.7390415" lon="7.3675664"><ele>282.0</ele><time>2026-04-18T12:45:03.009Z</time></trkpt><trkpt lat="44.7391158" lon="7.3678418"><ele>282.3333333333333</ele><time>2026-04-18T12:45:04.009Z</time></trkpt><trkpt lat="44.7391913" lon="7.3681154"><ele>282.66666666666663</ele><time>2026-04-18T12:45:05.009Z</time></trkpt><trkpt lat="44.7392674" lon="7.3683876"><ele>283.0</ele><time>2026-04-18T12:45:06.009Z</time></trkpt><trkpt lat="44.7393382" lon="7.3686589"><ele>282.3333333333333</ele><time>2026-04-18T12:45:07.008Z</time></trkpt><trkpt lat="44.7394153" lon="7.3689385"><ele>281.6666666666667</ele><time>2026-04-18T12:45:08.008Z</time></trkpt><trkpt lat="44.7394938" lon="7.3692357"><ele>281.0</ele><time>2026-04-18T12:45:09.008Z</time></trkpt><trkpt lat="44.7395717" lon="7.369528"><ele>281.0</ele><time>2026-04-18T12:45:10.009Z</time></trkpt><trkpt lat="44.7396517" lon="7.3698135"><ele>281.0</ele><time>2026-04-18T12:45:11.009Z</time></trkpt><trkpt lat="44.7397329" lon="7.3700833"><ele>281.0</ele><time>2026-04-18T12:45:12.008Z</time></trkpt><trkpt lat="44.7398324" lon="7.3703689"><ele>280.0</ele><time>2026-04-18T12:45:13.009Z</time></trkpt><trkpt lat="44.7399394" lon="7.3706652"><ele>279.0</ele><time>2026-04-18T12:45:14.009Z</time></trkpt><trkpt lat="44.7400385" lon="7.3709438"><ele>279.0</ele><time>2026-04-18T12:45:15.009Z</time></trkpt><trkpt lat="44.7401443" lon="7.3712245"><ele>279.0</ele><time>2026-04-18T12:45:16.009Z</time></trkpt><trkpt lat="44.7402647" lon="7.3715082"><ele>280.0</ele><time>2026-04-18T12:45:17.008Z</time></trkpt><trkpt lat="44.740391" lon="7.3717835"><ele>281.0</ele><time>2026-04-18T12:45:18.008Z</time></trkpt><trkpt lat="44.7405225" lon="7.3720419"><ele>281.0</ele><time>2026-04-18T12:45:19.008Z</time></trkpt><trkpt lat="44.7406582" lon="7.3722921"><ele>281.0</ele><time>2026-04-18T12:45:20.009Z</time></trkpt><trkpt lat="44.7407958" lon="7.3725351"><ele>281.0</ele><time>2026-04-18T12:45:21.008Z</time></trkpt><trkpt lat="44.740933" lon="7.372769"><ele>281.33333333333337</ele><time>2026-04-18T12:45:22.009Z</time></trkpt><trkpt lat="44.7410697" lon="7.372998"><ele>281.6666666666667</ele><time>2026-04-18T12:45:23.008Z</time></trkpt><trkpt lat="44.7412049" lon="7.3732234"><ele>282.0</ele><time>2026-04-18T12:45:24.009Z</time></trkpt><trkpt lat="44.7413391" lon="7.3734508"><ele>281.3333333333333</ele><time>2026-04-18T12:45:25.008Z</time></trkpt><trkpt lat="44.7414748" lon="7.3736771"><ele>280.66666666666663</ele><time>2026-04-18T12:45:26.008Z</time></trkpt><trkpt lat="44.7416121" lon="7.3739028"><ele>280.0</ele><time>2026-04-18T12:45:27.008Z</time></trkpt><trkpt lat="44.7417483" lon="7.3741278"><ele>280.0</ele><time>2026-04-18T12:45:28.009Z</time></trkpt><trkpt lat="44.7418798" lon="7.374349"><ele>280.0</ele><time>2026-04-18T12:45:29.009Z</time></trkpt><trkpt lat="44.7420124" lon="7.3745694"><ele>280.0</ele><time>2026-04-18T12:45:30.008Z</time></trkpt><trkpt lat="44.7421466" lon="7.3747956"><ele>279.66666666666663</ele><time>2026-04-18T12:45:31.009Z</time></trkpt><trkpt lat="44.7422832" lon="7.3750246"><ele>279.3333333333333</ele><time>2026-04-18T12:45:32.009Z</time></trkpt><trkpt lat="44.7424159" lon="7.3752471"><ele>279.0</ele><time>2026-04-18T12:45:33.008Z</time></trkpt><trkpt lat="44.7425412" lon="7.3754558"><ele>278.6666666666667</ele><time>2026-04-18T12:45:34.007Z</time></trkpt><trkpt lat="44.7426544" lon="7.375661"><ele>278.33333333333337</ele><time>2026-04-18T12:45:35.009Z</time></trkpt><trkpt lat="44.7427497" lon="7.3758655"><ele>278.0</ele><time>2026-04-18T12:45:36.009Z</time></trkpt><trkpt lat="44.742843" lon="7.3760966"><ele>278.0</ele><time>2026-04-18T12:45:37.007Z</time></trkpt><trkpt lat="44.7429374" lon="7.3763607"><ele>278.0</ele><time>2026-04-18T12:45:38.008Z</time></trkpt><trkpt lat="44.7430248" lon="7.3766505"><ele>278.0</ele><time>2026-04-18T12:45:39.009Z</time></trkpt><trkpt lat="44.7430921" lon="7.3769389"><ele>278.33333333333337</ele><time>2026-04-18T12:45:40.009Z</time></trkpt><trkpt lat="44.743141" lon="7.3772176"><ele>278.6666666666667</ele><time>2026-04-18T12:45:41.008Z</time></trkpt><trkpt lat="44.7431784" lon="7.3774952"><ele>279.0</ele><time>2026-04-18T12:45:42.008Z</time></trkpt><trkpt lat="44.7432092" lon="7.3777771"><ele>278.6666666666667</ele><time>2026-04-18T12:45:43.009Z</time></trkpt><trkpt lat="44.7432397" lon="7.3780654"><ele>278.33333333333337</ele><time>2026-04-18T12:45:44.009Z</time></trkpt><trkpt lat="44.7432716" lon="7.3783574"><ele>278.0</ele><time>2026-04-18T12:45:45.008Z</time></trkpt><trkpt lat="44.7433052" lon="7.3786579"><ele>278.0</ele><time>2026-04-18T12:45:46.008Z</time></trkpt><trkpt lat="44.7433373" lon="7.3789595"><ele>278.0</ele><time>2026-04-18T12:45:47.009Z</time></trkpt><trkpt lat="44.7433647" lon="7.3792369"><ele>278.0</ele><time>2026-04-18T12:45:48.008Z</time></trkpt><trkpt lat="44.7433919" lon="7.3795039"><ele>277.33333333333337</ele><time>2026-04-18T12:45:49.009Z</time></trkpt><trkpt lat="44.7434168" lon="7.3797546"><ele>276.6666666666667</ele><time>2026-04-18T12:45:50.009Z</time></trkpt><trkpt lat="44.7434412" lon="7.3799934"><ele>276.0</ele><time>2026-04-18T12:45:51.009Z</time></trkpt><trkpt lat="44.7434658" lon="7.3802336"><ele>276.0</ele><time>2026-04-18T12:45:52.009Z</time></trkpt><trkpt lat="44.7434917" lon="7.3804904"><ele>276.0</ele><time>2026-04-18T12:45:53.008Z</time></trkpt><trkpt lat="44.7435093" lon="7.3807593"><ele>276.0</ele><time>2026-04-18T12:45:54.008Z</time></trkpt><trkpt lat="44.7435141" lon="7.3810439"><ele>276.3333333333333</ele><time>2026-04-18T12:45:55.008Z</time></trkpt><trkpt lat="44.7435037" lon="7.3813444"><ele>276.66666666666663</ele><time>2026-04-18T12:45:56.009Z</time></trkpt><trkpt lat="44.7434756" lon="7.3816572"><ele>277.0</ele><time>2026-04-18T12:45:57.008Z</time></trkpt><trkpt lat="44.7434359" lon="7.3819768"><ele>276.66666666666663</ele><time>2026-04-18T12:45:58.007Z</time></trkpt><trkpt lat="44.7433896" lon="7.382286"><ele>276.3333333333333</ele><time>2026-04-18T12:45:59.008Z</time></trkpt><trkpt lat="44.7433391" lon="7.3825909"><ele>276.0</ele><time>2026-04-18T12:46:00.009Z</time></trkpt><trkpt lat="44.7432887" lon="7.3828944"><ele>276.0</ele><time>2026-04-18T12:46:01.008Z</time></trkpt><trkpt lat="44.7432365" lon="7.3831976"><ele>276.0</ele><time>2026-04-18T12:46:02.008Z</time></trkpt><trkpt lat="44.7431855" lon="7.3834984"><ele>276.0</ele><time>2026-04-18T12:46:03.009Z</time></trkpt><trkpt lat="44.7431388" lon="7.3838007"><ele>275.3333333333333</ele><time>2026-04-18T12:46:04.009Z</time></trkpt><trkpt lat="44.7431032" lon="7.3841004"><ele>274.66666666666663</ele><time>2026-04-18T12:46:05.007Z</time></trkpt><trkpt lat="44.7430792" lon="7.3843912"><ele>274.0</ele><time>2026-04-18T12:46:06.009Z</time></trkpt><trkpt lat="44.7430654" lon="7.3846852"><ele>274.0</ele><time>2026-04-18T12:46:07.009Z</time></trkpt><trkpt lat="44.7430598" lon="7.3849773"><ele>274.0</ele><time>2026-04-18T12:46:08.009Z</time></trkpt><trkpt lat="44.7430616" lon="7.385273"><ele>274.0</ele><time>2026-04-18T12:46:09.009Z</time></trkpt><trkpt lat="44.7430766" lon="7.3855627"><ele>274.0</ele><time>2026-04-18T12:46:10.008Z</time></trkpt><trkpt lat="44.7430973" lon="7.3858556"><ele>274.0</ele><time>2026-04-18T12:46:11.009Z</time></trkpt><trkpt lat="44.7431301" lon="7.386151"><ele>274.0</ele><time>2026-04-18T12:46:12.009Z</time></trkpt><trkpt lat="44.7431732" lon="7.3864499"><ele>273.66666666666663</ele><time>2026-04-18T12:46:13.008Z</time></trkpt><trkpt lat="44.7432286" lon="7.3867508"><ele>273.3333333333333</ele><time>2026-04-18T12:46:14.008Z</time></trkpt><trkpt lat="44.743296" lon="7.3870388"><ele>273.0</ele><time>2026-04-18T12:46:15.009Z</time></trkpt><trkpt lat="44.7433691" lon="7.3873105"><ele>273.0</ele><time>2026-04-18T12:46:16.008Z</time></trkpt><trkpt lat="44.7434436" lon="7.3875742"><ele>273.0</ele><time>2026-04-18T12:46:17.009Z</time></trkpt><trkpt lat="44.7435225" lon="7.3878297"><ele>273.0</ele><time>2026-04-18T12:46:18.009Z</time></trkpt><trkpt lat="44.7435987" lon="7.3880795"><ele>273.3333333333333</ele><time>2026-04-18T12:46:19.009Z</time></trkpt><trkpt lat="44.7436788" lon="7.388329"><ele>273.66666666666663</ele><time>2026-04-18T12:46:20.009Z</time></trkpt><trkpt lat="44.7437745" lon="7.3885997"><ele>274.0</ele><time>2026-04-18T12:46:21.009Z</time></trkpt><trkpt lat="44.7438738" lon="7.3888852"><ele>274.5</ele><time>2026-04-18T12:46:22.008Z</time></trkpt><trkpt lat="44.7439729" lon="7.3891985"><ele>275.0</ele><time>2026-04-18T12:46:23.008Z</time></trkpt><trkpt lat="44.7440614" lon="7.3895191"><ele>274.6666666666667</ele><time>2026-04-18T12:46:24.008Z</time></trkpt><trkpt lat="44.7441363" lon="7.3898231"><ele>274.3333333333333</ele><time>2026-04-18T12:46:25.008Z</time></trkpt><trkpt lat="44.7442008" lon="7.3901112"><ele>274.0</ele><time>2026-04-18T12:46:26.008Z</time></trkpt><trkpt lat="44.7442611" lon="7.3903936"><ele>274.0</ele><time>2026-04-18T12:46:27.009Z</time></trkpt><trkpt lat="44.7443145" lon="7.3906748"><ele>274.0</ele><time>2026-04-18T12:46:28.009Z</time></trkpt><trkpt lat="44.7443638" lon="7.390957"><ele>274.0</ele><time>2026-04-18T12:46:29.009Z</time></trkpt><trkpt lat="44.7444065" lon="7.3912428"><ele>273.66666666666663</ele><time>2026-04-18T12:46:30.009Z</time></trkpt><trkpt lat="44.7444431" lon="7.3915278"><ele>273.3333333333333</ele><time>2026-04-18T12:46:31.009Z</time></trkpt><trkpt lat="44.7444733" lon="7.3918137"><ele>273.0</ele><time>2026-04-18T12:46:32.008Z</time></trkpt><trkpt lat="44.7445" lon="7.3921002"><ele>273.0</ele><time>2026-04-18T12:46:33.009Z</time></trkpt><trkpt lat="44.7445205" lon="7.3923867"><ele>273.0</ele><time>2026-04-18T12:46:34.009Z</time></trkpt><trkpt lat="44.7445315" lon="7.3926683"><ele>273.0</ele><time>2026-04-18T12:46:35.008Z</time></trkpt><trkpt lat="44.7445385" lon="7.3929472"><ele>272.6666666666667</ele><time>2026-04-18T12:46:36.009Z</time></trkpt><trkpt lat="44.7445401" lon="7.3932261"><ele>272.33333333333337</ele><time>2026-04-18T12:46:37.008Z</time></trkpt><trkpt lat="44.7445446" lon="7.3935022"><ele>272.0</ele><time>2026-04-18T12:46:38.009Z</time></trkpt><trkpt lat="44.744541" lon="7.3937795"><ele>272.0</ele><time>2026-04-18T12:46:39.009Z</time></trkpt><trkpt lat="44.7445433" lon="7.3940599"><ele>272.0</ele><time>2026-04-18T12:46:40.008Z</time></trkpt><trkpt lat="44.7445498" lon="7.3943428"><ele>272.0</ele><time>2026-04-18T12:46:41.008Z</time></trkpt><trkpt lat="44.7445703" lon="7.3946276"><ele>272.0</ele><time>2026-04-18T12:46:42.008Z</time></trkpt><trkpt lat="44.7445978" lon="7.3949163"><ele>272.0</ele><time>2026-04-18T12:46:43.008Z</time></trkpt><trkpt lat="44.7446353" lon="7.3952066"><ele>272.0</ele><time>2026-04-18T12:46:44.008Z</time></trkpt><trkpt lat="44.7446822" lon="7.3954939"><ele>272.0</ele><time>2026-04-18T12:46:45.008Z</time></trkpt><trkpt lat="44.7447374" lon="7.3957861"><ele>272.0</ele><time>2026-04-18T12:46:46.008Z</time></trkpt><trkpt lat="44.7447955" lon="7.3960904"><ele>272.0</ele><time>2026-04-18T12:46:47.009Z</time></trkpt><trkpt lat="44.7448589" lon="7.3964024"><ele>271.5</ele><time>2026-04-18T12:46:48.009Z</time></trkpt><trkpt lat="44.7449232" lon="7.3967249"><ele>271.0</ele><time>2026-04-18T12:46:49.008Z</time></trkpt><trkpt lat="44.7449883" lon="7.3970502"><ele>271.5</ele><time>2026-04-18T12:46:50.009Z</time></trkpt><trkpt lat="44.7450496" lon="7.3973794"><ele>272.0</ele><time>2026-04-18T12:46:51.007Z</time></trkpt><trkpt lat="44.7451154" lon="7.3977077"><ele>271.5</ele><time>2026-04-18T12:46:52.009Z</time></trkpt><trkpt lat="44.7451829" lon="7.3980388"><ele>271.0</ele><time>2026-04-18T12:46:53.008Z</time></trkpt><trkpt lat="44.7452487" lon="7.3983671"><ele>271.0</ele><time>2026-04-18T12:46:54.009Z</time></trkpt><trkpt lat="44.7453155" lon="7.3986966"><ele>271.0</ele><time>2026-04-18T12:46:55.009Z</time></trkpt><trkpt lat="44.7453819" lon="7.3990256"><ele>271.0</ele><time>2026-04-18T12:46:56.008Z</time></trkpt><trkpt lat="44.745451" lon="7.3993571"><ele>271.0</ele><time>2026-04-18T12:46:57.008Z</time></trkpt><trkpt lat="44.7455163" lon="7.3996867"><ele>271.0</ele><time>2026-04-18T12:46:58.008Z</time></trkpt><trkpt lat="44.7455826" lon="7.4000144"><ele>271.0</ele><time>2026-04-18T12:46:59.008Z</time></trkpt><trkpt lat="44.7456461" lon="7.4003402"><ele>271.5</ele><time>2026-04-18T12:47:00.008Z</time></trkpt><trkpt lat="44.7457103" lon="7.400662"><ele>272.0</ele><time>2026-04-18T12:47:01.009Z</time></trkpt><trkpt lat="44.7457713" lon="7.4009788"><ele>272.0</ele><time>2026-04-18T12:47:02.008Z</time></trkpt><trkpt lat="44.7458326" lon="7.4012892"><ele>272.0</ele><time>2026-04-18T12:47:03.008Z</time></trkpt><trkpt lat="44.7458947" lon="7.4015958"><ele>272.0</ele><time>2026-04-18T12:47:04.009Z</time></trkpt><trkpt lat="44.7459542" lon="7.4018995"><ele>272.0</ele><time>2026-04-18T12:47:05.008Z</time></trkpt><trkpt lat="44.7460155" lon="7.4021947"><ele>272.0</ele><time>2026-04-18T12:47:06.009Z</time></trkpt><trkpt lat="44.7460779" lon="7.4024825"><ele>272.0</ele><time>2026-04-18T12:47:07.009Z</time></trkpt><trkpt lat="44.7461388" lon="7.4027672"><ele>272.0</ele><time>2026-04-18T12:47:08.008Z</time></trkpt><trkpt lat="44.746197" lon="7.4030588"><ele>272.0</ele><time>2026-04-18T12:47:09.009Z</time></trkpt><trkpt lat="44.746254" lon="7.4033456"><ele>272.33333333333337</ele><time>2026-04-18T12:47:10.009Z</time></trkpt><trkpt lat="44.746311" lon="7.4036373"><ele>272.6666666666667</ele><time>2026-04-18T12:47:11.009Z</time></trkpt><trkpt lat="44.7463651" lon="7.4039289"><ele>273.0</ele><time>2026-04-18T12:47:12.009Z</time></trkpt><trkpt lat="44.7464148" lon="7.4042202"><ele>273.0</ele><time>2026-04-18T12:47:13.008Z</time></trkpt><trkpt lat="44.7464563" lon="7.4045122"><ele>273.0</ele><time>2026-04-18T12:47:14.009Z</time></trkpt><trkpt lat="44.7464855" lon="7.4048047"><ele>273.0</ele><time>2026-04-18T12:47:15.007Z</time></trkpt><trkpt lat="44.7465048" lon="7.4050982"><ele>272.3333333333333</ele><time>2026-04-18T12:47:16.009Z</time></trkpt><trkpt lat="44.7465151" lon="7.405396"><ele>271.66666666666663</ele><time>2026-04-18T12:47:17.008Z</time></trkpt><trkpt lat="44.7465094" lon="7.405691"><ele>271.0</ele><time>2026-04-18T12:47:18.008Z</time></trkpt><trkpt lat="44.7464997" lon="7.4059894"><ele>270.3333333333333</ele><time>2026-04-18T12:47:19.008Z</time></trkpt><trkpt lat="44.7464792" lon="7.4062913"><ele>269.6666666666667</ele><time>2026-04-18T12:47:20.008Z</time></trkpt><trkpt lat="44.7464591" lon="7.4065919"><ele>269.0</ele><time>2026-04-18T12:47:21.009Z</time></trkpt><trkpt lat="44.7464386" lon="7.4068882"><ele>269.33333333333337</ele><time>2026-04-18T12:47:22.009Z</time></trkpt><trkpt lat="44.7464204" lon="7.4071758"><ele>269.6666666666667</ele><time>2026-04-18T12:47:23.009Z</time></trkpt><trkpt lat="44.7464013" lon="7.4074468"><ele>270.0</ele><time>2026-04-18T12:47:24.009Z</time></trkpt><trkpt lat="44.7463836" lon="7.407708"><ele>270.0</ele><time>2026-04-18T12:47:25.009Z</time></trkpt><trkpt lat="44.7463654" lon="7.4079662"><ele>270.0</ele><time>2026-04-18T12:47:26.009Z</time></trkpt><trkpt lat="44.746349" lon="7.4082098"><ele>270.0</ele><time>2026-04-18T12:47:27.01Z</time></trkpt><trkpt lat="44.7463317" lon="7.4084396"><ele>270.75</ele><time>2026-04-18T12:47:28.009Z</time></trkpt><trkpt lat="44.7463144" lon="7.4086554"><ele>271.5</ele><time>2026-04-18T12:47:29.008Z</time></trkpt><trkpt lat="44.7462998" lon="7.40886"><ele>272.25</ele><time>2026-04-18T12:47:30.009Z</time></trkpt><trkpt lat="44.7462797" lon="7.4090518"><ele>273.0</ele><time>2026-04-18T12:47:31.008Z</time></trkpt><trkpt lat="44.7462409" lon="7.4092162"><ele>273.0</ele><time>2026-04-18T12:47:32.008Z</time></trkpt><trkpt lat="44.7461833" lon="7.409364"><ele>273.0</ele><time>2026-04-18T12:47:33.009Z</time></trkpt><trkpt lat="44.7461075" lon="7.4094791"><ele>273.0</ele><time>2026-04-18T12:47:34.009Z</time></trkpt><trkpt lat="44.7460213" lon="7.4095624"><ele>273.0</ele><time>2026-04-18T12:47:35.008Z</time></trkpt><trkpt lat="44.7459445" lon="7.4096511"><ele>273.0</ele><time>2026-04-18T12:47:36.008Z</time></trkpt><trkpt lat="44.7458947" lon="7.4097599"><ele>272.6</ele><time>2026-04-18T12:47:37.008Z</time></trkpt><trkpt lat="44.7458782" lon="7.4098739"><ele>272.20000000000005</ele><time>2026-04-18T12:47:38.009Z</time></trkpt><trkpt lat="44.745897" lon="7.4099893"><ele>271.8</ele><time>2026-04-18T12:47:39.009Z</time></trkpt><trkpt lat="44.7459443" lon="7.4100996"><ele>271.40000000000003</ele><time>2026-04-18T12:47:40.009Z</time></trkpt><trkpt lat="44.7460185" lon="7.4102181"><ele>271.0</ele><time>2026-04-18T12:47:41.009Z</time></trkpt><trkpt lat="44.7460875" lon="7.4103667"><ele>271.0</ele><time>2026-04-18T12:47:42.008Z</time></trkpt><trkpt lat="44.7461315" lon="7.4105458"><ele>271.0</ele><time>2026-04-18T12:47:43.01Z</time></trkpt><trkpt lat="44.7461551" lon="7.4107525"><ele>271.0</ele><time>2026-04-18T12:47:44.008Z</time></trkpt><trkpt lat="44.7461617" lon="7.4109795"><ele>271.0</ele><time>2026-04-18T12:47:45.008Z</time></trkpt><trkpt lat="44.7461514" lon="7.4112041"><ele>270.66666666666663</ele><time>2026-04-18T12:47:46.009Z</time></trkpt><trkpt lat="44.7461379" lon="7.411432"><ele>270.3333333333333</ele><time>2026-04-18T12:47:47.008Z</time></trkpt><trkpt lat="44.7461266" lon="7.4116463"><ele>270.0</ele><time>2026-04-18T12:47:48.009Z</time></trkpt><trkpt lat="44.7461189" lon="7.4118471"><ele>270.0</ele><time>2026-04-18T12:47:49.009Z</time></trkpt><trkpt lat="44.7461077" lon="7.4120493"><ele>270.0</ele><time>2026-04-18T12:47:50.008Z</time></trkpt><trkpt lat="44.7460978" lon="7.4122595"><ele>270.0</ele><time>2026-04-18T12:47:51.009Z</time></trkpt><trkpt lat="44.746086" lon="7.4124692"><ele>270.0</ele><time>2026-04-18T12:47:52.009Z</time></trkpt><trkpt lat="44.7460728" lon="7.4126857"><ele>270.3333333333333</ele><time>2026-04-18T12:47:53.009Z</time></trkpt><trkpt lat="44.7460598" lon="7.4129133"><ele>270.66666666666663</ele><time>2026-04-18T12:47:54.009Z</time></trkpt><trkpt lat="44.7460472" lon="7.4131554"><ele>271.0</ele><time>2026-04-18T12:47:55.008Z</time></trkpt><trkpt lat="44.7460344" lon="7.4133961"><ele>271.0</ele><time>2026-04-18T12:47:56.008Z</time></trkpt><trkpt lat="44.7460231" lon="7.413624"><ele>271.0</ele><time>2026-04-18T12:47:57.009Z</time></trkpt><trkpt lat="44.7460124" lon="7.4138708"><ele>271.0</ele><time>2026-04-18T12:47:58.009Z</time></trkpt><trkpt lat="44.7459999" lon="7.4141231"><ele>270.3333333333333</ele><time>2026-04-18T12:47:59.009Z</time></trkpt><trkpt lat="44.7459879" lon="7.4143815"><ele>269.6666666666667</ele><time>2026-04-18T12:48:00.009Z</time></trkpt><trkpt lat="44.7459754" lon="7.4146489"><ele>269.0</ele><time>2026-04-18T12:48:01.008Z</time></trkpt><trkpt lat="44.7459638" lon="7.4149217"><ele>268.6666666666667</ele><time>2026-04-18T12:48:02.009Z</time></trkpt><trkpt lat="44.7459478" lon="7.4151962"><ele>268.3333333333333</ele><time>2026-04-18T12:48:03.009Z</time></trkpt><trkpt lat="44.7459303" lon="7.4154674"><ele>268.0</ele><time>2026-04-18T12:48:04.008Z</time></trkpt><trkpt lat="44.7459159" lon="7.4157382"><ele>268.0</ele><time>2026-04-18T12:48:05.009Z</time></trkpt><trkpt lat="44.7459007" lon="7.4160102"><ele>268.0</ele><time>2026-04-18T12:48:06.008Z</time></trkpt><trkpt lat="44.7458867" lon="7.4162839"><ele>268.0</ele><time>2026-04-18T12:48:07.009Z</time></trkpt><trkpt lat="44.7458741" lon="7.4165584"><ele>268.0</ele><time>2026-04-18T12:48:08.009Z</time></trkpt><trkpt lat="44.7458615" lon="7.4168308"><ele>268.0</ele><time>2026-04-18T12:48:09.008Z</time></trkpt><trkpt lat="44.7458481" lon="7.4171027"><ele>268.0</ele><time>2026-04-18T12:48:10.008Z</time></trkpt><trkpt lat="44.7458328" lon="7.4173721"><ele>267.66666666666663</ele><time>2026-04-18T12:48:11.009Z</time></trkpt><trkpt lat="44.7458156" lon="7.4176389"><ele>267.3333333333333</ele><time>2026-04-18T12:48:12.009Z</time></trkpt><trkpt lat="44.7458001" lon="7.417906"><ele>267.0</ele><time>2026-04-18T12:48:13.008Z</time></trkpt><trkpt lat="44.7457857" lon="7.4181737"><ele>267.0</ele><time>2026-04-18T12:48:14.009Z</time></trkpt><trkpt lat="44.7457738" lon="7.4184359"><ele>267.0</ele><time>2026-04-18T12:48:15.009Z</time></trkpt><trkpt lat="44.7457606" lon="7.4187038"><ele>267.0</ele><time>2026-04-18T12:48:16.009Z</time></trkpt><trkpt lat="44.7457443" lon="7.4189787"><ele>267.0</ele><time>2026-04-18T12:48:17.007Z</time></trkpt><trkpt lat="44.7457309" lon="7.4192563"><ele>267.0</ele><time>2026-04-18T12:48:18.009Z</time></trkpt><trkpt lat="44.7457156" lon="7.419539"><ele>267.0</ele><time>2026-04-18T12:48:19.009Z</time></trkpt><trkpt lat="44.7456984" lon="7.4198259"><ele>266.6666666666667</ele><time>2026-04-18T12:48:20.009Z</time></trkpt><trkpt lat="44.7456813" lon="7.420117"><ele>266.33333333333337</ele><time>2026-04-18T12:48:21.009Z</time></trkpt><trkpt lat="44.7456651" lon="7.4204147"><ele>266.0</ele><time>2026-04-18T12:48:22.009Z</time></trkpt><trkpt lat="44.7456465" lon="7.4207163"><ele>266.0</ele><time>2026-04-18T12:48:23.009Z</time></trkpt><trkpt lat="44.7456292" lon="7.4210256"><ele>266.0</ele><time>2026-04-18T12:48:24.009Z</time></trkpt><trkpt lat="44.745615" lon="7.4213374"><ele>266.0</ele><time>2026-04-18T12:48:25.009Z</time></trkpt><trkpt lat="44.7455967" lon="7.4216464"><ele>265.6666666666667</ele><time>2026-04-18T12:48:26.009Z</time></trkpt><trkpt lat="44.7455782" lon="7.4219375"><ele>265.3333333333333</ele><time>2026-04-18T12:48:27.009Z</time></trkpt><trkpt lat="44.74556" lon="7.4222406"><ele>265.0</ele><time>2026-04-18T12:48:28.009Z</time></trkpt><trkpt lat="44.7455443" lon="7.4225462"><ele>265.0</ele><time>2026-04-18T12:48:29.008Z</time></trkpt><trkpt lat="44.7455317" lon="7.4228513"><ele>265.0</ele><time>2026-04-18T12:48:30.009Z</time></trkpt><trkpt lat="44.7455158" lon="7.4231616"><ele>265.0</ele><time>2026-04-18T12:48:31.009Z</time></trkpt><trkpt lat="44.7454994" lon="7.4234739"><ele>265.66666666666663</ele><time>2026-04-18T12:48:32.009Z</time></trkpt><trkpt lat="44.7454787" lon="7.4237793"><ele>266.3333333333333</ele><time>2026-04-18T12:48:33.008Z</time></trkpt><trkpt lat="44.7454479" lon="7.4240804"><ele>267.0</ele><time>2026-04-18T12:48:34.008Z</time></trkpt><trkpt lat="44.7453995" lon="7.4243928"><ele>266.0</ele><time>2026-04-18T12:48:35.008Z</time></trkpt><trkpt lat="44.7453338" lon="7.4247314"><ele>265.0</ele><time>2026-04-18T12:48:36.009Z</time></trkpt><trkpt lat="44.745263" lon="7.4250821"><ele>265.0</ele><time>2026-04-18T12:48:37.009Z</time></trkpt><trkpt lat="44.7451946" lon="7.4254128"><ele>265.0</ele><time>2026-04-18T12:48:38.008Z</time></trkpt><trkpt lat="44.7451311" lon="7.4257215"><ele>265.0</ele><time>2026-04-18T12:48:39.008Z</time></trkpt><trkpt lat="44.7450737" lon="7.426018"><ele>265.0</ele><time>2026-04-18T12:48:40.009Z</time></trkpt><trkpt lat="44.7450148" lon="7.4263078"><ele>265.0</ele><time>2026-04-18T12:48:41.009Z</time></trkpt><trkpt lat="44.7449578" lon="7.4265941"><ele>265.0</ele><time>2026-04-18T12:48:42.009Z</time></trkpt><trkpt lat="44.7449026" lon="7.4268828"><ele>265.0</ele><time>2026-04-18T12:48:43.008Z</time></trkpt><trkpt lat="44.7448498" lon="7.4271723"><ele>265.0</ele><time>2026-04-18T12:48:44.008Z</time></trkpt><trkpt lat="44.7447944" lon="7.4274621"><ele>264.66666666666663</ele><time>2026-04-18T12:48:45.008Z</time></trkpt><trkpt lat="44.7447367" lon="7.4277491"><ele>264.3333333333333</ele><time>2026-04-18T12:48:46.008Z</time></trkpt><trkpt lat="44.7446795" lon="7.4280335"><ele>264.0</ele><time>2026-04-18T12:48:47.008Z</time></trkpt><trkpt lat="44.7446237" lon="7.4283191"><ele>264.0</ele><time>2026-04-18T12:48:48.008Z</time></trkpt><trkpt lat="44.7445689" lon="7.4286051"><ele>264.0</ele><time>2026-04-18T12:48:49.009Z</time></trkpt><trkpt lat="44.744512" lon="7.4288922"><ele>264.0</ele><time>2026-04-18T12:48:50.009Z</time></trkpt><trkpt lat="44.7444535" lon="7.4291811"><ele>264.3333333333333</ele><time>2026-04-18T12:48:51.008Z</time></trkpt><trkpt lat="44.7443959" lon="7.4294718"><ele>264.66666666666663</ele><time>2026-04-18T12:48:52.008Z</time></trkpt><trkpt lat="44.7443416" lon="7.4297626"><ele>265.0</ele><time>2026-04-18T12:48:53.007Z</time></trkpt><trkpt lat="44.7442869" lon="7.4300507"><ele>265.0</ele><time>2026-04-18T12:48:54.007Z</time></trkpt><trkpt lat="44.7442313" lon="7.4303335"><ele>265.0</ele><time>2026-04-18T12:48:55.007Z</time></trkpt><trkpt lat="44.7441761" lon="7.430617"><ele>265.0</ele><time>2026-04-18T12:48:56.008Z</time></trkpt><trkpt lat="44.7441208" lon="7.4309049"><ele>264.66666666666663</ele><time>2026-04-18T12:48:57.008Z</time></trkpt><trkpt lat="44.7440671" lon="7.4311949"><ele>264.3333333333333</ele><time>2026-04-18T12:48:58.007Z</time></trkpt><trkpt lat="44.7440098" lon="7.4314853"><ele>264.0</ele><time>2026-04-18T12:48:59.008Z</time></trkpt><trkpt lat="44.7439516" lon="7.4317781"><ele>263.3333333333333</ele><time>2026-04-18T12:49:00.008Z</time></trkpt><trkpt lat="44.7438936" lon="7.4320702"><ele>262.66666666666663</ele><time>2026-04-18T12:49:01.008Z</time></trkpt><trkpt lat="44.7438351" lon="7.4323649"><ele>262.0</ele><time>2026-04-18T12:49:02.007Z</time></trkpt><trkpt lat="44.7437752" lon="7.4326591"><ele>262.0</ele><time>2026-04-18T12:49:03.008Z</time></trkpt><trkpt lat="44.7437162" lon="7.4329555"><ele>262.0</ele><time>2026-04-18T12:49:04.007Z</time></trkpt><trkpt lat="44.7436545" lon="7.4332548"><ele>262.0</ele><time>2026-04-18T12:49:05.008Z</time></trkpt><trkpt lat="44.7435936" lon="7.4335575"><ele>262.0</ele><time>2026-04-18T12:49:06.008Z</time></trkpt><trkpt lat="44.7435337" lon="7.4338623"><ele>262.0</ele><time>2026-04-18T12:49:07.008Z</time></trkpt><trkpt lat="44.7434723" lon="7.4341681"><ele>262.0</ele><time>2026-04-18T12:49:08.008Z</time></trkpt><trkpt lat="44.7434111" lon="7.4344754"><ele>262.0</ele><time>2026-04-18T12:49:09.007Z</time></trkpt><trkpt lat="44.7433496" lon="7.4347785"><ele>262.0</ele><time>2026-04-18T12:49:10.007Z</time></trkpt><trkpt lat="44.7432882" lon="7.435081"><ele>262.0</ele><time>2026-04-18T12:49:11.008Z</time></trkpt><trkpt lat="44.743227" lon="7.4353815"><ele>262.0</ele><time>2026-04-18T12:49:12.008Z</time></trkpt><trkpt lat="44.7431671" lon="7.4356782"><ele>262.0</ele><time>2026-04-18T12:49:13.008Z</time></trkpt><trkpt lat="44.7431097" lon="7.4359705"><ele>262.0</ele><time>2026-04-18T12:49:14.008Z</time></trkpt><trkpt lat="44.7430531" lon="7.436262"><ele>262.0</ele><time>2026-04-18T12:49:15.008Z</time></trkpt><trkpt lat="44.7429954" lon="7.4365483"><ele>262.0</ele><time>2026-04-18T12:49:16.007Z</time></trkpt><trkpt lat="44.7429457" lon="7.4368197"><ele>262.0</ele><time>2026-04-18T12:49:17.007Z</time></trkpt><trkpt lat="44.7429022" lon="7.4370835"><ele>262.0</ele><time>2026-04-18T12:49:18.007Z</time></trkpt><trkpt lat="44.7428645" lon="7.4373336"><ele>262.0</ele><time>2026-04-18T12:49:19.007Z</time></trkpt><trkpt lat="44.7428328" lon="7.437585"><ele>262.0</ele><time>2026-04-18T12:49:20.007Z</time></trkpt><trkpt lat="44.7428077" lon="7.4378378"><ele>262.0</ele><time>2026-04-18T12:49:21.008Z</time></trkpt><trkpt lat="44.7427897" lon="7.4380949"><ele>262.0</ele><time>2026-04-18T12:49:22.007Z</time></trkpt><trkpt lat="44.7427728" lon="7.4383568"><ele>262.0</ele><time>2026-04-18T12:49:23.007Z</time></trkpt><trkpt lat="44.7427548" lon="7.4386193"><ele>262.0</ele><time>2026-04-18T12:49:24.008Z</time></trkpt><trkpt lat="44.7427403" lon="7.4388968"><ele>262.3333333333333</ele><time>2026-04-18T12:49:25.007Z</time></trkpt><trkpt lat="44.7427239" lon="7.4391778"><ele>262.6666666666667</ele><time>2026-04-18T12:49:26.008Z</time></trkpt><trkpt lat="44.7427073" lon="7.4394616"><ele>263.0</ele><time>2026-04-18T12:49:27.007Z</time></trkpt><trkpt lat="44.7426905" lon="7.4397571"><ele>262.0</ele><time>2026-04-18T12:49:28.008Z</time></trkpt><trkpt lat="44.7426749" lon="7.4400604"><ele>261.0</ele><time>2026-04-18T12:49:29.007Z</time></trkpt><trkpt lat="44.7426597" lon="7.4403591"><ele>260.0</ele><time>2026-04-18T12:49:30.008Z</time></trkpt><trkpt lat="44.7426415" lon="7.4406574"><ele>259.6666666666667</ele><time>2026-04-18T12:49:31.008Z</time></trkpt><trkpt lat="44.7426261" lon="7.4409434"><ele>259.3333333333333</ele><time>2026-04-18T12:49:32.008Z</time></trkpt><trkpt lat="44.7426121" lon="7.4412319"><ele>259.0</ele><time>2026-04-18T12:49:33.008Z</time></trkpt><trkpt lat="44.7425961" lon="7.4415204"><ele>259.0</ele><time>2026-04-18T12:49:34.007Z</time></trkpt><trkpt lat="44.7425774" lon="7.4418139"><ele>259.0</ele><time>2026-04-18T12:49:35.007Z</time></trkpt><trkpt lat="44.7425568" lon="7.4421123"><ele>259.0</ele><time>2026-04-18T12:49:36.008Z</time></trkpt><trkpt lat="44.7425399" lon="7.4424111"><ele>259.0</ele><time>2026-04-18T12:49:37.007Z</time></trkpt><trkpt lat="44.7425218" lon="7.4427097"><ele>259.0</ele><time>2026-04-18T12:49:38.007Z</time></trkpt><trkpt lat="44.7425035" lon="7.4429989"><ele>259.0</ele><time>2026-04-18T12:49:39.007Z</time></trkpt><trkpt lat="44.7424887" lon="7.4432909"><ele>258.66666666666663</ele><time>2026-04-18T12:49:40.007Z</time></trkpt><trkpt lat="44.7424739" lon="7.4435828"><ele>258.3333333333333</ele><time>2026-04-18T12:49:41.008Z</time></trkpt><trkpt lat="44.7424581" lon="7.4438786"><ele>258.0</ele><time>2026-04-18T12:49:42.007Z</time></trkpt><trkpt lat="44.742444" lon="7.4441708"><ele>259.0</ele><time>2026-04-18T12:49:43.006Z</time></trkpt><trkpt lat="44.7424349" lon="7.4444614"><ele>260.0</ele><time>2026-04-18T12:49:44.007Z</time></trkpt><trkpt lat="44.742436" lon="7.4447559"><ele>261.0</ele><time>2026-04-18T12:49:45.008Z</time></trkpt><trkpt lat="44.7424424" lon="7.4450476"><ele>261.0</ele><time>2026-04-18T12:49:46.007Z</time></trkpt><trkpt lat="44.7424585" lon="7.4453403"><ele>261.0</ele><time>2026-04-18T12:49:47.008Z</time></trkpt><trkpt lat="44.7424811" lon="7.4456306"><ele>261.0</ele><time>2026-04-18T12:49:48.008Z</time></trkpt><trkpt lat="44.7425091" lon="7.445921"><ele>260.3333333333333</ele><time>2026-04-18T12:49:49.008Z</time></trkpt><trkpt lat="44.7425536" lon="7.4462036"><ele>259.66666666666663</ele><time>2026-04-18T12:49:50.008Z</time></trkpt><trkpt lat="44.7426089" lon="7.446487"><ele>259.0</ele><time>2026-04-18T12:49:51.008Z</time></trkpt><trkpt lat="44.7426699" lon="7.4467713"><ele>259.0</ele><time>2026-04-18T12:49:52.008Z</time></trkpt><trkpt lat="44.7427395" lon="7.4470517"><ele>259.0</ele><time>2026-04-18T12:49:53.007Z</time></trkpt><trkpt lat="44.7428133" lon="7.4473308"><ele>259.0</ele><time>2026-04-18T12:49:54.008Z</time></trkpt><trkpt lat="44.742896" lon="7.4476099"><ele>259.0</ele><time>2026-04-18T12:49:55.007Z</time></trkpt><trkpt lat="44.7429867" lon="7.4478818"><ele>259.0</ele><time>2026-04-18T12:49:56.007Z</time></trkpt><trkpt lat="44.7430788" lon="7.4481586"><ele>259.0</ele><time>2026-04-18T12:49:57.007Z</time></trkpt><trkpt lat="44.7431734" lon="7.4484361"><ele>258.66666666666663</ele><time>2026-04-18T12:49:58.007Z</time></trkpt><trkpt lat="44.7432682" lon="7.448716"><ele>258.3333333333333</ele><time>2026-04-18T12:49:59.008Z</time></trkpt><trkpt lat="44.7433633" lon="7.4489951"><ele>258.0</ele><time>2026-04-18T12:50:00.007Z</time></trkpt><trkpt lat="44.7434609" lon="7.4492773"><ele>258.6666666666667</ele><time>2026-04-18T12:50:01.007Z</time></trkpt><trkpt lat="44.7435564" lon="7.4495597"><ele>259.33333333333337</ele><time>2026-04-18T12:50:02.008Z</time></trkpt><trkpt lat="44.7436517" lon="7.4498418"><ele>260.0</ele><time>2026-04-18T12:50:03.007Z</time></trkpt><trkpt lat="44.7437441" lon="7.4501234"><ele>260.0</ele><time>2026-04-18T12:50:04.008Z</time></trkpt><trkpt lat="44.7438368" lon="7.4503987"><ele>260.0</ele><time>2026-04-18T12:50:05.008Z</time></trkpt><trkpt lat="44.7439301" lon="7.4506733"><ele>260.0</ele><time>2026-04-18T12:50:06.007Z</time></trkpt><trkpt lat="44.7440229" lon="7.4509483"><ele>260.0</ele><time>2026-04-18T12:50:07.008Z</time></trkpt><trkpt lat="44.7441175" lon="7.4512241"><ele>260.0</ele><time>2026-04-18T12:50:08.008Z</time></trkpt><trkpt lat="44.7442088" lon="7.4515002"><ele>260.0</ele><time>2026-04-18T12:50:09.008Z</time></trkpt><trkpt lat="44.7443043" lon="7.4517769"><ele>259.33333333333337</ele><time>2026-04-18T12:50:10.007Z</time></trkpt><trkpt lat="44.7443944" lon="7.4520492"><ele>258.6666666666667</ele><time>2026-04-18T12:50:11.007Z</time></trkpt><trkpt lat="44.7444851" lon="7.4523225"><ele>258.0</ele><time>2026-04-18T12:50:12.007Z</time></trkpt><trkpt lat="44.7445764" lon="7.4525982"><ele>258.0</ele><time>2026-04-18T12:50:13.008Z</time></trkpt><trkpt lat="44.7446693" lon="7.4528726"><ele>258.0</ele><time>2026-04-18T12:50:14.008Z</time></trkpt><trkpt lat="44.7447618" lon="7.4531503"><ele>258.0</ele><time>2026-04-18T12:50:15.007Z</time></trkpt><trkpt lat="44.7448543" lon="7.4534285"><ele>258.0</ele><time>2026-04-18T12:50:16.008Z</time></trkpt><trkpt lat="44.7449447" lon="7.4537018"><ele>258.0</ele><time>2026-04-18T12:50:17.008Z</time></trkpt><trkpt lat="44.7450344" lon="7.4539786"><ele>258.0</ele><time>2026-04-18T12:50:18.007Z</time></trkpt><trkpt lat="44.7451263" lon="7.4542539"><ele>257.6666666666667</ele><time>2026-04-18T12:50:19.008Z</time></trkpt><trkpt lat="44.7452186" lon="7.4545264"><ele>257.33333333333337</ele><time>2026-04-18T12:50:20.008Z</time></trkpt><trkpt lat="44.7453108" lon="7.4547996"><ele>257.0</ele><time>2026-04-18T12:50:21.007Z</time></trkpt><trkpt lat="44.7454006" lon="7.455072"><ele>257.0</ele><time>2026-04-18T12:50:22.008Z</time></trkpt><trkpt lat="44.7454929" lon="7.4553441"><ele>257.0</ele><time>2026-04-18T12:50:23.008Z</time></trkpt><trkpt lat="44.7455847" lon="7.4556177"><ele>257.0</ele><time>2026-04-18T12:50:24.008Z</time></trkpt><trkpt lat="44.7456775" lon="7.4558922"><ele>257.0</ele><time>2026-04-18T12:50:25.008Z</time></trkpt><trkpt lat="44.7457669" lon="7.4561654"><ele>257.0</ele><time>2026-04-18T12:50:26.008Z</time></trkpt><trkpt lat="44.745857" lon="7.4564353"><ele>257.0</ele><time>2026-04-18T12:50:27.008Z</time></trkpt><trkpt lat="44.7459562" lon="7.456696"><ele>257.0</ele><time>2026-04-18T12:50:28.008Z</time></trkpt><trkpt lat="44.7460694" lon="7.4569462"><ele>257.0</ele><time>2026-04-18T12:50:29.007Z</time></trkpt><trkpt lat="44.7461915" lon="7.4571807"><ele>257.0</ele><time>2026-04-18T12:50:30.007Z</time></trkpt><trkpt lat="44.7463248" lon="7.4573996"><ele>257.0</ele><time>2026-04-18T12:50:31.007Z</time></trkpt><trkpt lat="44.7464767" lon="7.4576014"><ele>257.0</ele><time>2026-04-18T12:50:32.008Z</time></trkpt><trkpt lat="44.746641" lon="7.4577858"><ele>257.0</ele><time>2026-04-18T12:50:33.008Z</time></trkpt><trkpt lat="44.7468115" lon="7.4579551"><ele>257.0</ele><time>2026-04-18T12:50:34.007Z</time></trkpt><trkpt lat="44.7469934" lon="7.4581141"><ele>257.0</ele><time>2026-04-18T12:50:35.007Z</time></trkpt><trkpt lat="44.7471751" lon="7.4582664"><ele>257.0</ele><time>2026-04-18T12:50:36.006Z</time></trkpt><trkpt lat="44.7473587" lon="7.4584195"><ele>257.0</ele><time>2026-04-18T12:50:37.007Z</time></trkpt><trkpt lat="44.7475369" lon="7.4585726"><ele>257.0</ele><time>2026-04-18T12:50:38.008Z</time></trkpt><trkpt lat="44.7477095" lon="7.4587189"><ele>257.0</ele><time>2026-04-18T12:50:39.008Z</time></trkpt><trkpt lat="44.7478774" lon="7.4588593"><ele>256.33333333333337</ele><time>2026-04-18T12:50:40.008Z</time></trkpt><trkpt lat="44.7480382" lon="7.4589934"><ele>255.66666666666669</ele><time>2026-04-18T12:50:41.008Z</time></trkpt><trkpt lat="44.7482003" lon="7.4591314"><ele>255.0</ele><time>2026-04-18T12:50:42.007Z</time></trkpt><trkpt lat="44.748371" lon="7.4592682"><ele>255.33333333333331</ele><time>2026-04-18T12:50:43.007Z</time></trkpt><trkpt lat="44.7485448" lon="7.4594147"><ele>255.66666666666666</ele><time>2026-04-18T12:50:44.008Z</time></trkpt><trkpt lat="44.7487126" lon="7.4595585"><ele>256.0</ele><time>2026-04-18T12:50:45.008Z</time></trkpt><trkpt lat="44.7488685" lon="7.4597112"><ele>256.0</ele><time>2026-04-18T12:50:46.008Z</time></trkpt><trkpt lat="44.7490149" lon="7.4598862"><ele>256.0</ele><time>2026-04-18T12:50:47.008Z</time></trkpt><trkpt lat="44.7491464" lon="7.4600889"><ele>256.0</ele><time>2026-04-18T12:50:48.007Z</time></trkpt><trkpt lat="44.749268" lon="7.460326"><ele>256.0</ele><time>2026-04-18T12:50:49.007Z</time></trkpt><trkpt lat="44.7493799" lon="7.4605756"><ele>256.0</ele><time>2026-04-18T12:50:50.008Z</time></trkpt><trkpt lat="44.7494711" lon="7.4608246"><ele>256.0</ele><time>2026-04-18T12:50:51.008Z</time></trkpt><trkpt lat="44.7495343" lon="7.4610735"><ele>256.0</ele><time>2026-04-18T12:50:52.007Z</time></trkpt><trkpt lat="44.7495709" lon="7.4613219"><ele>256.0</ele><time>2026-04-18T12:50:53.007Z</time></trkpt><trkpt lat="44.7495752" lon="7.4615654"><ele>256.0</ele><time>2026-04-18T12:50:54.007Z</time></trkpt><trkpt lat="44.7495557" lon="7.461818"><ele>256.0</ele><time>2026-04-18T12:50:55.007Z</time></trkpt><trkpt lat="44.7495203" lon="7.4620752"><ele>256.0</ele><time>2026-04-18T12:50:56.008Z</time></trkpt><trkpt lat="44.7494778" lon="7.4623384"><ele>256.0</ele><time>2026-04-18T12:50:57.008Z</time></trkpt><trkpt lat="44.7494449" lon="7.46261"><ele>256.0</ele><time>2026-04-18T12:50:58.007Z</time></trkpt><trkpt lat="44.7494372" lon="7.4628786"><ele>256.0</ele><time>2026-04-18T12:50:59.008Z</time></trkpt><trkpt lat="44.7494598" lon="7.4631416"><ele>256.0</ele><time>2026-04-18T12:51:00.008Z</time></trkpt><trkpt lat="44.7495149" lon="7.4634129"><ele>256.0</ele><time>2026-04-18T12:51:01.007Z</time></trkpt><trkpt lat="44.7495979" lon="7.4636906"><ele>256.0</ele><time>2026-04-18T12:51:02.008Z</time></trkpt><trkpt lat="44.7496966" lon="7.463982"><ele>256.0</ele><time>2026-04-18T12:51:03.008Z</time></trkpt><trkpt lat="44.7498135" lon="7.4642963"><ele>255.5</ele><time>2026-04-18T12:51:04.007Z</time></trkpt><trkpt lat="44.7499484" lon="7.4646193"><ele>255.0</ele><time>2026-04-18T12:51:05.008Z</time></trkpt><trkpt lat="44.7500906" lon="7.4649322"><ele>255.5</ele><time>2026-04-18T12:51:06.008Z</time></trkpt><trkpt lat="44.7502228" lon="7.4652209"><ele>256.0</ele><time>2026-04-18T12:51:07.007Z</time></trkpt><trkpt lat="44.7503502" lon="7.4654972"><ele>256.0</ele><time>2026-04-18T12:51:08.008Z</time></trkpt><trkpt lat="44.7504721" lon="7.4657589"><ele>256.0</ele><time>2026-04-18T12:51:09.008Z</time></trkpt><trkpt lat="44.7505859" lon="7.4660081"><ele>256.0</ele><time>2026-04-18T12:51:10.007Z</time></trkpt><trkpt lat="44.7506954" lon="7.466246"><ele>256.0</ele><time>2026-04-18T12:51:11.007Z</time></trkpt><trkpt lat="44.7508027" lon="7.4664694"><ele>256.0</ele><time>2026-04-18T12:51:12.008Z</time></trkpt><trkpt lat="44.7509096" lon="7.4666936"><ele>256.0</ele><time>2026-04-18T12:51:13.008Z</time></trkpt><trkpt lat="44.7510013" lon="7.4669362"><ele>256.3333333333333</ele><time>2026-04-18T12:51:14.007Z</time></trkpt><trkpt lat="44.7510678" lon="7.4672004"><ele>256.6666666666667</ele><time>2026-04-18T12:51:15.007Z</time></trkpt><trkpt lat="44.7511254" lon="7.4674633"><ele>257.0</ele><time>2026-04-18T12:51:16.007Z</time></trkpt><trkpt lat="44.7511692" lon="7.4677372"><ele>257.33333333333337</ele><time>2026-04-18T12:51:17.007Z</time></trkpt><trkpt lat="44.7511846" lon="7.4680251"><ele>257.6666666666667</ele><time>2026-04-18T12:51:18.008Z</time></trkpt><trkpt lat="44.7511848" lon="7.4683319"><ele>258.0</ele><time>2026-04-18T12:51:19.007Z</time></trkpt><trkpt lat="44.7511824" lon="7.468657"><ele>258.0</ele><time>2026-04-18T12:51:20.008Z</time></trkpt><trkpt lat="44.7511787" lon="7.46898"><ele>258.0</ele><time>2026-04-18T12:51:21.007Z</time></trkpt><trkpt lat="44.7511731" lon="7.4692897"><ele>258.0</ele><time>2026-04-18T12:51:22.007Z</time></trkpt><trkpt lat="44.7511653" lon="7.4695972"><ele>257.6666666666667</ele><time>2026-04-18T12:51:23.007Z</time></trkpt><trkpt lat="44.7511566" lon="7.4698978"><ele>257.33333333333337</ele><time>2026-04-18T12:51:24.008Z</time></trkpt><trkpt lat="44.7511495" lon="7.4701937"><ele>257.0</ele><time>2026-04-18T12:51:25.007Z</time></trkpt><trkpt lat="44.7511446" lon="7.4704841"><ele>256.6666666666667</ele><time>2026-04-18T12:51:26.007Z</time></trkpt><trkpt lat="44.7511399" lon="7.4707665"><ele>256.3333333333333</ele><time>2026-04-18T12:51:27.008Z</time></trkpt><trkpt lat="44.7511348" lon="7.4710445"><ele>256.0</ele><time>2026-04-18T12:51:28.007Z</time></trkpt><trkpt lat="44.7511297" lon="7.471322"><ele>256.0</ele><time>2026-04-18T12:51:29.008Z</time></trkpt><trkpt lat="44.7511245" lon="7.4716014"><ele>256.0</ele><time>2026-04-18T12:51:30.008Z</time></trkpt><trkpt lat="44.7511183" lon="7.4718831"><ele>256.0</ele><time>2026-04-18T12:51:31.006Z</time></trkpt><trkpt lat="44.751112" lon="7.4721669"><ele>256.3333333333333</ele><time>2026-04-18T12:51:32.008Z</time></trkpt><trkpt lat="44.7511084" lon="7.4724509"><ele>256.6666666666667</ele><time>2026-04-18T12:51:33.008Z</time></trkpt><trkpt lat="44.7511049" lon="7.4727383"><ele>257.0</ele><time>2026-04-18T12:51:34.007Z</time></trkpt><trkpt lat="44.7511006" lon="7.4730292"><ele>257.0</ele><time>2026-04-18T12:51:35.008Z</time></trkpt><trkpt lat="44.7510939" lon="7.4733242"><ele>257.0</ele><time>2026-04-18T12:51:36.007Z</time></trkpt><trkpt lat="44.7510898" lon="7.4736158"><ele>257.0</ele><time>2026-04-18T12:51:37.007Z</time></trkpt><trkpt lat="44.7510857" lon="7.4739001"><ele>257.33333333333337</ele><time>2026-04-18T12:51:38.008Z</time></trkpt><trkpt lat="44.7510811" lon="7.4741842"><ele>257.6666666666667</ele><time>2026-04-18T12:51:39.008Z</time></trkpt><trkpt lat="44.7510749" lon="7.4744627"><ele>258.0</ele><time>2026-04-18T12:51:40.007Z</time></trkpt><trkpt lat="44.7510694" lon="7.4747421"><ele>257.3333333333333</ele><time>2026-04-18T12:51:41.007Z</time></trkpt><trkpt lat="44.7510619" lon="7.4750274"><ele>256.66666666666663</ele><time>2026-04-18T12:51:42.008Z</time></trkpt><trkpt lat="44.7510537" lon="7.475325"><ele>256.0</ele><time>2026-04-18T12:51:43.008Z</time></trkpt><trkpt lat="44.7510484" lon="7.4756321"><ele>255.66666666666666</ele><time>2026-04-18T12:51:44.008Z</time></trkpt><trkpt lat="44.7510432" lon="7.475937"><ele>255.33333333333331</ele><time>2026-04-18T12:51:45.009Z</time></trkpt><trkpt lat="44.7510379" lon="7.4762355"><ele>255.0</ele><time>2026-04-18T12:51:46.008Z</time></trkpt><trkpt lat="44.7510336" lon="7.4765286"><ele>255.0</ele><time>2026-04-18T12:51:47.008Z</time></trkpt><trkpt lat="44.7510282" lon="7.4768062"><ele>255.0</ele><time>2026-04-18T12:51:48.008Z</time></trkpt><trkpt lat="44.7510222" lon="7.4770653"><ele>255.0</ele><time>2026-04-18T12:51:49.008Z</time></trkpt><trkpt lat="44.7510167" lon="7.4773067"><ele>255.33333333333331</ele><time>2026-04-18T12:51:50.008Z</time></trkpt><trkpt lat="44.751016" lon="7.4775349"><ele>255.66666666666666</ele><time>2026-04-18T12:51:51.007Z</time></trkpt><trkpt lat="44.7510283" lon="7.4777498"><ele>256.0</ele><time>2026-04-18T12:51:52.007Z</time></trkpt><trkpt lat="44.7510488" lon="7.4779422"><ele>255.5</ele><time>2026-04-18T12:51:53.008Z</time></trkpt><trkpt lat="44.7510724" lon="7.4781226"><ele>255.0</ele><time>2026-04-18T12:51:54.007Z</time></trkpt><trkpt lat="44.7510996" lon="7.478307"><ele>254.5</ele><time>2026-04-18T12:51:55.008Z</time></trkpt><trkpt lat="44.7511261" lon="7.4784874"><ele>254.0</ele><time>2026-04-18T12:51:56.008Z</time></trkpt><trkpt lat="44.7511496" lon="7.4786561"><ele>254.0</ele><time>2026-04-18T12:51:57.006Z</time></trkpt><trkpt lat="44.7511742" lon="7.4788234"><ele>254.0</ele><time>2026-04-18T12:51:58.008Z</time></trkpt><trkpt lat="44.7512143" lon="7.4790092"><ele>254.0</ele><time>2026-04-18T12:51:59.008Z</time></trkpt><trkpt lat="44.7512779" lon="7.4792073"><ele>254.0</ele><time>2026-04-18T12:52:00.008Z</time></trkpt><trkpt lat="44.7513683" lon="7.4794009"><ele>254.0</ele><time>2026-04-18T12:52:01.008Z</time></trkpt><trkpt lat="44.7514816" lon="7.4795861"><ele>254.0</ele><time>2026-04-18T12:52:02.007Z</time></trkpt><trkpt lat="44.7516182" lon="7.4797518"><ele>254.0</ele><time>2026-04-18T12:52:03.008Z</time></trkpt><trkpt lat="44.7517717" lon="7.4798856"><ele>254.0</ele><time>2026-04-18T12:52:04.007Z</time></trkpt><trkpt lat="44.7519394" lon="7.4799883"><ele>254.0</ele><time>2026-04-18T12:52:05.007Z</time></trkpt><trkpt lat="44.7521269" lon="7.4800654"><ele>254.0</ele><time>2026-04-18T12:52:06.007Z</time></trkpt><trkpt lat="44.7523381" lon="7.4801352"><ele>254.0</ele><time>2026-04-18T12:52:07.008Z</time></trkpt><trkpt lat="44.7525669" lon="7.4802044"><ele>254.0</ele><time>2026-04-18T12:52:08.008Z</time></trkpt><trkpt lat="44.752774" lon="7.4802686"><ele>254.0</ele><time>2026-04-18T12:52:09.008Z</time></trkpt><trkpt lat="44.7529773" lon="7.4803304"><ele>254.0</ele><time>2026-04-18T12:52:10.008Z</time></trkpt><trkpt lat="44.7531779" lon="7.4803992"><ele>254.0</ele><time>2026-04-18T12:52:11.007Z</time></trkpt><trkpt lat="44.7533794" lon="7.4804948"><ele>254.0</ele><time>2026-04-18T12:52:12.006Z</time></trkpt><trkpt lat="44.7535778" lon="7.4806198"><ele>254.0</ele><time>2026-04-18T12:52:13.007Z</time></trkpt><trkpt lat="44.7537743" lon="7.4807556"><ele>254.0</ele><time>2026-04-18T12:52:14.008Z</time></trkpt><trkpt lat="44.7539707" lon="7.4808885"><ele>254.0</ele><time>2026-04-18T12:52:15.007Z</time></trkpt><trkpt lat="44.7541725" lon="7.4810232"><ele>254.0</ele><time>2026-04-18T12:52:16.007Z</time></trkpt><trkpt lat="44.7543678" lon="7.481158"><ele>254.0</ele><time>2026-04-18T12:52:17.008Z</time></trkpt><trkpt lat="44.7545624" lon="7.481283"><ele>254.0</ele><time>2026-04-18T12:52:18.008Z</time></trkpt><trkpt lat="44.7547527" lon="7.4813861"><ele>254.0</ele><time>2026-04-18T12:52:19.008Z</time></trkpt><trkpt lat="44.7549487" lon="7.4814673"><ele>254.0</ele><time>2026-04-18T12:52:20.008Z</time></trkpt><trkpt lat="44.7551475" lon="7.4815118"><ele>254.0</ele><time>2026-04-18T12:52:21.008Z</time></trkpt><trkpt lat="44.7553497" lon="7.4815323"><ele>253.33333333333334</ele><time>2026-04-18T12:52:22.008Z</time></trkpt><trkpt lat="44.7555574" lon="7.481524"><ele>252.66666666666669</ele><time>2026-04-18T12:52:23.007Z</time></trkpt><trkpt lat="44.7557677" lon="7.4814834"><ele>252.0</ele><time>2026-04-18T12:52:24.008Z</time></trkpt><trkpt lat="44.7559788" lon="7.4814185"><ele>252.66666666666669</ele><time>2026-04-18T12:52:25.007Z</time></trkpt><trkpt lat="44.756193" lon="7.4813422"><ele>253.33333333333334</ele><time>2026-04-18T12:52:26.007Z</time></trkpt><trkpt lat="44.75641" lon="7.4812628"><ele>254.0</ele><time>2026-04-18T12:52:27.008Z</time></trkpt><trkpt lat="44.7566274" lon="7.4811847"><ele>254.0</ele><time>2026-04-18T12:52:28.008Z</time></trkpt><trkpt lat="44.7568465" lon="7.4811057"><ele>254.0</ele><time>2026-04-18T12:52:29.007Z</time></trkpt><trkpt lat="44.7570611" lon="7.4810273"><ele>254.0</ele><time>2026-04-18T12:52:30.007Z</time></trkpt><trkpt lat="44.7572653" lon="7.4809506"><ele>254.0</ele><time>2026-04-18T12:52:31.007Z</time></trkpt><trkpt lat="44.757465" lon="7.4808796"><ele>254.0</ele><time>2026-04-18T12:52:32.006Z</time></trkpt><trkpt lat="44.7576613" lon="7.4808082"><ele>254.0</ele><time>2026-04-18T12:52:33.008Z</time></trkpt><trkpt lat="44.7578513" lon="7.4807554"><ele>254.0</ele><time>2026-04-18T12:52:34.008Z</time></trkpt><trkpt lat="44.7580347" lon="7.4807291"><ele>254.0</ele><time>2026-04-18T12:52:35.007Z</time></trkpt><trkpt lat="44.7582037" lon="7.4807377"><ele>254.0</ele><time>2026-04-18T12:52:36.007Z</time></trkpt><trkpt lat="44.7583613" lon="7.4807875"><ele>254.0</ele><time>2026-04-18T12:52:37.007Z</time></trkpt><trkpt lat="44.7585075" lon="7.4808722"><ele>254.0</ele><time>2026-04-18T12:52:38.008Z</time></trkpt><trkpt lat="44.7586424" lon="7.4809879"><ele>254.0</ele><time>2026-04-18T12:52:39.008Z</time></trkpt><trkpt lat="44.7587663" lon="7.4811361"><ele>254.0</ele><time>2026-04-18T12:52:40.007Z</time></trkpt><trkpt lat="44.7588713" lon="7.4813134"><ele>254.0</ele><time>2026-04-18T12:52:41.007Z</time></trkpt><trkpt lat="44.758957" lon="7.4815221"><ele>254.0</ele><time>2026-04-18T12:52:42.007Z</time></trkpt><trkpt lat="44.7590243" lon="7.4817636"><ele>254.0</ele><time>2026-04-18T12:52:43.008Z</time></trkpt><trkpt lat="44.7590832" lon="7.4820319"><ele>254.0</ele><time>2026-04-18T12:52:44.008Z</time></trkpt><trkpt lat="44.7591334" lon="7.4823363"><ele>254.0</ele><time>2026-04-18T12:52:45.008Z</time></trkpt><trkpt lat="44.7591933" lon="7.4826719"><ele>254.5</ele><time>2026-04-18T12:52:46.007Z</time></trkpt><trkpt lat="44.7592495" lon="7.4830375"><ele>255.0</ele><time>2026-04-18T12:52:47.008Z</time></trkpt><trkpt lat="44.7592968" lon="7.4834025"><ele>255.0</ele><time>2026-04-18T12:52:48.008Z</time></trkpt><trkpt lat="44.7593416" lon="7.4837443"><ele>255.0</ele><time>2026-04-18T12:52:49.008Z</time></trkpt><trkpt lat="44.759383" lon="7.4840791"><ele>254.5</ele><time>2026-04-18T12:52:50.007Z</time></trkpt><trkpt lat="44.7594256" lon="7.4844121"><ele>254.0</ele><time>2026-04-18T12:52:51.008Z</time></trkpt><trkpt lat="44.7594664" lon="7.4847426"><ele>254.0</ele><time>2026-04-18T12:52:52.007Z</time></trkpt><trkpt lat="44.7595047" lon="7.4850654"><ele>254.0</ele><time>2026-04-18T12:52:53.007Z</time></trkpt><trkpt lat="44.7595447" lon="7.4853906"><ele>254.0</ele><time>2026-04-18T12:52:54.007Z</time></trkpt><trkpt lat="44.7595856" lon="7.4857134"><ele>254.0</ele><time>2026-04-18T12:52:55.007Z</time></trkpt><trkpt lat="44.7596238" lon="7.486031"><ele>254.0</ele><time>2026-04-18T12:52:56.008Z</time></trkpt><trkpt lat="44.759663" lon="7.4863312"><ele>254.0</ele><time>2026-04-18T12:52:57.008Z</time></trkpt><trkpt lat="44.7596991" lon="7.4866247"><ele>254.0</ele><time>2026-04-18T12:52:58.008Z</time></trkpt><trkpt lat="44.7597418" lon="7.4869242"><ele>254.0</ele><time>2026-04-18T12:52:59.007Z</time></trkpt><trkpt lat="44.7597919" lon="7.4872298"><ele>254.0</ele><time>2026-04-18T12:53:00.008Z</time></trkpt><trkpt lat="44.7598423" lon="7.4875375"><ele>254.0</ele><time>2026-04-18T12:53:01.007Z</time></trkpt><trkpt lat="44.7598901" lon="7.4878413"><ele>254.0</ele><time>2026-04-18T12:53:02.008Z</time></trkpt><trkpt lat="44.759933" lon="7.4881227"><ele>254.0</ele><time>2026-04-18T12:53:03.007Z</time></trkpt><trkpt lat="44.7599779" lon="7.4883915"><ele>254.0</ele><time>2026-04-18T12:53:04.007Z</time></trkpt><trkpt lat="44.7600232" lon="7.4886623"><ele>253.66666666666669</ele><time>2026-04-18T12:53:05.007Z</time></trkpt><trkpt lat="44.76007" lon="7.4889309"><ele>253.33333333333331</ele><time>2026-04-18T12:53:06.007Z</time></trkpt><trkpt lat="44.7601371" lon="7.4891711"><ele>253.0</ele><time>2026-04-18T12:53:07.007Z</time></trkpt><trkpt lat="44.7602283" lon="7.4893931"><ele>253.33333333333331</ele><time>2026-04-18T12:53:08.007Z</time></trkpt><trkpt lat="44.760347" lon="7.4896052"><ele>253.66666666666669</ele><time>2026-04-18T12:53:09.008Z</time></trkpt><trkpt lat="44.7604836" lon="7.4898246"><ele>254.0</ele><time>2026-04-18T12:53:10.008Z</time></trkpt><trkpt lat="44.7606447" lon="7.490067"><ele>254.0</ele><time>2026-04-18T12:53:11.008Z</time></trkpt><trkpt lat="44.7608133" lon="7.4903311"><ele>254.0</ele><time>2026-04-18T12:53:12.007Z</time></trkpt><trkpt lat="44.7609678" lon="7.4905764"><ele>254.0</ele><time>2026-04-18T12:53:13.007Z</time></trkpt><trkpt lat="44.7611177" lon="7.4908102"><ele>254.0</ele><time>2026-04-18T12:53:14.007Z</time></trkpt><trkpt lat="44.7612575" lon="7.4910305"><ele>254.0</ele><time>2026-04-18T12:53:15.008Z</time></trkpt><trkpt lat="44.7613837" lon="7.4912279"><ele>254.33333333333334</ele><time>2026-04-18T12:53:16.007Z</time></trkpt><trkpt lat="44.7615078" lon="7.4914012"><ele>254.66666666666669</ele><time>2026-04-18T12:53:17.007Z</time></trkpt><trkpt lat="44.7616407" lon="7.4915438"><ele>255.0</ele><time>2026-04-18T12:53:18.007Z</time></trkpt><trkpt lat="44.7617848" lon="7.4916523"><ele>254.0</ele><time>2026-04-18T12:53:19.007Z</time></trkpt><trkpt lat="44.7619386" lon="7.4917192"><ele>253.0</ele><time>2026-04-18T12:53:20.008Z</time></trkpt><trkpt lat="44.7621075" lon="7.4917511"><ele>252.0</ele><time>2026-04-18T12:53:21.006Z</time></trkpt><trkpt lat="44.7622918" lon="7.4917385"><ele>252.0</ele><time>2026-04-18T12:53:22.007Z</time></trkpt><trkpt lat="44.7624851" lon="7.4916871"><ele>252.0</ele><time>2026-04-18T12:53:23.007Z</time></trkpt><trkpt lat="44.7626946" lon="7.4916202"><ele>252.0</ele><time>2026-04-18T12:53:24.008Z</time></trkpt><trkpt lat="44.7629081" lon="7.4915596"><ele>251.66666666666669</ele><time>2026-04-18T12:53:25.008Z</time></trkpt><trkpt lat="44.7631133" lon="7.4915068"><ele>251.33333333333334</ele><time>2026-04-18T12:53:26.008Z</time></trkpt><trkpt lat="44.7633193" lon="7.4914713"><ele>251.0</ele><time>2026-04-18T12:53:27.006Z</time></trkpt><trkpt lat="44.7635296" lon="7.4914602"><ele>251.0</ele><time>2026-04-18T12:53:28.008Z</time></trkpt><trkpt lat="44.7637499" lon="7.4914633"><ele>251.0</ele><time>2026-04-18T12:53:29.008Z</time></trkpt><trkpt lat="44.7639757" lon="7.4914654"><ele>251.0</ele><time>2026-04-18T12:53:30.008Z</time></trkpt><trkpt lat="44.7642076" lon="7.4914603"><ele>252.0</ele><time>2026-04-18T12:53:31.007Z</time></trkpt><trkpt lat="44.7644512" lon="7.4914364"><ele>253.0</ele><time>2026-04-18T12:53:32.008Z</time></trkpt><trkpt lat="44.7647004" lon="7.4914018"><ele>253.0</ele><time>2026-04-18T12:53:33.008Z</time></trkpt><trkpt lat="44.7649289" lon="7.4913732"><ele>253.0</ele><time>2026-04-18T12:53:34.008Z</time></trkpt><trkpt lat="44.7651502" lon="7.4913499"><ele>253.33333333333331</ele><time>2026-04-18T12:53:35.007Z</time></trkpt><trkpt lat="44.7653733" lon="7.491325"><ele>253.66666666666669</ele><time>2026-04-18T12:53:36.007Z</time></trkpt><trkpt lat="44.7655928" lon="7.4912976"><ele>254.0</ele><time>2026-04-18T12:53:37.007Z</time></trkpt><trkpt lat="44.7658089" lon="7.4912707"><ele>253.33333333333334</ele><time>2026-04-18T12:53:38.007Z</time></trkpt><trkpt lat="44.7660225" lon="7.4912465"><ele>252.66666666666669</ele><time>2026-04-18T12:53:39.007Z</time></trkpt><trkpt lat="44.7662326" lon="7.4912229"><ele>252.0</ele><time>2026-04-18T12:53:40.007Z</time></trkpt><trkpt lat="44.7664436" lon="7.4911971"><ele>252.0</ele><time>2026-04-18T12:53:41.008Z</time></trkpt><trkpt lat="44.7666571" lon="7.4911728"><ele>252.0</ele><time>2026-04-18T12:53:42.008Z</time></trkpt><trkpt lat="44.7668695" lon="7.4911493"><ele>252.0</ele><time>2026-04-18T12:53:43.008Z</time></trkpt><trkpt lat="44.7670871" lon="7.4911226"><ele>252.33333333333331</ele><time>2026-04-18T12:53:44.007Z</time></trkpt><trkpt lat="44.7673081" lon="7.4910964"><ele>252.66666666666666</ele><time>2026-04-18T12:53:45.007Z</time></trkpt><trkpt lat="44.7675335" lon="7.4910704"><ele>253.0</ele><time>2026-04-18T12:53:46.007Z</time></trkpt><trkpt lat="44.7677593" lon="7.4910458"><ele>254.0</ele><time>2026-04-18T12:53:47.008Z</time></trkpt><trkpt lat="44.7679847" lon="7.4910215"><ele>255.0</ele><time>2026-04-18T12:53:48.007Z</time></trkpt><trkpt lat="44.7682085" lon="7.4909956"><ele>255.0</ele><time>2026-04-18T12:53:49.008Z</time></trkpt><trkpt lat="44.7684311" lon="7.4909697"><ele>255.0</ele><time>2026-04-18T12:53:50.007Z</time></trkpt><trkpt lat="44.7686525" lon="7.4909439"><ele>255.0</ele><time>2026-04-18T12:53:51.007Z</time></trkpt><trkpt lat="44.7688747" lon="7.4909169"><ele>255.33333333333331</ele><time>2026-04-18T12:53:52.008Z</time></trkpt><trkpt lat="44.769097" lon="7.4908909"><ele>255.66666666666666</ele><time>2026-04-18T12:53:53.007Z</time></trkpt><trkpt lat="44.7693209" lon="7.4908654"><ele>256.0</ele><time>2026-04-18T12:53:54.007Z</time></trkpt><trkpt lat="44.7695475" lon="7.4908401"><ele>256.5</ele><time>2026-04-18T12:53:55.007Z</time></trkpt><trkpt lat="44.7697748" lon="7.4908155"><ele>257.0</ele><time>2026-04-18T12:53:56.007Z</time></trkpt><trkpt lat="44.7700006" lon="7.4907891"><ele>256.0</ele><time>2026-04-18T12:53:57.008Z</time></trkpt><trkpt lat="44.7702262" lon="7.4907627"><ele>255.0</ele><time>2026-04-18T12:53:58.008Z</time></trkpt><trkpt lat="44.7704515" lon="7.4907359"><ele>255.0</ele><time>2026-04-18T12:53:59.007Z</time></trkpt><trkpt lat="44.7706749" lon="7.4907108"><ele>255.0</ele><time>2026-04-18T12:54:00.008Z</time></trkpt><trkpt lat="44.7708989" lon="7.4906844"><ele>255.0</ele><time>2026-04-18T12:54:01.008Z</time></trkpt><trkpt lat="44.7711247" lon="7.4906559"><ele>254.5</ele><time>2026-04-18T12:54:02.007Z</time></trkpt><trkpt lat="44.7713498" lon="7.490627"><ele>254.0</ele><time>2026-04-18T12:54:03.007Z</time></trkpt><trkpt lat="44.7715739" lon="7.4905993"><ele>254.0</ele><time>2026-04-18T12:54:04.008Z</time></trkpt><trkpt lat="44.7717979" lon="7.4905725"><ele>254.0</ele><time>2026-04-18T12:54:05.008Z</time></trkpt><trkpt lat="44.7720232" lon="7.4905454"><ele>254.33333333333334</ele><time>2026-04-18T12:54:06.007Z</time></trkpt><trkpt lat="44.7722474" lon="7.4905181"><ele>254.66666666666669</ele><time>2026-04-18T12:54:07.007Z</time></trkpt><trkpt lat="44.7724709" lon="7.4904897"><ele>255.0</ele><time>2026-04-18T12:54:08.008Z</time></trkpt><trkpt lat="44.7726942" lon="7.4904611"><ele>255.0</ele><time>2026-04-18T12:54:09.008Z</time></trkpt><trkpt lat="44.7729177" lon="7.4904331"><ele>255.0</ele><time>2026-04-18T12:54:10.008Z</time></trkpt><trkpt lat="44.7731401" lon="7.4904035"><ele>255.0</ele><time>2026-04-18T12:54:11.007Z</time></trkpt><trkpt lat="44.7733616" lon="7.4903716"><ele>255.0</ele><time>2026-04-18T12:54:12.008Z</time></trkpt><trkpt lat="44.7735822" lon="7.4903416"><ele>255.0</ele><time>2026-04-18T12:54:13.008Z</time></trkpt><trkpt lat="44.7738022" lon="7.4903156"><ele>255.0</ele><time>2026-04-18T12:54:14.007Z</time></trkpt><trkpt lat="44.7740226" lon="7.4902941"><ele>255.0</ele><time>2026-04-18T12:54:15.008Z</time></trkpt><trkpt lat="44.7742434" lon="7.4902772"><ele>255.0</ele><time>2026-04-18T12:54:16.008Z</time></trkpt><trkpt lat="44.774467" lon="7.4902578"><ele>255.0</ele><time>2026-04-18T12:54:17.008Z</time></trkpt><trkpt lat="44.7746914" lon="7.4902345"><ele>255.66666666666669</ele><time>2026-04-18T12:54:18.008Z</time></trkpt><trkpt lat="44.774915" lon="7.4902091"><ele>256.33333333333337</ele><time>2026-04-18T12:54:19.007Z</time></trkpt><trkpt lat="44.7751379" lon="7.4901829"><ele>257.0</ele><time>2026-04-18T12:54:20.008Z</time></trkpt><trkpt lat="44.7753587" lon="7.4901581"><ele>257.0</ele><time>2026-04-18T12:54:21.007Z</time></trkpt><trkpt lat="44.7755802" lon="7.4901308"><ele>257.0</ele><time>2026-04-18T12:54:22.007Z</time></trkpt><trkpt lat="44.7758035" lon="7.4901008"><ele>257.0</ele><time>2026-04-18T12:54:23.008Z</time></trkpt><trkpt lat="44.7760282" lon="7.4900732"><ele>256.5</ele><time>2026-04-18T12:54:24.007Z</time></trkpt><trkpt lat="44.7762557" lon="7.4900473"><ele>256.0</ele><time>2026-04-18T12:54:25.008Z</time></trkpt><trkpt lat="44.7764861" lon="7.4900232"><ele>256.0</ele><time>2026-04-18T12:54:26.008Z</time></trkpt><trkpt lat="44.7767187" lon="7.489999"><ele>256.0</ele><time>2026-04-18T12:54:27.007Z</time></trkpt><trkpt lat="44.7769525" lon="7.4899745"><ele>256.5</ele><time>2026-04-18T12:54:28.008Z</time></trkpt><trkpt lat="44.7771873" lon="7.4899529"><ele>257.0</ele><time>2026-04-18T12:54:29.007Z</time></trkpt><trkpt lat="44.7774206" lon="7.489936"><ele>257.0</ele><time>2026-04-18T12:54:30.007Z</time></trkpt><trkpt lat="44.7776506" lon="7.4899209"><ele>257.0</ele><time>2026-04-18T12:54:31.007Z</time></trkpt><trkpt lat="44.7778791" lon="7.4899128"><ele>257.0</ele><time>2026-04-18T12:54:32.008Z</time></trkpt><trkpt lat="44.7781051" lon="7.4899162"><ele>257.0</ele><time>2026-04-18T12:54:33.007Z</time></trkpt><trkpt lat="44.7783275" lon="7.4899268"><ele>257.0</ele><time>2026-04-18T12:54:34.008Z</time></trkpt><trkpt lat="44.7785477" lon="7.4899431"><ele>256.6666666666667</ele><time>2026-04-18T12:54:35.008Z</time></trkpt><trkpt lat="44.7787667" lon="7.489967"><ele>256.3333333333333</ele><time>2026-04-18T12:54:36.007Z</time></trkpt><trkpt lat="44.7789851" lon="7.4899975"><ele>256.0</ele><time>2026-04-18T12:54:37.008Z</time></trkpt><trkpt lat="44.7792038" lon="7.4900327"><ele>256.0</ele><time>2026-04-18T12:54:38.007Z</time></trkpt><trkpt lat="44.7794218" lon="7.4900762"><ele>256.0</ele><time>2026-04-18T12:54:39.008Z</time></trkpt><trkpt lat="44.7796402" lon="7.4901314"><ele>256.0</ele><time>2026-04-18T12:54:40.007Z</time></trkpt><trkpt lat="44.7798575" lon="7.4901931"><ele>256.0</ele><time>2026-04-18T12:54:41.008Z</time></trkpt><trkpt lat="44.7800744" lon="7.4902604"><ele>256.0</ele><time>2026-04-18T12:54:42.008Z</time></trkpt><trkpt lat="44.7802902" lon="7.4903347"><ele>256.0</ele><time>2026-04-18T12:54:43.008Z</time></trkpt><trkpt lat="44.7805053" lon="7.4904199"><ele>256.3333333333333</ele><time>2026-04-18T12:54:44.008Z</time></trkpt><trkpt lat="44.7807187" lon="7.4905152"><ele>256.6666666666667</ele><time>2026-04-18T12:54:45.007Z</time></trkpt><trkpt lat="44.7809298" lon="7.4906191"><ele>257.0</ele><time>2026-04-18T12:54:46.008Z</time></trkpt><trkpt lat="44.7811388" lon="7.4907279"><ele>257.6666666666667</ele><time>2026-04-18T12:54:47.007Z</time></trkpt><trkpt lat="44.7813435" lon="7.4908431"><ele>258.3333333333333</ele><time>2026-04-18T12:54:48.008Z</time></trkpt><trkpt lat="44.7815337" lon="7.4909609"><ele>259.0</ele><time>2026-04-18T12:54:49.007Z</time></trkpt><trkpt lat="44.7817131" lon="7.4910795"><ele>259.0</ele><time>2026-04-18T12:54:50.007Z</time></trkpt><trkpt lat="44.7818794" lon="7.4911948"><ele>259.0</ele><time>2026-04-18T12:54:51.008Z</time></trkpt><trkpt lat="44.7820416" lon="7.4913049"><ele>259.0</ele><time>2026-04-18T12:54:52.007Z</time></trkpt><trkpt lat="44.7821861" lon="7.4914139"><ele>258.25</ele><time>2026-04-18T12:54:53.008Z</time></trkpt><trkpt lat="44.7823228" lon="7.4915161"><ele>257.5</ele><time>2026-04-18T12:54:54.008Z</time></trkpt><trkpt lat="44.7824495" lon="7.491618"><ele>256.75</ele><time>2026-04-18T12:54:55.008Z</time></trkpt><trkpt lat="44.782564" lon="7.491712"><ele>256.0</ele><time>2026-04-18T12:54:56.007Z</time></trkpt><trkpt lat="44.7826667" lon="7.4918028"><ele>256.0</ele><time>2026-04-18T12:54:57.008Z</time></trkpt><trkpt lat="44.7827631" lon="7.491885"><ele>256.0</ele><time>2026-04-18T12:54:58.008Z</time></trkpt><trkpt lat="44.7828523" lon="7.4919775"><ele>256.0</ele><time>2026-04-18T12:54:59.009Z</time></trkpt><trkpt lat="44.7829209" lon="7.4920897"><ele>256.0</ele><time>2026-04-18T12:55:00.008Z</time></trkpt><trkpt lat="44.7829821" lon="7.4922125"><ele>256.0</ele><time>2026-04-18T12:55:01.008Z</time></trkpt><trkpt lat="44.7830589" lon="7.4923233"><ele>256.25</ele><time>2026-04-18T12:55:02.008Z</time></trkpt><trkpt lat="44.7831534" lon="7.4924122"><ele>256.5</ele><time>2026-04-18T12:55:03.007Z</time></trkpt><trkpt lat="44.7832636" lon="7.4924651"><ele>256.75</ele><time>2026-04-18T12:55:04.007Z</time></trkpt><trkpt lat="44.7833925" lon="7.492491"><ele>257.0</ele><time>2026-04-18T12:55:05.008Z</time></trkpt><trkpt lat="44.783541" lon="7.4925314"><ele>258.0</ele><time>2026-04-18T12:55:06.008Z</time></trkpt><trkpt lat="44.7836911" lon="7.4926077"><ele>259.0</ele><time>2026-04-18T12:55:07.007Z</time></trkpt><trkpt lat="44.7838404" lon="7.49271"><ele>260.0</ele><time>2026-04-18T12:55:08.007Z</time></trkpt><trkpt lat="44.783984" lon="7.4928201"><ele>259.33333333333337</ele><time>2026-04-18T12:55:09.008Z</time></trkpt><trkpt lat="44.7841265" lon="7.4929335"><ele>258.6666666666667</ele><time>2026-04-18T12:55:10.008Z</time></trkpt><trkpt lat="44.7842671" lon="7.4930476"><ele>258.0</ele><time>2026-04-18T12:55:11.008Z</time></trkpt><trkpt lat="44.7844134" lon="7.4931611"><ele>257.3333333333333</ele><time>2026-04-18T12:55:12.008Z</time></trkpt><trkpt lat="44.78457" lon="7.4932826"><ele>256.66666666666663</ele><time>2026-04-18T12:55:13.007Z</time></trkpt><trkpt lat="44.7847307" lon="7.4934069"><ele>256.0</ele><time>2026-04-18T12:55:14.008Z</time></trkpt><trkpt lat="44.7848908" lon="7.4935326"><ele>256.0</ele><time>2026-04-18T12:55:15.007Z</time></trkpt><trkpt lat="44.7850537" lon="7.4936603"><ele>256.0</ele><time>2026-04-18T12:55:16.007Z</time></trkpt><trkpt lat="44.7852175" lon="7.4937888"><ele>256.0</ele><time>2026-04-18T12:55:17.007Z</time></trkpt><trkpt lat="44.78538" lon="7.4939178"><ele>255.66666666666666</ele><time>2026-04-18T12:55:18.008Z</time></trkpt><trkpt lat="44.7855496" lon="7.494048"><ele>255.33333333333331</ele><time>2026-04-18T12:55:19.007Z</time></trkpt><trkpt lat="44.7857257" lon="7.4941843"><ele>255.0</ele><time>2026-04-18T12:55:20.008Z</time></trkpt><trkpt lat="44.7859028" lon="7.4943251"><ele>255.0</ele><time>2026-04-18T12:55:21.007Z</time></trkpt><trkpt lat="44.7860871" lon="7.4944687"><ele>255.0</ele><time>2026-04-18T12:55:22.007Z</time></trkpt><trkpt lat="44.7862756" lon="7.4946155"><ele>255.0</ele><time>2026-04-18T12:55:23.008Z</time></trkpt><trkpt lat="44.7864689" lon="7.4947664"><ele>255.0</ele><time>2026-04-18T12:55:24.007Z</time></trkpt><trkpt lat="44.7866622" lon="7.4949173"><ele>255.0</ele><time>2026-04-18T12:55:25.008Z</time></trkpt><trkpt lat="44.7868562" lon="7.4950719"><ele>255.0</ele><time>2026-04-18T12:55:26.007Z</time></trkpt><trkpt lat="44.787045" lon="7.4952176"><ele>255.0</ele><time>2026-04-18T12:55:27.007Z</time></trkpt><trkpt lat="44.7872344" lon="7.4953643"><ele>255.0</ele><time>2026-04-18T12:55:28.008Z</time></trkpt><trkpt lat="44.7874198" lon="7.4955068"><ele>255.0</ele><time>2026-04-18T12:55:29.008Z</time></trkpt><trkpt lat="44.787602" lon="7.4956522"><ele>255.33333333333331</ele><time>2026-04-18T12:55:30.007Z</time></trkpt><trkpt lat="44.7877854" lon="7.4957969"><ele>255.66666666666666</ele><time>2026-04-18T12:55:31.008Z</time></trkpt><trkpt lat="44.7879687" lon="7.4959399"><ele>256.0</ele><time>2026-04-18T12:55:32.007Z</time></trkpt><trkpt lat="44.7881517" lon="7.4960826"><ele>256.0</ele><time>2026-04-18T12:55:33.007Z</time></trkpt><trkpt lat="44.7883316" lon="7.4962236"><ele>256.0</ele><time>2026-04-18T12:55:34.007Z</time></trkpt><trkpt lat="44.7885085" lon="7.49636"><ele>256.0</ele><time>2026-04-18T12:55:35.007Z</time></trkpt><trkpt lat="44.7886769" lon="7.4964948"><ele>257.0</ele><time>2026-04-18T12:55:36.008Z</time></trkpt><trkpt lat="44.788848" lon="7.4966252"><ele>258.0</ele><time>2026-04-18T12:55:37.007Z</time></trkpt><trkpt lat="44.7890183" lon="7.4967588"><ele>259.0</ele><time>2026-04-18T12:55:38.008Z</time></trkpt><trkpt lat="44.7891894" lon="7.4968903"><ele>259.3333333333333</ele><time>2026-04-18T12:55:39.007Z</time></trkpt><trkpt lat="44.7893601" lon="7.4970231"><ele>259.6666666666667</ele><time>2026-04-18T12:55:40.008Z</time></trkpt><trkpt lat="44.7895316" lon="7.4971568"><ele>260.0</ele><time>2026-04-18T12:55:41.008Z</time></trkpt><trkpt lat="44.7897056" lon="7.4972956"><ele>260.6666666666667</ele><time>2026-04-18T12:55:42.007Z</time></trkpt><trkpt lat="44.7898817" lon="7.4974394"><ele>261.3333333333333</ele><time>2026-04-18T12:55:43.008Z</time></trkpt><trkpt lat="44.7900642" lon="7.4975819"><ele>262.0</ele><time>2026-04-18T12:55:44.008Z</time></trkpt><trkpt lat="44.7902511" lon="7.4977246"><ele>260.66666666666663</ele><time>2026-04-18T12:55:45.007Z</time></trkpt><trkpt lat="44.7904379" lon="7.4978705"><ele>259.3333333333333</ele><time>2026-04-18T12:55:46.008Z</time></trkpt><trkpt lat="44.7906278" lon="7.4980212"><ele>258.0</ele><time>2026-04-18T12:55:47.008Z</time></trkpt><trkpt lat="44.7908182" lon="7.4981741"><ele>257.0</ele><time>2026-04-18T12:55:48.008Z</time></trkpt><trkpt lat="44.7910094" lon="7.4983244"><ele>256.0</ele><time>2026-04-18T12:55:49.008Z</time></trkpt><trkpt lat="44.7912024" lon="7.49848"><ele>255.0</ele><time>2026-04-18T12:55:50.007Z</time></trkpt><trkpt lat="44.7913969" lon="7.4986317"><ele>255.33333333333331</ele><time>2026-04-18T12:55:51.007Z</time></trkpt><trkpt lat="44.79159" lon="7.4987824"><ele>255.66666666666666</ele><time>2026-04-18T12:55:52.008Z</time></trkpt><trkpt lat="44.7917812" lon="7.498933"><ele>256.0</ele><time>2026-04-18T12:55:53.008Z</time></trkpt><trkpt lat="44.7919705" lon="7.4990782"><ele>256.0</ele><time>2026-04-18T12:55:54.007Z</time></trkpt><trkpt lat="44.7921584" lon="7.4992252"><ele>256.0</ele><time>2026-04-18T12:55:55.008Z</time></trkpt><trkpt lat="44.7923477" lon="7.4993719"><ele>256.0</ele><time>2026-04-18T12:55:56.008Z</time></trkpt><trkpt lat="44.7925326" lon="7.4995169"><ele>256.0</ele><time>2026-04-18T12:55:57.007Z</time></trkpt><trkpt lat="44.7927173" lon="7.499661"><ele>256.0</ele><time>2026-04-18T12:55:58.008Z</time></trkpt><trkpt lat="44.7929021" lon="7.4998071"><ele>256.0</ele><time>2026-04-18T12:55:59.007Z</time></trkpt><trkpt lat="44.7930812" lon="7.4999544"><ele>256.0</ele><time>2026-04-18T12:56:00.008Z</time></trkpt><trkpt lat="44.7932661" lon="7.5001019"><ele>256.0</ele><time>2026-04-18T12:56:01.007Z</time></trkpt><trkpt lat="44.7934486" lon="7.5002479"><ele>256.0</ele><time>2026-04-18T12:56:02.007Z</time></trkpt><trkpt lat="44.7936339" lon="7.5003913"><ele>256.66666666666663</ele><time>2026-04-18T12:56:03.008Z</time></trkpt><trkpt lat="44.793818" lon="7.5005354"><ele>257.3333333333333</ele><time>2026-04-18T12:56:04.007Z</time></trkpt><trkpt lat="44.7940037" lon="7.5006795"><ele>258.0</ele><time>2026-04-18T12:56:05.007Z</time></trkpt><trkpt lat="44.7941907" lon="7.5008248"><ele>257.3333333333333</ele><time>2026-04-18T12:56:06.007Z</time></trkpt><trkpt lat="44.7943734" lon="7.5009717"><ele>256.66666666666663</ele><time>2026-04-18T12:56:07.008Z</time></trkpt><trkpt lat="44.7945618" lon="7.5011195"><ele>256.0</ele><time>2026-04-18T12:56:08.008Z</time></trkpt><trkpt lat="44.7947494" lon="7.5012669"><ele>256.0</ele><time>2026-04-18T12:56:09.007Z</time></trkpt><trkpt lat="44.7949392" lon="7.5014148"><ele>256.0</ele><time>2026-04-18T12:56:10.007Z</time></trkpt><trkpt lat="44.7951298" lon="7.5015606"><ele>256.0</ele><time>2026-04-18T12:56:11.006Z</time></trkpt><trkpt lat="44.7953199" lon="7.5017105"><ele>256.3333333333333</ele><time>2026-04-18T12:56:12.007Z</time></trkpt><trkpt lat="44.7955097" lon="7.5018574"><ele>256.6666666666667</ele><time>2026-04-18T12:56:13.007Z</time></trkpt><trkpt lat="44.7957015" lon="7.5020059"><ele>257.0</ele><time>2026-04-18T12:56:14.008Z</time></trkpt><trkpt lat="44.7958949" lon="7.5021579"><ele>256.6666666666667</ele><time>2026-04-18T12:56:15.008Z</time></trkpt><trkpt lat="44.7960904" lon="7.5023078"><ele>256.3333333333333</ele><time>2026-04-18T12:56:16.008Z</time></trkpt><trkpt lat="44.7962864" lon="7.5024611"><ele>256.0</ele><time>2026-04-18T12:56:17.008Z</time></trkpt><trkpt lat="44.7964844" lon="7.5026148"><ele>256.0</ele><time>2026-04-18T12:56:18.008Z</time></trkpt><trkpt lat="44.7966877" lon="7.502762"><ele>256.0</ele><time>2026-04-18T12:56:19.008Z</time></trkpt><trkpt lat="44.7968938" lon="7.5029017"><ele>255.66666666666666</ele><time>2026-04-18T12:56:20.007Z</time></trkpt><trkpt lat="44.7970987" lon="7.5030276"><ele>255.33333333333331</ele><time>2026-04-18T12:56:21.006Z</time></trkpt><trkpt lat="44.7972946" lon="7.5031346"><ele>255.0</ele><time>2026-04-18T12:56:22.007Z</time></trkpt><trkpt lat="44.7974828" lon="7.5032286"><ele>255.0</ele><time>2026-04-18T12:56:23.008Z</time></trkpt><trkpt lat="44.7976628" lon="7.5033075"><ele>255.0</ele><time>2026-04-18T12:56:24.007Z</time></trkpt><trkpt lat="44.7978304" lon="7.5033716"><ele>255.0</ele><time>2026-04-18T12:56:25.007Z</time></trkpt><trkpt lat="44.7979869" lon="7.5034253"><ele>256.0</ele><time>2026-04-18T12:56:26.007Z</time></trkpt><trkpt lat="44.7981213" lon="7.5034743"><ele>257.0</ele><time>2026-04-18T12:56:27.008Z</time></trkpt><trkpt lat="44.7982315" lon="7.5035397"><ele>258.0</ele><time>2026-04-18T12:56:28.008Z</time></trkpt><trkpt lat="44.7983177" lon="7.5036261"><ele>259.0</ele><time>2026-04-18T12:56:29.007Z</time></trkpt><trkpt lat="44.7983916" lon="7.5037012"><ele>259.0</ele><time>2026-04-18T12:56:30.007Z</time></trkpt><trkpt lat="44.7984718" lon="7.503733"><ele>259.0</ele><time>2026-04-18T12:56:31.006Z</time></trkpt><trkpt lat="44.7985559" lon="7.5037336"><ele>259.0</ele><time>2026-04-18T12:56:32.007Z</time></trkpt><trkpt lat="44.7986606" lon="7.5037003"><ele>259.0</ele><time>2026-04-18T12:56:33.007Z</time></trkpt><trkpt lat="44.7987979" lon="7.5036601"><ele>259.0</ele><time>2026-04-18T12:56:34.006Z</time></trkpt><trkpt lat="44.7989575" lon="7.5036408"><ele>259.0</ele><time>2026-04-18T12:56:35.007Z</time></trkpt><trkpt lat="44.799129" lon="7.503631"><ele>259.0</ele><time>2026-04-18T12:56:36.007Z</time></trkpt><trkpt lat="44.7993012" lon="7.5036199"><ele>259.0</ele><time>2026-04-18T12:56:37.006Z</time></trkpt><trkpt lat="44.7994837" lon="7.5036026"><ele>258.66666666666663</ele><time>2026-04-18T12:56:38.007Z</time></trkpt><trkpt lat="44.7996707" lon="7.5035757"><ele>258.3333333333333</ele><time>2026-04-18T12:56:39.006Z</time></trkpt><trkpt lat="44.7998495" lon="7.5035432"><ele>258.0</ele><time>2026-04-18T12:56:40.007Z</time></trkpt><trkpt lat="44.8000238" lon="7.5035026"><ele>257.6666666666667</ele><time>2026-04-18T12:56:41.007Z</time></trkpt><trkpt lat="44.8001968" lon="7.5034575"><ele>257.33333333333337</ele><time>2026-04-18T12:56:42.006Z</time></trkpt><trkpt lat="44.8003747" lon="7.5034062"><ele>257.0</ele><time>2026-04-18T12:56:43.006Z</time></trkpt><trkpt lat="44.8005558" lon="7.5033516"><ele>257.0</ele><time>2026-04-18T12:56:44.007Z</time></trkpt><trkpt lat="44.8007359" lon="7.5032988"><ele>257.0</ele><time>2026-04-18T12:56:45.006Z</time></trkpt><trkpt lat="44.8009182" lon="7.503247"><ele>257.0</ele><time>2026-04-18T12:56:46.007Z</time></trkpt><trkpt lat="44.8010988" lon="7.5031979"><ele>256.6666666666667</ele><time>2026-04-18T12:56:47.007Z</time></trkpt><trkpt lat="44.801287" lon="7.5031414"><ele>256.3333333333333</ele><time>2026-04-18T12:56:48.007Z</time></trkpt><trkpt lat="44.8014792" lon="7.5030845"><ele>256.0</ele><time>2026-04-18T12:56:49.006Z</time></trkpt><trkpt lat="44.8016735" lon="7.5030294"><ele>255.66666666666666</ele><time>2026-04-18T12:56:50.007Z</time></trkpt><trkpt lat="44.80187" lon="7.5029702"><ele>255.33333333333331</ele><time>2026-04-18T12:56:51.007Z</time></trkpt><trkpt lat="44.8020675" lon="7.5029073"><ele>255.0</ele><time>2026-04-18T12:56:52.007Z</time></trkpt><trkpt lat="44.802266" lon="7.5028428"><ele>255.0</ele><time>2026-04-18T12:56:53.007Z</time></trkpt><trkpt lat="44.8024667" lon="7.5027778"><ele>255.0</ele><time>2026-04-18T12:56:54.007Z</time></trkpt><trkpt lat="44.802669" lon="7.5027164"><ele>255.0</ele><time>2026-04-18T12:56:55.007Z</time></trkpt><trkpt lat="44.8028787" lon="7.5026586"><ele>255.33333333333331</ele><time>2026-04-18T12:56:56.006Z</time></trkpt><trkpt lat="44.8030946" lon="7.5025974"><ele>255.66666666666666</ele><time>2026-04-18T12:56:57.006Z</time></trkpt><trkpt lat="44.803316" lon="7.5025361"><ele>256.0</ele><time>2026-04-18T12:56:58.007Z</time></trkpt><trkpt lat="44.8035403" lon="7.5024742"><ele>255.33333333333331</ele><time>2026-04-18T12:56:59.007Z</time></trkpt><trkpt lat="44.8037614" lon="7.5024173"><ele>254.66666666666669</ele><time>2026-04-18T12:57:00.007Z</time></trkpt><trkpt lat="44.8039809" lon="7.5023661"><ele>254.0</ele><time>2026-04-18T12:57:01.006Z</time></trkpt><trkpt lat="44.804198" lon="7.5023325"><ele>254.33333333333334</ele><time>2026-04-18T12:57:02.007Z</time></trkpt><trkpt lat="44.8044138" lon="7.5023151"><ele>254.66666666666669</ele><time>2026-04-18T12:57:03.007Z</time></trkpt><trkpt lat="44.8046219" lon="7.5023045"><ele>255.0</ele><time>2026-04-18T12:57:04.006Z</time></trkpt><trkpt lat="44.8048188" lon="7.5023032"><ele>255.0</ele><time>2026-04-18T12:57:05.007Z</time></trkpt><trkpt lat="44.8050049" lon="7.5023039"><ele>255.0</ele><time>2026-04-18T12:57:06.006Z</time></trkpt><trkpt lat="44.8051874" lon="7.5023069"><ele>255.0</ele><time>2026-04-18T12:57:07.007Z</time></trkpt><trkpt lat="44.8053652" lon="7.5023068"><ele>255.0</ele><time>2026-04-18T12:57:08.006Z</time></trkpt><trkpt lat="44.8055451" lon="7.5022965"><ele>255.0</ele><time>2026-04-18T12:57:09.007Z</time></trkpt><trkpt lat="44.8057327" lon="7.5022547"><ele>255.0</ele><time>2026-04-18T12:57:10.006Z</time></trkpt><trkpt lat="44.8059267" lon="7.5021869"><ele>255.0</ele><time>2026-04-18T12:57:11.006Z</time></trkpt><trkpt lat="44.8061276" lon="7.5021028"><ele>255.0</ele><time>2026-04-18T12:57:12.006Z</time></trkpt><trkpt lat="44.8063352" lon="7.5020103"><ele>255.0</ele><time>2026-04-18T12:57:13.007Z</time></trkpt><trkpt lat="44.8065509" lon="7.5019029"><ele>255.0</ele><time>2026-04-18T12:57:14.007Z</time></trkpt><trkpt lat="44.8067687" lon="7.5017838"><ele>255.0</ele><time>2026-04-18T12:57:15.007Z</time></trkpt><trkpt lat="44.8069854" lon="7.5016603"><ele>255.0</ele><time>2026-04-18T12:57:16.007Z</time></trkpt><trkpt lat="44.8071983" lon="7.5015377"><ele>255.0</ele><time>2026-04-18T12:57:17.007Z</time></trkpt><trkpt lat="44.8074075" lon="7.5014156"><ele>255.0</ele><time>2026-04-18T12:57:18.006Z</time></trkpt><trkpt lat="44.8076146" lon="7.5012976"><ele>255.0</ele><time>2026-04-18T12:57:19.007Z</time></trkpt><trkpt lat="44.8078183" lon="7.5011807"><ele>255.0</ele><time>2026-04-18T12:57:20.007Z</time></trkpt><trkpt lat="44.8080166" lon="7.5010634"><ele>255.0</ele><time>2026-04-18T12:57:21.007Z</time></trkpt><trkpt lat="44.8082109" lon="7.5009503"><ele>255.0</ele><time>2026-04-18T12:57:22.007Z</time></trkpt><trkpt lat="44.8084026" lon="7.5008409"><ele>255.0</ele><time>2026-04-18T12:57:23.006Z</time></trkpt><trkpt lat="44.8085909" lon="7.5007345"><ele>255.0</ele><time>2026-04-18T12:57:24.006Z</time></trkpt><trkpt lat="44.8087772" lon="7.500626"><ele>255.0</ele><time>2026-04-18T12:57:25.007Z</time></trkpt><trkpt lat="44.8089625" lon="7.5005163"><ele>255.0</ele><time>2026-04-18T12:57:26.007Z</time></trkpt><trkpt lat="44.8091484" lon="7.5004108"><ele>255.0</ele><time>2026-04-18T12:57:27.007Z</time></trkpt><trkpt lat="44.8093335" lon="7.5003024"><ele>255.0</ele><time>2026-04-18T12:57:28.007Z</time></trkpt><trkpt lat="44.809512" lon="7.5001948"><ele>255.0</ele><time>2026-04-18T12:57:29.007Z</time></trkpt><trkpt lat="44.809681" lon="7.500096"><ele>255.0</ele><time>2026-04-18T12:57:30.006Z</time></trkpt><trkpt lat="44.8098444" lon="7.5000026"><ele>255.0</ele><time>2026-04-18T12:57:31.006Z</time></trkpt><trkpt lat="44.810007" lon="7.4999122"><ele>255.0</ele><time>2026-04-18T12:57:32.007Z</time></trkpt><trkpt lat="44.8101678" lon="7.4998245"><ele>254.75</ele><time>2026-04-18T12:57:33.007Z</time></trkpt><trkpt lat="44.8103186" lon="7.4997446"><ele>254.5</ele><time>2026-04-18T12:57:34.007Z</time></trkpt><trkpt lat="44.8104585" lon="7.499674"><ele>254.25</ele><time>2026-04-18T12:57:35.006Z</time></trkpt><trkpt lat="44.8105816" lon="7.4996126"><ele>254.0</ele><time>2026-04-18T12:57:36.006Z</time></trkpt><trkpt lat="44.8106815" lon="7.4995644"><ele>254.33333333333334</ele><time>2026-04-18T12:57:37.007Z</time></trkpt><trkpt lat="44.8107629" lon="7.4995312"><ele>254.66666666666669</ele><time>2026-04-18T12:57:38.006Z</time></trkpt><trkpt lat="44.8108272" lon="7.4995063"><ele>255.0</ele><time>2026-04-18T12:57:39.007Z</time></trkpt><trkpt lat="44.8109126" lon="7.4994692"><ele>255.33333333333331</ele><time>2026-04-18T12:57:41.005Z</time></trkpt><trkpt lat="44.8109732" lon="7.4994423"><ele>255.66666666666666</ele><time>2026-04-18T12:59:29Z</time></trkpt><trkpt lat="44.8110667" lon="7.4993959"><ele>256.0</ele><time>2026-04-18T12:59:31.006Z</time></trkpt><trkpt lat="44.811135" lon="7.4993701"><ele>255.0</ele><time>2026-04-18T12:59:32.005Z</time></trkpt><trkpt lat="44.811204" lon="7.499344"><ele>254.00000000000003</ele><time>2026-04-18T12:59:33.001Z</time></trkpt><trkpt lat="44.8112792" lon="7.4993107"><ele>253.00000000000003</ele><time>2026-04-18T12:59:34.001Z</time></trkpt><trkpt lat="44.8113717" lon="7.4992772"><ele>252.0</ele><time>2026-04-18T12:59:35.006Z</time></trkpt><trkpt lat="44.8114717" lon="7.4992468"><ele>251.0</ele><time>2026-04-18T12:59:36.002Z</time></trkpt><trkpt lat="44.8115767" lon="7.4992148"><ele>251.0</ele><time>2026-04-18T12:59:36.999Z</time></trkpt><trkpt lat="44.811686" lon="7.4991857"><ele>251.0</ele><time>2026-04-18T12:59:38.007Z</time></trkpt><trkpt lat="44.8117994" lon="7.4991545"><ele>251.0</ele><time>2026-04-18T12:59:39.013Z</time></trkpt><trkpt lat="44.8119192" lon="7.4991137"><ele>251.0</ele><time>2026-04-18T12:59:40.007Z</time></trkpt><trkpt lat="44.812065" lon="7.4990687"><ele>251.5</ele><time>2026-04-18T12:59:41.011Z</time></trkpt><trkpt lat="44.8122014" lon="7.4990307"><ele>252.0</ele><time>2026-04-18T12:59:42.007Z</time></trkpt><trkpt lat="44.8123391" lon="7.4989953"><ele>252.5</ele><time>2026-04-18T12:59:43.011Z</time></trkpt><trkpt lat="44.8124742" lon="7.4989574"><ele>253.0</ele><time>2026-04-18T12:59:44.007Z</time></trkpt><trkpt lat="44.8126157" lon="7.4989205"><ele>254.0</ele><time>2026-04-18T12:59:45Z</time></trkpt><trkpt lat="44.8127687" lon="7.4988839"><ele>255.0</ele><time>2026-04-18T12:59:46.004Z</time></trkpt><trkpt lat="44.8129267" lon="7.498857"><ele>256.0</ele><time>2026-04-18T12:59:47.004Z</time></trkpt><trkpt lat="44.8130865" lon="7.4988168"><ele>256.0</ele><time>2026-04-18T12:59:48.005Z</time></trkpt><trkpt lat="44.8132394" lon="7.4987548"><ele>256.0</ele><time>2026-04-18T12:59:49.008Z</time></trkpt><trkpt lat="44.8133852" lon="7.4986746"><ele>256.0</ele><time>2026-04-18T12:59:50Z</time></trkpt><trkpt lat="44.813525" lon="7.4985702"><ele>256.3333333333333</ele><time>2026-04-18T12:59:51.013Z</time></trkpt><trkpt lat="44.813655" lon="7.4984337"><ele>256.6666666666667</ele><time>2026-04-18T12:59:52.012Z</time></trkpt><trkpt lat="44.8137754" lon="7.4982714"><ele>257.0</ele><time>2026-04-18T12:59:53.003Z</time></trkpt><trkpt lat="44.8139048" lon="7.4980955"><ele>257.0</ele><time>2026-04-18T12:59:54.006Z</time></trkpt><trkpt lat="44.8140413" lon="7.4979602"><ele>257.0</ele><time>2026-04-18T12:59:55.011Z</time></trkpt><trkpt lat="44.8141965" lon="7.4978544"><ele>257.0</ele><time>2026-04-18T12:59:56.008Z</time></trkpt><trkpt lat="44.8143676" lon="7.4977834"><ele>257.0</ele><time>2026-04-18T12:59:57.001Z</time></trkpt><trkpt lat="44.8145595" lon="7.4977482"><ele>257.0</ele><time>2026-04-18T12:59:58.006Z</time></trkpt><trkpt lat="44.8147583" lon="7.4977346"><ele>257.0</ele><time>2026-04-18T12:59:59.005Z</time></trkpt><trkpt lat="44.8149562" lon="7.4977266"><ele>257.0</ele><time>2026-04-18T13:00:00Z</time></trkpt><trkpt lat="44.8151525" lon="7.4977214"><ele>257.0</ele><time>2026-04-18T13:00:01.003Z</time></trkpt><trkpt lat="44.8153457" lon="7.4977228"><ele>257.0</ele><time>2026-04-18T13:00:02.006Z</time></trkpt><trkpt lat="44.8155281" lon="7.4977454"><ele>257.0</ele><time>2026-04-18T13:00:03.001Z</time></trkpt><trkpt lat="44.8157174" lon="7.4978044"><ele>257.0</ele><time>2026-04-18T13:00:04.003Z</time></trkpt><trkpt lat="44.8159088" lon="7.4978787"><ele>257.0</ele><time>2026-04-18T13:00:05.006Z</time></trkpt><trkpt lat="44.8160962" lon="7.4979592"><ele>257.0</ele><time>2026-04-18T13:00:06.001Z</time></trkpt><trkpt lat="44.8162795" lon="7.4980405"><ele>257.0</ele><time>2026-04-18T13:00:07.003Z</time></trkpt><trkpt lat="44.8164592" lon="7.4981232"><ele>257.0</ele><time>2026-04-18T13:00:08.004Z</time></trkpt><trkpt lat="44.8166422" lon="7.4982053"><ele>257.33333333333337</ele><time>2026-04-18T13:00:09.011Z</time></trkpt><trkpt lat="44.816827" lon="7.4982974"><ele>257.6666666666667</ele><time>2026-04-18T13:00:10.01Z</time></trkpt><trkpt lat="44.8170097" lon="7.4984063"><ele>258.0</ele><time>2026-04-18T13:00:11.011Z</time></trkpt><trkpt lat="44.8171968" lon="7.4985258"><ele>258.0</ele><time>2026-04-18T13:00:12.009Z</time></trkpt><trkpt lat="44.8173984" lon="7.4986495"><ele>258.0</ele><time>2026-04-18T13:00:13.004Z</time></trkpt><trkpt lat="44.8176088" lon="7.4987787"><ele>258.0</ele><time>2026-04-18T13:00:14.013Z</time></trkpt><trkpt lat="44.81782" lon="7.498912"><ele>257.5</ele><time>2026-04-18T13:00:15.013Z</time></trkpt><trkpt lat="44.818027" lon="7.499045"><ele>257.0</ele><time>2026-04-18T13:00:16.009Z</time></trkpt><trkpt lat="44.8182313" lon="7.4991706"><ele>257.0</ele><time>2026-04-18T13:00:17.007Z</time></trkpt><trkpt lat="44.8184317" lon="7.4992935"><ele>257.0</ele><time>2026-04-18T13:00:17.999Z</time></trkpt><trkpt lat="44.8186279" lon="7.4994178"><ele>257.0</ele><time>2026-04-18T13:00:19.005Z</time></trkpt><trkpt lat="44.8188226" lon="7.4995292"><ele>257.0</ele><time>2026-04-18T13:00:20.008Z</time></trkpt><trkpt lat="44.8190204" lon="7.4996224"><ele>257.0</ele><time>2026-04-18T13:00:21.007Z</time></trkpt><trkpt lat="44.8192296" lon="7.4996846"><ele>257.0</ele><time>2026-04-18T13:00:22.003Z</time></trkpt><trkpt lat="44.8194454" lon="7.4997252"><ele>256.33333333333337</ele><time>2026-04-18T13:00:22.999Z</time></trkpt><trkpt lat="44.8196682" lon="7.4997434"><ele>255.66666666666669</ele><time>2026-04-18T13:00:24.001Z</time></trkpt><trkpt lat="44.8198872" lon="7.4997416"><ele>255.0</ele><time>2026-04-18T13:00:25.007Z</time></trkpt><trkpt lat="44.8201052" lon="7.4997304"><ele>255.0</ele><time>2026-04-18T13:00:26Z</time></trkpt><trkpt lat="44.8203259" lon="7.4997149"><ele>255.0</ele><time>2026-04-18T13:00:27.007Z</time></trkpt><trkpt lat="44.8205465" lon="7.4996998"><ele>255.0</ele><time>2026-04-18T13:00:28.004Z</time></trkpt><trkpt lat="44.820769" lon="7.4996859"><ele>255.0</ele><time>2026-04-18T13:00:29.004Z</time></trkpt><trkpt lat="44.8209908" lon="7.499668"><ele>255.0</ele><time>2026-04-18T13:00:30.005Z</time></trkpt><trkpt lat="44.8212162" lon="7.4996494"><ele>255.0</ele><time>2026-04-18T13:00:31.004Z</time></trkpt><trkpt lat="44.821443" lon="7.4996293"><ele>255.0</ele><time>2026-04-18T13:00:32.005Z</time></trkpt><trkpt lat="44.8216689" lon="7.4996068"><ele>255.0</ele><time>2026-04-18T13:00:33.004Z</time></trkpt><trkpt lat="44.8218902" lon="7.4995879"><ele>255.0</ele><time>2026-04-18T13:00:34.005Z</time></trkpt><trkpt lat="44.8221098" lon="7.4995664"><ele>255.33333333333331</ele><time>2026-04-18T13:00:35.005Z</time></trkpt><trkpt lat="44.8223254" lon="7.4995465"><ele>255.66666666666666</ele><time>2026-04-18T13:00:36.005Z</time></trkpt><trkpt lat="44.8225415" lon="7.4995273"><ele>256.0</ele><time>2026-04-18T13:00:37.005Z</time></trkpt><trkpt lat="44.822763" lon="7.4995101"><ele>256.5</ele><time>2026-04-18T13:00:38.005Z</time></trkpt><trkpt lat="44.8229901" lon="7.4994936"><ele>257.0</ele><time>2026-04-18T13:00:39.004Z</time></trkpt><trkpt lat="44.8232191" lon="7.499481"><ele>257.0</ele><time>2026-04-18T13:00:40.005Z</time></trkpt><trkpt lat="44.8234478" lon="7.4994724"><ele>257.0</ele><time>2026-04-18T13:00:41.004Z</time></trkpt><trkpt lat="44.8236757" lon="7.4994732"><ele>256.6666666666667</ele><time>2026-04-18T13:00:42.005Z</time></trkpt><trkpt lat="44.8238986" lon="7.4994868"><ele>256.3333333333333</ele><time>2026-04-18T13:00:43.004Z</time></trkpt><trkpt lat="44.8241198" lon="7.4995022"><ele>256.0</ele><time>2026-04-18T13:00:44.005Z</time></trkpt><trkpt lat="44.824345" lon="7.4995285"><ele>256.0</ele><time>2026-04-18T13:00:45.004Z</time></trkpt><trkpt lat="44.8245667" lon="7.4995618"><ele>256.0</ele><time>2026-04-18T13:00:46.005Z</time></trkpt><trkpt lat="44.824788" lon="7.4996004"><ele>256.0</ele><time>2026-04-18T13:00:47.005Z</time></trkpt><trkpt lat="44.8250118" lon="7.4996417"><ele>256.0</ele><time>2026-04-18T13:00:48.004Z</time></trkpt><trkpt lat="44.8252325" lon="7.4996841"><ele>256.0</ele><time>2026-04-18T13:00:49.005Z</time></trkpt><trkpt lat="44.8254584" lon="7.4997294"><ele>256.0</ele><time>2026-04-18T13:00:50.004Z</time></trkpt><trkpt lat="44.8256809" lon="7.4997781"><ele>256.0</ele><time>2026-04-18T13:00:51.005Z</time></trkpt><trkpt lat="44.8259061" lon="7.4998295"><ele>255.0</ele><time>2026-04-18T13:00:52.004Z</time></trkpt><trkpt lat="44.8261329" lon="7.4998807"><ele>254.0</ele><time>2026-04-18T13:00:53.004Z</time></trkpt><trkpt lat="44.8263607" lon="7.499928"><ele>254.0</ele><time>2026-04-18T13:00:54.005Z</time></trkpt><trkpt lat="44.8265897" lon="7.499978"><ele>254.0</ele><time>2026-04-18T13:00:55.005Z</time></trkpt><trkpt lat="44.8268174" lon="7.5000268"><ele>253.5</ele><time>2026-04-18T13:00:56.005Z</time></trkpt><trkpt lat="44.8270422" lon="7.5000733"><ele>253.0</ele><time>2026-04-18T13:00:57.005Z</time></trkpt><trkpt lat="44.8272631" lon="7.5001224"><ele>253.0</ele><time>2026-04-18T13:00:58.005Z</time></trkpt><trkpt lat="44.8274767" lon="7.5001575"><ele>253.0</ele><time>2026-04-18T13:00:59.005Z</time></trkpt><trkpt lat="44.827689" lon="7.5001802"><ele>253.0</ele><time>2026-04-18T13:01:00.005Z</time></trkpt><trkpt lat="44.8279045" lon="7.5001792"><ele>253.33333333333331</ele><time>2026-04-18T13:01:01.005Z</time></trkpt><trkpt lat="44.8281197" lon="7.5001503"><ele>253.66666666666669</ele><time>2026-04-18T13:01:02.005Z</time></trkpt><trkpt lat="44.8283357" lon="7.5001023"><ele>254.0</ele><time>2026-04-18T13:01:03.005Z</time></trkpt><trkpt lat="44.8285533" lon="7.5000514"><ele>254.33333333333334</ele><time>2026-04-18T13:01:04.005Z</time></trkpt><trkpt lat="44.8287727" lon="7.4999976"><ele>254.66666666666669</ele><time>2026-04-18T13:01:05.005Z</time></trkpt><trkpt lat="44.828992" lon="7.4999441"><ele>255.0</ele><time>2026-04-18T13:01:06.004Z</time></trkpt><trkpt lat="44.8292114" lon="7.4998917"><ele>255.33333333333331</ele><time>2026-04-18T13:01:07.005Z</time></trkpt><trkpt lat="44.8294323" lon="7.4998376"><ele>255.66666666666666</ele><time>2026-04-18T13:01:08.005Z</time></trkpt><trkpt lat="44.8296532" lon="7.4997829"><ele>256.0</ele><time>2026-04-18T13:01:09.005Z</time></trkpt><trkpt lat="44.8298698" lon="7.4997288"><ele>256.0</ele><time>2026-04-18T13:01:10.005Z</time></trkpt><trkpt lat="44.8300865" lon="7.4996741"><ele>256.0</ele><time>2026-04-18T13:01:11.005Z</time></trkpt><trkpt lat="44.8303025" lon="7.499624"><ele>256.0</ele><time>2026-04-18T13:01:12.004Z</time></trkpt><trkpt lat="44.8305151" lon="7.4995771"><ele>256.0</ele><time>2026-04-18T13:01:13.004Z</time></trkpt><trkpt lat="44.8307288" lon="7.4995282"><ele>256.0</ele><time>2026-04-18T13:01:14.005Z</time></trkpt><trkpt lat="44.8309422" lon="7.4994803"><ele>256.0</ele><time>2026-04-18T13:01:15.005Z</time></trkpt><trkpt lat="44.8311551" lon="7.49943"><ele>255.66666666666666</ele><time>2026-04-18T13:01:16.005Z</time></trkpt><trkpt lat="44.8313669" lon="7.49938"><ele>255.33333333333331</ele><time>2026-04-18T13:01:17.005Z</time></trkpt><trkpt lat="44.8315793" lon="7.4993289"><ele>255.0</ele><time>2026-04-18T13:01:18.005Z</time></trkpt><trkpt lat="44.8317904" lon="7.4992753"><ele>255.0</ele><time>2026-04-18T13:01:19.004Z</time></trkpt><trkpt lat="44.8320015" lon="7.4992256"><ele>255.0</ele><time>2026-04-18T13:01:20.005Z</time></trkpt><trkpt lat="44.8322129" lon="7.499176"><ele>255.0</ele><time>2026-04-18T13:01:21.004Z</time></trkpt><trkpt lat="44.8324201" lon="7.4991294"><ele>255.0</ele><time>2026-04-18T13:01:22.005Z</time></trkpt><trkpt lat="44.8326249" lon="7.4990827"><ele>255.0</ele><time>2026-04-18T13:01:23.004Z</time></trkpt><trkpt lat="44.8328277" lon="7.4990353"><ele>255.0</ele><time>2026-04-18T13:01:24.005Z</time></trkpt><trkpt lat="44.833028" lon="7.4989891"><ele>255.33333333333331</ele><time>2026-04-18T13:01:25.005Z</time></trkpt><trkpt lat="44.8332277" lon="7.4989404"><ele>255.66666666666666</ele><time>2026-04-18T13:01:26.005Z</time></trkpt><trkpt lat="44.8334268" lon="7.4988942"><ele>256.0</ele><time>2026-04-18T13:01:27.005Z</time></trkpt><trkpt lat="44.8336212" lon="7.4988536"><ele>255.33333333333331</ele><time>2026-04-18T13:01:28.005Z</time></trkpt><trkpt lat="44.8338059" lon="7.4988155"><ele>254.66666666666669</ele><time>2026-04-18T13:01:29.004Z</time></trkpt><trkpt lat="44.8339773" lon="7.4987813"><ele>254.0</ele><time>2026-04-18T13:01:30.004Z</time></trkpt><trkpt lat="44.8341377" lon="7.498739"><ele>254.0</ele><time>2026-04-18T13:01:31.005Z</time></trkpt><trkpt lat="44.8342798" lon="7.4986842"><ele>254.0</ele><time>2026-04-18T13:01:32.005Z</time></trkpt><trkpt lat="44.8344154" lon="7.4986191"><ele>254.0</ele><time>2026-04-18T13:01:33.005Z</time></trkpt><trkpt lat="44.8345425" lon="7.4985366"><ele>254.0</ele><time>2026-04-18T13:01:34.005Z</time></trkpt><trkpt lat="44.8346587" lon="7.4984555"><ele>254.39999999999998</ele><time>2026-04-18T13:01:35.004Z</time></trkpt><trkpt lat="44.834754" lon="7.4983624"><ele>254.79999999999998</ele><time>2026-04-18T13:01:36.004Z</time></trkpt><trkpt lat="44.8348402" lon="7.4982752"><ele>255.20000000000002</ele><time>2026-04-18T13:01:37.005Z</time></trkpt><trkpt lat="44.8349202" lon="7.4981952"><ele>255.60000000000002</ele><time>2026-04-18T13:01:38.005Z</time></trkpt><trkpt lat="44.8350037" lon="7.4981574"><ele>256.0</ele><time>2026-04-18T13:01:39.004Z</time></trkpt><trkpt lat="44.8350686" lon="7.4981447"><ele>255.83333333333331</ele><time>2026-04-18T13:01:40.004Z</time></trkpt><trkpt lat="44.8351448" lon="7.4981487"><ele>255.66666666666666</ele><time>2026-04-18T13:01:42.005Z</time></trkpt><trkpt lat="44.8352144" lon="7.4981458"><ele>255.5</ele><time>2026-04-18T13:01:45.005Z</time></trkpt><trkpt lat="44.8352693" lon="7.4980981"><ele>255.33333333333331</ele><time>2026-04-18T13:01:48.005Z</time></trkpt><trkpt lat="44.8353161" lon="7.4979878"><ele>255.16666666666666</ele><time>2026-04-18T13:01:50.005Z</time></trkpt><trkpt lat="44.8353514" lon="7.4978052"><ele>255.0</ele><time>2026-04-18T13:01:52.005Z</time></trkpt><trkpt lat="44.8353929" lon="7.4976901"><ele>255.0</ele><time>2026-04-18T13:01:53.004Z</time></trkpt><trkpt lat="44.8354584" lon="7.4975783"><ele>255.0</ele><time>2026-04-18T13:01:54.005Z</time></trkpt><trkpt lat="44.8355425" lon="7.4974613"><ele>255.0</ele><time>2026-04-18T13:01:55.004Z</time></trkpt><trkpt lat="44.8356297" lon="7.4973461"><ele>255.0</ele><time>2026-04-18T13:01:56.004Z</time></trkpt><trkpt lat="44.8357262" lon="7.4972325"><ele>255.0</ele><time>2026-04-18T13:01:57.004Z</time></trkpt><trkpt lat="44.8358249" lon="7.497118"><ele>255.0</ele><time>2026-04-18T13:01:58.004Z</time></trkpt><trkpt lat="44.835933" lon="7.4969939"><ele>255.0</ele><time>2026-04-18T13:01:59.005Z</time></trkpt><trkpt lat="44.836041" lon="7.4968676"><ele>255.0</ele><time>2026-04-18T13:02:00.004Z</time></trkpt><trkpt lat="44.8361548" lon="7.4967325"><ele>255.33333333333331</ele><time>2026-04-18T13:02:01.005Z</time></trkpt><trkpt lat="44.836273" lon="7.4966006"><ele>255.66666666666666</ele><time>2026-04-18T13:02:02.004Z</time></trkpt><trkpt lat="44.8363921" lon="7.4964663"><ele>256.0</ele><time>2026-04-18T13:02:03.005Z</time></trkpt><trkpt lat="44.8365166" lon="7.4963234"><ele>256.0</ele><time>2026-04-18T13:02:04.004Z</time></trkpt><trkpt lat="44.83664" lon="7.4961826"><ele>256.0</ele><time>2026-04-18T13:02:05.005Z</time></trkpt><trkpt lat="44.8367598" lon="7.4960474"><ele>256.0</ele><time>2026-04-18T13:02:06.004Z</time></trkpt><trkpt lat="44.8368781" lon="7.4959153"><ele>256.0</ele><time>2026-04-18T13:02:07.005Z</time></trkpt><trkpt lat="44.8369924" lon="7.4957885"><ele>256.0</ele><time>2026-04-18T13:02:08.005Z</time></trkpt><trkpt lat="44.8371034" lon="7.4956636"><ele>256.0</ele><time>2026-04-18T13:02:09.004Z</time></trkpt><trkpt lat="44.837213" lon="7.4955477"><ele>256.0</ele><time>2026-04-18T13:02:10.005Z</time></trkpt><trkpt lat="44.8373276" lon="7.4954372"><ele>256.0</ele><time>2026-04-18T13:02:11.005Z</time></trkpt><trkpt lat="44.8374581" lon="7.4953406"><ele>256.0</ele><time>2026-04-18T13:02:12.005Z</time></trkpt><trkpt lat="44.8376051" lon="7.4952614"><ele>256.0</ele><time>2026-04-18T13:02:13.004Z</time></trkpt><trkpt lat="44.837754" lon="7.4951994"><ele>256.75</ele><time>2026-04-18T13:02:14.004Z</time></trkpt><trkpt lat="44.8378934" lon="7.4951403"><ele>257.5</ele><time>2026-04-18T13:02:15.005Z</time></trkpt><trkpt lat="44.8380255" lon="7.4950857"><ele>258.25</ele><time>2026-04-18T13:02:16.004Z</time></trkpt><trkpt lat="44.8381503" lon="7.4950373"><ele>259.0</ele><time>2026-04-18T13:02:17.005Z</time></trkpt><trkpt lat="44.8382794" lon="7.4949887"><ele>259.0</ele><time>2026-04-18T13:02:18.005Z</time></trkpt><trkpt lat="44.8384137" lon="7.4949393"><ele>259.0</ele><time>2026-04-18T13:02:19.004Z</time></trkpt><trkpt lat="44.8385478" lon="7.4948965"><ele>259.0</ele><time>2026-04-18T13:02:20.005Z</time></trkpt><trkpt lat="44.8386716" lon="7.494861"><ele>259.0</ele><time>2026-04-18T13:02:21.004Z</time></trkpt><trkpt lat="44.8387909" lon="7.4948245"><ele>259.25</ele><time>2026-04-18T13:02:22.004Z</time></trkpt><trkpt lat="44.8389078" lon="7.4947875"><ele>259.5</ele><time>2026-04-18T13:02:23.005Z</time></trkpt><trkpt lat="44.8390234" lon="7.4947509"><ele>259.75</ele><time>2026-04-18T13:02:24.005Z</time></trkpt><trkpt lat="44.8391363" lon="7.4947192"><ele>260.0</ele><time>2026-04-18T13:02:25.004Z</time></trkpt><trkpt lat="44.8392491" lon="7.4946851"><ele>260.0</ele><time>2026-04-18T13:02:26.004Z</time></trkpt><trkpt lat="44.8393626" lon="7.4946536"><ele>260.0</ele><time>2026-04-18T13:02:27.005Z</time></trkpt><trkpt lat="44.839479" lon="7.4946189"><ele>260.0</ele><time>2026-04-18T13:02:28.005Z</time></trkpt><trkpt lat="44.8395989" lon="7.4945836"><ele>260.0</ele><time>2026-04-18T13:02:29.004Z</time></trkpt><trkpt lat="44.8397057" lon="7.4945501"><ele>260.0</ele><time>2026-04-18T13:02:30.005Z</time></trkpt><trkpt lat="44.8398095" lon="7.4945166"><ele>260.0</ele><time>2026-04-18T13:02:31.004Z</time></trkpt><trkpt lat="44.839908" lon="7.4944796"><ele>260.0</ele><time>2026-04-18T13:02:32.004Z</time></trkpt><trkpt lat="44.8399983" lon="7.4944398"><ele>260.0</ele><time>2026-04-18T13:02:33.004Z</time></trkpt><trkpt lat="44.8400941" lon="7.4944022"><ele>260.0</ele><time>2026-04-18T13:02:34.005Z</time></trkpt><trkpt lat="44.8401881" lon="7.4943647"><ele>260.2</ele><time>2026-04-18T13:02:35.005Z</time></trkpt><trkpt lat="44.8402872" lon="7.4943339"><ele>260.4</ele><time>2026-04-18T13:02:36.005Z</time></trkpt><trkpt lat="44.8403791" lon="7.4943155"><ele>260.6</ele><time>2026-04-18T13:02:37.004Z</time></trkpt><trkpt lat="44.8404757" lon="7.4943064"><ele>260.8</ele><time>2026-04-18T13:02:38.005Z</time></trkpt><trkpt lat="44.8405663" lon="7.4942893"><ele>261.0</ele><time>2026-04-18T13:02:39.005Z</time></trkpt><trkpt lat="44.8406498" lon="7.4942803"><ele>261.0</ele><time>2026-04-18T13:02:40.005Z</time></trkpt><trkpt lat="44.8407317" lon="7.4942621"><ele>261.0</ele><time>2026-04-18T13:02:41.004Z</time></trkpt><trkpt lat="44.8408008" lon="7.4942419"><ele>261.0</ele><time>2026-04-18T13:02:42.005Z</time></trkpt><trkpt lat="44.8408638" lon="7.4942319"><ele>261.0</ele><time>2026-04-18T13:02:43.004Z</time></trkpt><trkpt lat="44.8409898" lon="7.4941909"><ele>261.0</ele><time>2026-04-18T13:02:45.004Z</time></trkpt><trkpt lat="44.8410539" lon="7.4941683"><ele>261.0</ele><time>2026-04-18T13:02:46.004Z</time></trkpt><trkpt lat="44.8411151" lon="7.494141"><ele>261.5</ele><time>2026-04-18T13:02:47.005Z</time></trkpt><trkpt lat="44.8412255" lon="7.4941006"><ele>262.0</ele><time>2026-04-18T13:02:49.005Z</time></trkpt><trkpt lat="44.84129" lon="7.4940768"><ele>262.5</ele><time>2026-04-18T13:02:50.004Z</time></trkpt><trkpt lat="44.8413525" lon="7.4940574"><ele>263.0</ele><time>2026-04-18T13:02:51.004Z</time></trkpt><trkpt lat="44.8414156" lon="7.4940529"><ele>263.5</ele><time>2026-04-18T13:02:52.004Z</time></trkpt><trkpt lat="44.841529" lon="7.4940241"><ele>264.0</ele><time>2026-04-18T13:02:54.004Z</time></trkpt><trkpt lat="44.8416054" lon="7.494011"><ele>264.0</ele><time>2026-04-18T13:02:56.005Z</time></trkpt><trkpt lat="44.8416768" lon="7.4939721"><ele>264.0</ele><time>2026-04-18T13:03:27.007Z</time></trkpt><trkpt lat="44.8417368" lon="7.4940291"><ele>264.0</ele><time>2026-04-18T13:03:34.006Z</time></trkpt><trkpt lat="44.8417593" lon="7.4941817"><ele>264.0</ele><time>2026-04-18T13:03:36.007Z</time></trkpt><trkpt lat="44.8417798" lon="7.4942959"><ele>264.0</ele><time>2026-04-18T13:03:37.998Z</time></trkpt><trkpt lat="44.8418132" lon="7.4943964"><ele>264.0</ele><time>2026-04-18T13:03:41.006Z</time></trkpt><trkpt lat="44.8418412" lon="7.4945334"><ele>264.0</ele><time>2026-04-18T13:03:42.998Z</time></trkpt><trkpt lat="44.841854" lon="7.494635"><ele>264.0</ele><time>2026-04-18T13:03:44Z</time></trkpt><trkpt lat="44.8419016" lon="7.4947177"><ele>264.0</ele><time>2026-04-18T13:03:46.012Z</time></trkpt><trkpt lat="44.841977" lon="7.4947355"><ele>264.0</ele><time>2026-04-18T13:03:48.001Z</time></trkpt><trkpt lat="44.8420427" lon="7.4947398"><ele>264.0</ele><time>2026-04-18T13:03:49.01Z</time></trkpt><trkpt lat="44.8421452" lon="7.4947177"><ele>264.0</ele><time>2026-04-18T13:03:49.999Z</time></trkpt><trkpt lat="44.842221" lon="7.4947047"><ele>264.0</ele><time>2026-04-18T13:03:50.999Z</time></trkpt><trkpt lat="44.8422885" lon="7.4946647"><ele>264.0</ele><time>2026-04-18T13:03:52.009Z</time></trkpt><trkpt lat="44.8423622" lon="7.4946479"><ele>264.0</ele><time>2026-04-18T13:03:53.008Z</time></trkpt><trkpt lat="44.8424473" lon="7.4946403"><ele>264.0</ele><time>2026-04-18T13:03:55.006Z</time></trkpt><trkpt lat="44.8425296" lon="7.4946092"><ele>264.0</ele><time>2026-04-18T13:03:57.002Z</time></trkpt><trkpt lat="44.8426275" lon="7.4945864"><ele>264.0</ele><time>2026-04-18T13:03:59.002Z</time></trkpt><trkpt lat="44.8426998" lon="7.4945643"><ele>264.1428571428571</ele><time>2026-04-18T13:04:00.998Z</time></trkpt><trkpt lat="44.8427651" lon="7.49452"><ele>264.2857142857143</ele><time>2026-04-18T13:04:04.999Z</time></trkpt><trkpt lat="44.8427737" lon="7.4944198"><ele>264.42857142857144</ele><time>2026-04-18T13:04:10.01Z</time></trkpt><trkpt lat="44.8427061" lon="7.4944234"><ele>264.57142857142856</ele><time>2026-04-18T13:04:33.004Z</time></trkpt><trkpt lat="44.8426645" lon="7.4944953"><ele>264.7142857142857</ele><time>2026-04-18T13:06:57.998Z</time></trkpt><trkpt lat="44.8426717" lon="7.4944066"><ele>264.85714285714283</ele><time>2026-04-18T13:07:20.005Z</time></trkpt><trkpt lat="44.8426364" lon="7.4944917"><ele>265.0</ele><time>2026-04-18T13:07:40.003Z</time></trkpt><trkpt lat="44.8425844" lon="7.494567"><ele>265.0</ele><time>2026-04-18T13:08:53Z</time></trkpt></trkseg></trk></gpx>